<?xml version="1.0" encoding="UTF-8"?>
<gpx creator="https://gpx.studio" version="1.1" schemaLocation="http://www.topografix.com/GPX/1/1 http://www.topografix.com/GPX/1/1/gpx.xsd http://www.garmin.com/xmlschemas/GpxExtensions/v3 http://www.garmin.com/xmlschemas/GpxExtensionsv3.xsd http://www.garmin.com/xmlschemas/TrackPointExtension/v1 http://www.garmin.com/xmlschemas/TrackPointExtensionv1.xsd http://www.garmin.com/xmlschemas/PowerExtension/v1 http://www.garmin.com/xmlschemas/PowerExtensionv1.xsd http://www.topografix.com/GPX/gpx_style/0/2 http://www.topografix.com/GPX/gpx_style/0/2/gpx_style.xsd" xmlns="http://www.topografix.com/GPX/1/1" xmlns:xsi="http://www.w3.org/2001/XMLSchema-instance" xsi:schemaLocation="http://www.topografix.com/GPX/1/1 http://www.topografix.com/GPX/1/1/gpx.xsd http://www.garmin.com/xmlschemas/GpxExtensions/v3 http://www.garmin.com/xmlschemas/GpxExtensionsv3.xsd http://www.garmin.com/xmlschemas/TrackPointExtension/v1 http://www.garmin.com/xmlschemas/TrackPointExtensionv1.xsd http://www.garmin.com/xmlschemas/PowerExtension/v1 http://www.garmin.com/xmlschemas/PowerExtensionv1.xsd http://www.topografix.com/GPX/gpx_style/0/2 http://www.topografix.com/GPX/gpx_style/0/2/gpx_style.xsd" xmlns:gpxtpx="http://www.garmin.com/xmlschemas/TrackPointExtension/v1" xmlns:gpxx="http://www.garmin.com/xmlschemas/GpxExtensions/v3" xmlns:gpxpx="http://www.garmin.com/xmlschemas/PowerExtension/v1" xmlns:gpx_style="http://www.topografix.com/GPX/gpx_style/0/2">
  <metadata>
    <name>WidlinoMiejscowkaSzosa-fajnetraski</name>
    <author>
      <name>gpx.studio</name>
      <link href="https://gpx.studio"/>
    </author>
  </metadata>
  <trk>
    <name>WidlinoMiejscowkaSzosa-fajnetraski</name>
    <extensions>
      <gpx_style:line>
        <gpx_style:color>ff0000</gpx_style:color>
      </gpx_style:line>
    </extensions>
    <trkseg>
      <trkpt lat="54.427088" lon="18.490635">
        <ele>146.5</ele>
        <time>2026-01-01T09:02:03.000Z</time>
      </trkpt>
      <trkpt lat="54.427107" lon="18.490652">
        <ele>146.5</ele>
        <time>2026-01-01T09:02:03.316Z</time>
      </trkpt>
      <trkpt lat="54.427153" lon="18.49065">
        <ele>146.5</ele>
        <time>2026-01-01T09:02:03.995Z</time>
      </trkpt>
      <trkpt lat="54.427174" lon="18.490631">
        <ele>146.5</ele>
        <time>2026-01-01T09:02:04.345Z</time>
      </trkpt>
      <trkpt lat="54.42719" lon="18.490602">
        <ele>146.25</ele>
        <time>2026-01-01T09:02:04.688Z</time>
      </trkpt>
      <trkpt lat="54.427878" lon="18.490638">
        <ele>145.25</ele>
        <time>2026-01-01T09:02:15.155Z</time>
      </trkpt>
      <trkpt lat="54.427962" lon="18.490589">
        <ele>145.25</ele>
        <time>2026-01-01T09:02:16.521Z</time>
      </trkpt>
      <trkpt lat="54.427986" lon="18.491606">
        <ele>145.75</ele>
        <time>2026-01-01T09:02:26.518Z</time>
      </trkpt>
      <trkpt lat="54.428002" lon="18.491935">
        <ele>146</ele>
        <time>2026-01-01T09:02:29.799Z</time>
      </trkpt>
      <trkpt lat="54.428031" lon="18.492283">
        <ele>146.25</ele>
        <time>2026-01-01T09:02:33.327Z</time>
      </trkpt>
      <trkpt lat="54.428071" lon="18.492634">
        <ele>146.5</ele>
        <time>2026-01-01T09:02:36.925Z</time>
      </trkpt>
      <trkpt lat="54.428113" lon="18.492912">
        <ele>146.75</ele>
        <time>2026-01-01T09:02:39.779Z</time>
      </trkpt>
      <trkpt lat="54.428162" lon="18.493185">
        <ele>146.75</ele>
        <time>2026-01-01T09:02:42.608Z</time>
      </trkpt>
      <trkpt lat="54.42834" lon="18.493976">
        <ele>146.75</ele>
        <time>2026-01-01T09:02:50.781Z</time>
      </trkpt>
      <trkpt lat="54.428461" lon="18.4944">
        <ele>147.75</ele>
        <time>2026-01-01T09:02:55.533Z</time>
      </trkpt>
      <trkpt lat="54.42856" lon="18.494718">
        <ele>148.5</ele>
        <time>2026-01-01T09:02:59.408Z</time>
      </trkpt>
      <trkpt lat="54.428647" lon="18.494819">
        <ele>148.75</ele>
        <time>2026-01-01T09:03:01.276Z</time>
      </trkpt>
      <trkpt lat="54.428733" lon="18.494833">
        <ele>148.75</ele>
        <time>2026-01-01T09:03:02.782Z</time>
      </trkpt>
      <trkpt lat="54.42883" lon="18.494849">
        <ele>148.75</ele>
        <time>2026-01-01T09:03:04.481Z</time>
      </trkpt>
      <trkpt lat="54.42884" lon="18.494557">
        <ele>148.75</ele>
        <time>2026-01-01T09:03:07.308Z</time>
      </trkpt>
      <trkpt lat="54.428854" lon="18.494179">
        <ele>148.75</ele>
        <time>2026-01-01T09:03:10.909Z</time>
      </trkpt>
      <trkpt lat="54.428886" lon="18.493692">
        <ele>148.75</ele>
        <time>2026-01-01T09:03:15.568Z</time>
      </trkpt>
      <trkpt lat="54.428896" lon="18.493542">
        <ele>148.75</ele>
        <time>2026-01-01T09:03:16.937Z</time>
      </trkpt>
      <trkpt lat="54.428913" lon="18.493357">
        <ele>148.75</ele>
        <time>2026-01-01T09:03:18.636Z</time>
      </trkpt>
      <trkpt lat="54.42893" lon="18.493173">
        <ele>148.5</ele>
        <time>2026-01-01T09:03:20.274Z</time>
      </trkpt>
      <trkpt lat="54.428951" lon="18.492931">
        <ele>148</ele>
        <time>2026-01-01T09:03:22.426Z</time>
      </trkpt>
      <trkpt lat="54.428951" lon="18.492931">
        <ele>148</ele>
        <time>2026-01-01T09:03:22.426Z</time>
      </trkpt>
      <trkpt lat="54.428997" lon="18.492402">
        <ele>148</ele>
        <time>2026-01-01T09:03:27.286Z</time>
      </trkpt>
      <trkpt lat="54.429078" lon="18.491541">
        <ele>147.5</ele>
        <time>2026-01-01T09:03:35.351Z</time>
      </trkpt>
      <trkpt lat="54.429226" lon="18.490268">
        <ele>147.75</ele>
        <time>2026-01-01T09:03:47.584Z</time>
      </trkpt>
      <trkpt lat="54.429278" lon="18.489871">
        <ele>147.25</ele>
        <time>2026-01-01T09:03:51.409Z</time>
      </trkpt>
      <trkpt lat="54.42933" lon="18.48948">
        <ele>146.25</ele>
        <time>2026-01-01T09:03:54.689Z</time>
      </trkpt>
      <trkpt lat="54.429471" lon="18.488528">
        <ele>144.75</ele>
        <time>2026-01-01T09:04:02.757Z</time>
      </trkpt>
      <trkpt lat="54.429708" lon="18.487204">
        <ele>146.5</ele>
        <time>2026-01-01T09:04:16.035Z</time>
      </trkpt>
      <trkpt lat="54.429915" lon="18.486145">
        <ele>148.5</ele>
        <time>2026-01-01T09:04:27.865Z</time>
      </trkpt>
      <trkpt lat="54.430228" lon="18.484774">
        <ele>149.75</ele>
        <time>2026-01-01T09:04:43.209Z</time>
      </trkpt>
      <trkpt lat="54.430454" lon="18.483927">
        <ele>151</ele>
        <time>2026-01-01T09:04:52.774Z</time>
      </trkpt>
      <trkpt lat="54.430522" lon="18.483695">
        <ele>151</ele>
        <time>2026-01-01T09:04:55.442Z</time>
      </trkpt>
      <trkpt lat="54.430816" lon="18.482611">
        <ele>151.75</ele>
        <time>2026-01-01T09:05:07.265Z</time>
      </trkpt>
      <trkpt lat="54.430957" lon="18.482131">
        <ele>151.75</ele>
        <time>2026-01-01T09:05:12.548Z</time>
      </trkpt>
      <trkpt lat="54.431099" lon="18.481678">
        <ele>151.25</ele>
        <time>2026-01-01T09:05:17.261Z</time>
      </trkpt>
      <trkpt lat="54.431472" lon="18.480487">
        <ele>152.75</ele>
        <time>2026-01-01T09:05:30.652Z</time>
      </trkpt>
      <trkpt lat="54.431472" lon="18.480487">
        <ele>152.75</ele>
        <time>2026-01-01T09:05:30.652Z</time>
      </trkpt>
      <trkpt lat="54.431503" lon="18.48039">
        <ele>153</ele>
        <time>2026-01-01T09:05:31.867Z</time>
      </trkpt>
      <trkpt lat="54.431661" lon="18.480143">
        <ele>153.5</ele>
        <time>2026-01-01T09:05:35.995Z</time>
      </trkpt>
      <trkpt lat="54.431688" lon="18.480092">
        <ele>153.75</ele>
        <time>2026-01-01T09:05:36.794Z</time>
      </trkpt>
      <trkpt lat="54.431723" lon="18.480094">
        <ele>154</ele>
        <time>2026-01-01T09:05:37.479Z</time>
      </trkpt>
      <trkpt lat="54.431756" lon="18.48008">
        <ele>154</ele>
        <time>2026-01-01T09:05:38.132Z</time>
      </trkpt>
      <trkpt lat="54.431786" lon="18.480051">
        <ele>154.25</ele>
        <time>2026-01-01T09:05:38.793Z</time>
      </trkpt>
      <trkpt lat="54.431819" lon="18.479992">
        <ele>154.75</ele>
        <time>2026-01-01T09:05:39.708Z</time>
      </trkpt>
      <trkpt lat="54.431837" lon="18.479917">
        <ele>155.25</ele>
        <time>2026-01-01T09:05:40.615Z</time>
      </trkpt>
      <trkpt lat="54.431839" lon="18.479849">
        <ele>155.75</ele>
        <time>2026-01-01T09:05:41.388Z</time>
      </trkpt>
      <trkpt lat="54.431829" lon="18.479783">
        <ele>156</ele>
        <time>2026-01-01T09:05:42.163Z</time>
      </trkpt>
      <trkpt lat="54.431808" lon="18.479725">
        <ele>156.25</ele>
        <time>2026-01-01T09:05:42.939Z</time>
      </trkpt>
      <trkpt lat="54.431778" lon="18.479681">
        <ele>156.5</ele>
        <time>2026-01-01T09:05:43.709Z</time>
      </trkpt>
      <trkpt lat="54.431741" lon="18.479654">
        <ele>156.5</ele>
        <time>2026-01-01T09:05:44.484Z</time>
      </trkpt>
      <trkpt lat="54.431702" lon="18.479648">
        <ele>156.25</ele>
        <time>2026-01-01T09:05:45.239Z</time>
      </trkpt>
      <trkpt lat="54.431663" lon="18.479662">
        <ele>156</ele>
        <time>2026-01-01T09:05:46.004Z</time>
      </trkpt>
      <trkpt lat="54.431548" lon="18.479532">
        <ele>156.5</ele>
        <time>2026-01-01T09:05:48.615Z</time>
      </trkpt>
      <trkpt lat="54.431396" lon="18.479364">
        <ele>157</ele>
        <time>2026-01-01T09:05:51.877Z</time>
      </trkpt>
      <trkpt lat="54.431302" lon="18.479242">
        <ele>157.25</ele>
        <time>2026-01-01T09:05:53.853Z</time>
      </trkpt>
      <trkpt lat="54.431182" lon="18.479146">
        <ele>157.25</ele>
        <time>2026-01-01T09:05:56.149Z</time>
      </trkpt>
      <trkpt lat="54.431034" lon="18.479053">
        <ele>157</ele>
        <time>2026-01-01T09:05:58.822Z</time>
      </trkpt>
      <trkpt lat="54.430266" lon="18.478635">
        <ele>154.25</ele>
        <time>2026-01-01T09:06:10.665Z</time>
      </trkpt>
      <trkpt lat="54.429924" lon="18.478435">
        <ele>152.75</ele>
        <time>2026-01-01T09:06:15.635Z</time>
      </trkpt>
      <trkpt lat="54.42981" lon="18.478302">
        <ele>152.75</ele>
        <time>2026-01-01T09:06:17.669Z</time>
      </trkpt>
      <trkpt lat="54.42967" lon="18.47809">
        <ele>152.5</ele>
        <time>2026-01-01T09:06:20.660Z</time>
      </trkpt>
      <trkpt lat="54.429624" lon="18.477902">
        <ele>152.5</ele>
        <time>2026-01-01T09:06:22.542Z</time>
      </trkpt>
      <trkpt lat="54.4296" lon="18.477808">
        <ele>152.5</ele>
        <time>2026-01-01T09:06:23.493Z</time>
      </trkpt>
      <trkpt lat="54.429586" lon="18.477748">
        <ele>152.5</ele>
        <time>2026-01-01T09:06:24.090Z</time>
      </trkpt>
      <trkpt lat="54.429611" lon="18.477681">
        <ele>152.5</ele>
        <time>2026-01-01T09:06:24.826Z</time>
      </trkpt>
      <trkpt lat="54.429622" lon="18.477605">
        <ele>152.5</ele>
        <time>2026-01-01T09:06:25.541Z</time>
      </trkpt>
      <trkpt lat="54.429619" lon="18.477526">
        <ele>152.5</ele>
        <time>2026-01-01T09:06:26.270Z</time>
      </trkpt>
      <trkpt lat="54.429602" lon="18.477452">
        <ele>152.5</ele>
        <time>2026-01-01T09:06:27.004Z</time>
      </trkpt>
      <trkpt lat="54.429571" lon="18.477393">
        <ele>152.25</ele>
        <time>2026-01-01T09:06:27.738Z</time>
      </trkpt>
      <trkpt lat="54.429537" lon="18.477356">
        <ele>152.25</ele>
        <time>2026-01-01T09:06:28.378Z</time>
      </trkpt>
      <trkpt lat="54.429497" lon="18.477337">
        <ele>152.25</ele>
        <time>2026-01-01T09:06:29.035Z</time>
      </trkpt>
      <trkpt lat="54.429459" lon="18.477338">
        <ele>152.25</ele>
        <time>2026-01-01T09:06:29.639Z</time>
      </trkpt>
      <trkpt lat="54.429422" lon="18.477356">
        <ele>152.25</ele>
        <time>2026-01-01T09:06:30.251Z</time>
      </trkpt>
      <trkpt lat="54.429389" lon="18.47739">
        <ele>152.25</ele>
        <time>2026-01-01T09:06:30.863Z</time>
      </trkpt>
      <trkpt lat="54.429364" lon="18.477435">
        <ele>152</ele>
        <time>2026-01-01T09:06:31.438Z</time>
      </trkpt>
      <trkpt lat="54.429346" lon="18.47749">
        <ele>152</ele>
        <time>2026-01-01T09:06:32.022Z</time>
      </trkpt>
      <trkpt lat="54.429336" lon="18.477568">
        <ele>152</ele>
        <time>2026-01-01T09:06:32.760Z</time>
      </trkpt>
      <trkpt lat="54.42934" lon="18.477646">
        <ele>152</ele>
        <time>2026-01-01T09:06:33.482Z</time>
      </trkpt>
      <trkpt lat="54.429359" lon="18.477719">
        <ele>152</ele>
        <time>2026-01-01T09:06:34.218Z</time>
      </trkpt>
      <trkpt lat="54.429321" lon="18.477868">
        <ele>152</ele>
        <time>2026-01-01T09:06:35.739Z</time>
      </trkpt>
      <trkpt lat="54.429297" lon="18.477961">
        <ele>152</ele>
        <time>2026-01-01T09:06:36.692Z</time>
      </trkpt>
      <trkpt lat="54.429283" lon="18.478014">
        <ele>152</ele>
        <time>2026-01-01T09:06:37.237Z</time>
      </trkpt>
      <trkpt lat="54.429237" lon="18.478126">
        <ele>152</ele>
        <time>2026-01-01T09:06:38.519Z</time>
      </trkpt>
      <trkpt lat="54.429129" lon="18.4784">
        <ele>152</ele>
        <time>2026-01-01T09:06:41.665Z</time>
      </trkpt>
      <trkpt lat="54.429033" lon="18.478747">
        <ele>152</ele>
        <time>2026-01-01T09:06:45.318Z</time>
      </trkpt>
      <trkpt lat="54.42893" lon="18.478639">
        <ele>152</ele>
        <time>2026-01-01T09:06:47.289Z</time>
      </trkpt>
      <trkpt lat="54.428843" lon="18.478643">
        <ele>152</ele>
        <time>2026-01-01T09:06:48.711Z</time>
      </trkpt>
      <trkpt lat="54.428789" lon="18.478673">
        <ele>152</ele>
        <time>2026-01-01T09:06:49.638Z</time>
      </trkpt>
      <trkpt lat="54.428605" lon="18.478731">
        <ele>152</ele>
        <time>2026-01-01T09:06:52.695Z</time>
      </trkpt>
      <trkpt lat="54.428409" lon="18.478793">
        <ele>152</ele>
        <time>2026-01-01T09:06:55.952Z</time>
      </trkpt>
      <trkpt lat="54.428212" lon="18.478844">
        <ele>152</ele>
        <time>2026-01-01T09:06:59.208Z</time>
      </trkpt>
      <trkpt lat="54.427936" lon="18.478887">
        <ele>152</ele>
        <time>2026-01-01T09:07:03.737Z</time>
      </trkpt>
      <trkpt lat="54.427564" lon="18.478922">
        <ele>152.25</ele>
        <time>2026-01-01T09:07:09.931Z</time>
      </trkpt>
      <trkpt lat="54.427442" lon="18.478924">
        <ele>152.25</ele>
        <time>2026-01-01T09:07:11.970Z</time>
      </trkpt>
      <trkpt lat="54.42687" lon="18.478909">
        <ele>152.75</ele>
        <time>2026-01-01T09:07:21.622Z</time>
      </trkpt>
      <trkpt lat="54.426784" lon="18.478905">
        <ele>152.75</ele>
        <time>2026-01-01T09:07:23.076Z</time>
      </trkpt>
      <trkpt lat="54.426291" lon="18.478893">
        <ele>152.25</ele>
        <time>2026-01-01T09:07:30.822Z</time>
      </trkpt>
      <trkpt lat="54.426193" lon="18.478889">
        <ele>152</ele>
        <time>2026-01-01T09:07:32.347Z</time>
      </trkpt>
      <trkpt lat="54.426085" lon="18.478882">
        <ele>152</ele>
        <time>2026-01-01T09:07:34.017Z</time>
      </trkpt>
      <trkpt lat="54.425237" lon="18.478826">
        <ele>151.25</ele>
        <time>2026-01-01T09:07:47.297Z</time>
      </trkpt>
      <trkpt lat="54.425157" lon="18.478822">
        <ele>151</ele>
        <time>2026-01-01T09:07:48.542Z</time>
      </trkpt>
      <trkpt lat="54.42465" lon="18.478788">
        <ele>150.5</ele>
        <time>2026-01-01T09:07:56.361Z</time>
      </trkpt>
      <trkpt lat="54.424625" lon="18.478787">
        <ele>150.5</ele>
        <time>2026-01-01T09:07:56.749Z</time>
      </trkpt>
      <trkpt lat="54.424513" lon="18.478782">
        <ele>150.25</ele>
        <time>2026-01-01T09:07:58.472Z</time>
      </trkpt>
      <trkpt lat="54.424394" lon="18.478766">
        <ele>150.25</ele>
        <time>2026-01-01T09:08:00.307Z</time>
      </trkpt>
      <trkpt lat="54.424377" lon="18.478764">
        <ele>150.25</ele>
        <time>2026-01-01T09:08:00.565Z</time>
      </trkpt>
      <trkpt lat="54.424271" lon="18.478756">
        <ele>150</ele>
        <time>2026-01-01T09:08:02.177Z</time>
      </trkpt>
      <trkpt lat="54.424014" lon="18.478747">
        <ele>149.5</ele>
        <time>2026-01-01T09:08:06.083Z</time>
      </trkpt>
      <trkpt lat="54.423439" lon="18.478715">
        <ele>148.5</ele>
        <time>2026-01-01T09:08:14.718Z</time>
      </trkpt>
      <trkpt lat="54.423372" lon="18.478711">
        <ele>148.25</ele>
        <time>2026-01-01T09:08:15.718Z</time>
      </trkpt>
      <trkpt lat="54.422965" lon="18.478688">
        <ele>148.25</ele>
        <time>2026-01-01T09:08:22.216Z</time>
      </trkpt>
      <trkpt lat="54.422868" lon="18.478682">
        <ele>148.5</ele>
        <time>2026-01-01T09:08:23.830Z</time>
      </trkpt>
      <trkpt lat="54.422742" lon="18.478677">
        <ele>148.5</ele>
        <time>2026-01-01T09:08:25.993Z</time>
      </trkpt>
      <trkpt lat="54.422264" lon="18.478646">
        <ele>148</ele>
        <time>2026-01-01T09:08:33.686Z</time>
      </trkpt>
      <trkpt lat="54.42196" lon="18.47863">
        <ele>147.25</ele>
        <time>2026-01-01T09:08:38.295Z</time>
      </trkpt>
      <trkpt lat="54.421823" lon="18.478621">
        <ele>147</ele>
        <time>2026-01-01T09:08:40.292Z</time>
      </trkpt>
      <trkpt lat="54.421654" lon="18.478611">
        <ele>146.5</ele>
        <time>2026-01-01T09:08:42.755Z</time>
      </trkpt>
      <trkpt lat="54.421189" lon="18.478584">
        <ele>146.5</ele>
        <time>2026-01-01T09:08:50.028Z</time>
      </trkpt>
      <trkpt lat="54.421008" lon="18.478575">
        <ele>146.5</ele>
        <time>2026-01-01T09:08:52.987Z</time>
      </trkpt>
      <trkpt lat="54.420901" lon="18.478567">
        <ele>146.5</ele>
        <time>2026-01-01T09:08:54.702Z</time>
      </trkpt>
      <trkpt lat="54.420626" lon="18.478551">
        <ele>146.25</ele>
        <time>2026-01-01T09:08:59.123Z</time>
      </trkpt>
      <trkpt lat="54.420528" lon="18.478545">
        <ele>146.25</ele>
        <time>2026-01-01T09:09:00.647Z</time>
      </trkpt>
      <trkpt lat="54.420321" lon="18.478544">
        <ele>145.75</ele>
        <time>2026-01-01T09:09:03.839Z</time>
      </trkpt>
      <trkpt lat="54.420106" lon="18.478543">
        <ele>145.5</ele>
        <time>2026-01-01T09:09:07.130Z</time>
      </trkpt>
      <trkpt lat="54.419921" lon="18.478553">
        <ele>145.25</ele>
        <time>2026-01-01T09:09:10.028Z</time>
      </trkpt>
      <trkpt lat="54.41981" lon="18.478535">
        <ele>145.5</ele>
        <time>2026-01-01T09:09:11.815Z</time>
      </trkpt>
      <trkpt lat="54.419728" lon="18.478522">
        <ele>145.5</ele>
        <time>2026-01-01T09:09:13.181Z</time>
      </trkpt>
      <trkpt lat="54.419446" lon="18.478396">
        <ele>145.75</ele>
        <time>2026-01-01T09:09:18.008Z</time>
      </trkpt>
      <trkpt lat="54.419387" lon="18.478366">
        <ele>145.75</ele>
        <time>2026-01-01T09:09:19.042Z</time>
      </trkpt>
      <trkpt lat="54.419351" lon="18.478342">
        <ele>145.75</ele>
        <time>2026-01-01T09:09:19.689Z</time>
      </trkpt>
      <trkpt lat="54.419322" lon="18.478259">
        <ele>145.75</ele>
        <time>2026-01-01T09:09:20.635Z</time>
      </trkpt>
      <trkpt lat="54.419299" lon="18.47823">
        <ele>145.75</ele>
        <time>2026-01-01T09:09:21.114Z</time>
      </trkpt>
      <trkpt lat="54.419273" lon="18.478212">
        <ele>145.75</ele>
        <time>2026-01-01T09:09:21.588Z</time>
      </trkpt>
      <trkpt lat="54.419217" lon="18.478212">
        <ele>145.75</ele>
        <time>2026-01-01T09:09:22.535Z</time>
      </trkpt>
      <trkpt lat="54.419186" lon="18.478235">
        <ele>145.75</ele>
        <time>2026-01-01T09:09:23.106Z</time>
      </trkpt>
      <trkpt lat="54.419161" lon="18.478273">
        <ele>145.75</ele>
        <time>2026-01-01T09:09:23.670Z</time>
      </trkpt>
      <trkpt lat="54.419144" lon="18.478321">
        <ele>146</ele>
        <time>2026-01-01T09:09:24.223Z</time>
      </trkpt>
      <trkpt lat="54.419136" lon="18.478377">
        <ele>146</ele>
        <time>2026-01-01T09:09:24.790Z</time>
      </trkpt>
      <trkpt lat="54.419047" lon="18.478441">
        <ele>146</ele>
        <time>2026-01-01T09:09:26.423Z</time>
      </trkpt>
      <trkpt lat="54.418938" lon="18.478536">
        <ele>146.25</ele>
        <time>2026-01-01T09:09:28.499Z</time>
      </trkpt>
      <trkpt lat="54.41893" lon="18.478538">
        <ele>146.25</ele>
        <time>2026-01-01T09:09:28.637Z</time>
      </trkpt>
      <trkpt lat="54.41893" lon="18.478538">
        <ele>146.25</ele>
        <time>2026-01-01T09:09:28.637Z</time>
      </trkpt>
      <trkpt lat="54.418085" lon="18.478852">
        <ele>148</ele>
        <time>2026-01-01T09:09:43.851Z</time>
      </trkpt>
      <trkpt lat="54.4171" lon="18.47919">
        <ele>148.25</ele>
        <time>2026-01-01T09:10:01.056Z</time>
      </trkpt>
      <trkpt lat="54.416945" lon="18.479257">
        <ele>148.5</ele>
        <time>2026-01-01T09:10:03.755Z</time>
      </trkpt>
      <trkpt lat="54.416766" lon="18.479361">
        <ele>149</ele>
        <time>2026-01-01T09:10:07.074Z</time>
      </trkpt>
      <trkpt lat="54.416603" lon="18.47948">
        <ele>149.25</ele>
        <time>2026-01-01T09:10:10.092Z</time>
      </trkpt>
      <trkpt lat="54.416535" lon="18.479518">
        <ele>149.25</ele>
        <time>2026-01-01T09:10:11.260Z</time>
      </trkpt>
      <trkpt lat="54.416415" lon="18.479518">
        <ele>149</ele>
        <time>2026-01-01T09:10:13.221Z</time>
      </trkpt>
      <trkpt lat="54.416347" lon="18.479526">
        <ele>149</ele>
        <time>2026-01-01T09:10:14.304Z</time>
      </trkpt>
      <trkpt lat="54.416292" lon="18.47952">
        <ele>148.75</ele>
        <time>2026-01-01T09:10:15.181Z</time>
      </trkpt>
      <trkpt lat="54.416258" lon="18.479444">
        <ele>148.75</ele>
        <time>2026-01-01T09:10:16.064Z</time>
      </trkpt>
      <trkpt lat="54.416211" lon="18.479393">
        <ele>148.5</ele>
        <time>2026-01-01T09:10:16.944Z</time>
      </trkpt>
      <trkpt lat="54.416181" lon="18.479379">
        <ele>148.5</ele>
        <time>2026-01-01T09:10:17.431Z</time>
      </trkpt>
      <trkpt lat="54.416118" lon="18.479384">
        <ele>148.5</ele>
        <time>2026-01-01T09:10:18.416Z</time>
      </trkpt>
      <trkpt lat="54.416082" lon="18.47941">
        <ele>148.5</ele>
        <time>2026-01-01T09:10:19.025Z</time>
      </trkpt>
      <trkpt lat="54.41605" lon="18.479451">
        <ele>148.5</ele>
        <time>2026-01-01T09:10:19.650Z</time>
      </trkpt>
      <trkpt lat="54.416026" lon="18.479505">
        <ele>148.5</ele>
        <time>2026-01-01T09:10:20.269Z</time>
      </trkpt>
      <trkpt lat="54.416011" lon="18.479568">
        <ele>148.5</ele>
        <time>2026-01-01T09:10:20.889Z</time>
      </trkpt>
      <trkpt lat="54.416007" lon="18.479635">
        <ele>148.75</ele>
        <time>2026-01-01T09:10:21.500Z</time>
      </trkpt>
      <trkpt lat="54.415902" lon="18.479699">
        <ele>148.5</ele>
        <time>2026-01-01T09:10:23.261Z</time>
      </trkpt>
      <trkpt lat="54.415739" lon="18.479768">
        <ele>148.25</ele>
        <time>2026-01-01T09:10:25.950Z</time>
      </trkpt>
      <trkpt lat="54.415739" lon="18.479768">
        <ele>148.25</ele>
        <time>2026-01-01T09:10:25.950Z</time>
      </trkpt>
      <trkpt lat="54.415213" lon="18.479994">
        <ele>148.25</ele>
        <time>2026-01-01T09:10:34.710Z</time>
      </trkpt>
      <trkpt lat="54.414961" lon="18.480091">
        <ele>147.75</ele>
        <time>2026-01-01T09:10:38.812Z</time>
      </trkpt>
      <trkpt lat="54.41473" lon="18.48018">
        <ele>147.25</ele>
        <time>2026-01-01T09:10:42.347Z</time>
      </trkpt>
      <trkpt lat="54.414606" lon="18.480234">
        <ele>147</ele>
        <time>2026-01-01T09:10:44.233Z</time>
      </trkpt>
      <trkpt lat="54.414585" lon="18.480244">
        <ele>147</ele>
        <time>2026-01-01T09:10:44.554Z</time>
      </trkpt>
      <trkpt lat="54.414452" lon="18.480293">
        <ele>146.75</ele>
        <time>2026-01-01T09:10:46.560Z</time>
      </trkpt>
      <trkpt lat="54.414297" lon="18.480359">
        <ele>146.25</ele>
        <time>2026-01-01T09:10:48.876Z</time>
      </trkpt>
      <trkpt lat="54.414143" lon="18.480421">
        <ele>145.75</ele>
        <time>2026-01-01T09:10:51.170Z</time>
      </trkpt>
      <trkpt lat="54.414062" lon="18.480452">
        <ele>145.5</ele>
        <time>2026-01-01T09:10:52.408Z</time>
      </trkpt>
      <trkpt lat="54.414062" lon="18.480452">
        <ele>145.5</ele>
        <time>2026-01-01T09:10:52.408Z</time>
      </trkpt>
      <trkpt lat="54.414062" lon="18.480452">
        <ele>145.5</ele>
        <time>2026-01-01T09:10:52.408Z</time>
      </trkpt>
      <trkpt lat="54.413831" lon="18.480544">
        <ele>145.5</ele>
        <time>2026-01-01T09:10:56.016Z</time>
      </trkpt>
      <trkpt lat="54.413662" lon="18.480593">
        <ele>145.5</ele>
        <time>2026-01-01T09:10:58.753Z</time>
      </trkpt>
      <trkpt lat="54.412818" lon="18.480877">
        <ele>144</ele>
        <time>2026-01-01T09:11:12.065Z</time>
      </trkpt>
      <trkpt lat="54.412638" lon="18.480938">
        <ele>143.75</ele>
        <time>2026-01-01T09:11:14.838Z</time>
      </trkpt>
      <trkpt lat="54.412498" lon="18.481006">
        <ele>143.5</ele>
        <time>2026-01-01T09:11:17.121Z</time>
      </trkpt>
      <trkpt lat="54.412275" lon="18.481147">
        <ele>143.5</ele>
        <time>2026-01-01T09:11:20.875Z</time>
      </trkpt>
      <trkpt lat="54.412181" lon="18.481237">
        <ele>143.5</ele>
        <time>2026-01-01T09:11:22.608Z</time>
      </trkpt>
      <trkpt lat="54.412086" lon="18.481347">
        <ele>143.5</ele>
        <time>2026-01-01T09:11:24.451Z</time>
      </trkpt>
      <trkpt lat="54.411952" lon="18.48155">
        <ele>143.5</ele>
        <time>2026-01-01T09:11:27.314Z</time>
      </trkpt>
      <trkpt lat="54.411891" lon="18.481661">
        <ele>143.25</ele>
        <time>2026-01-01T09:11:28.721Z</time>
      </trkpt>
      <trkpt lat="54.411833" lon="18.481795">
        <ele>143.25</ele>
        <time>2026-01-01T09:11:30.220Z</time>
      </trkpt>
      <trkpt lat="54.411758" lon="18.482001">
        <ele>143</ele>
        <time>2026-01-01T09:11:32.337Z</time>
      </trkpt>
      <trkpt lat="54.411686" lon="18.482279">
        <ele>142.5</ele>
        <time>2026-01-01T09:11:34.920Z</time>
      </trkpt>
      <trkpt lat="54.41165" lon="18.482464">
        <ele>142</ele>
        <time>2026-01-01T09:11:36.548Z</time>
      </trkpt>
      <trkpt lat="54.411601" lon="18.482879">
        <ele>141</ele>
        <time>2026-01-01T09:11:40.001Z</time>
      </trkpt>
      <trkpt lat="54.411593" lon="18.482934">
        <ele>141</ele>
        <time>2026-01-01T09:11:40.470Z</time>
      </trkpt>
      <trkpt lat="54.411577" lon="18.483049">
        <ele>140.75</ele>
        <time>2026-01-01T09:11:41.450Z</time>
      </trkpt>
      <trkpt lat="54.411556" lon="18.483151">
        <ele>140.5</ele>
        <time>2026-01-01T09:11:42.392Z</time>
      </trkpt>
      <trkpt lat="54.411513" lon="18.483188">
        <ele>140.5</ele>
        <time>2026-01-01T09:11:43.116Z</time>
      </trkpt>
      <trkpt lat="54.411479" lon="18.483245">
        <ele>140.25</ele>
        <time>2026-01-01T09:11:43.863Z</time>
      </trkpt>
      <trkpt lat="54.411457" lon="18.483318">
        <ele>140.25</ele>
        <time>2026-01-01T09:11:44.619Z</time>
      </trkpt>
      <trkpt lat="54.411409" lon="18.483302">
        <ele>140.25</ele>
        <time>2026-01-01T09:11:45.391Z</time>
      </trkpt>
      <trkpt lat="54.411358" lon="18.483285">
        <ele>140.25</ele>
        <time>2026-01-01T09:11:46.215Z</time>
      </trkpt>
      <trkpt lat="54.411271" lon="18.483245">
        <ele>140.5</ele>
        <time>2026-01-01T09:11:47.644Z</time>
      </trkpt>
      <trkpt lat="54.411226" lon="18.483254">
        <ele>140.5</ele>
        <time>2026-01-01T09:11:48.364Z</time>
      </trkpt>
      <trkpt lat="54.411186" lon="18.483326">
        <ele>140.5</ele>
        <time>2026-01-01T09:11:49.284Z</time>
      </trkpt>
      <trkpt lat="54.411171" lon="18.483452">
        <ele>140.5</ele>
        <time>2026-01-01T09:11:50.489Z</time>
      </trkpt>
      <trkpt lat="54.411178" lon="18.483634">
        <ele>140.5</ele>
        <time>2026-01-01T09:11:52.223Z</time>
      </trkpt>
      <trkpt lat="54.411198" lon="18.483863">
        <ele>140.25</ele>
        <time>2026-01-01T09:11:54.454Z</time>
      </trkpt>
      <trkpt lat="54.411239" lon="18.484171">
        <ele>140.25</ele>
        <time>2026-01-01T09:11:57.459Z</time>
      </trkpt>
      <trkpt lat="54.411263" lon="18.484377">
        <ele>140.5</ele>
        <time>2026-01-01T09:11:59.457Z</time>
      </trkpt>
      <trkpt lat="54.411302" lon="18.484642">
        <ele>140.5</ele>
        <time>2026-01-01T09:12:02.093Z</time>
      </trkpt>
      <trkpt lat="54.411347" lon="18.484964">
        <ele>140.75</ele>
        <time>2026-01-01T09:12:05.359Z</time>
      </trkpt>
      <trkpt lat="54.411369" lon="18.485188">
        <ele>140.75</ele>
        <time>2026-01-01T09:12:07.519Z</time>
      </trkpt>
      <trkpt lat="54.411377" lon="18.485419">
        <ele>140.75</ele>
        <time>2026-01-01T09:12:09.687Z</time>
      </trkpt>
      <trkpt lat="54.411361" lon="18.485532">
        <ele>140.75</ele>
        <time>2026-01-01T09:12:10.720Z</time>
      </trkpt>
      <trkpt lat="54.411347" lon="18.485584">
        <ele>140.75</ele>
        <time>2026-01-01T09:12:11.229Z</time>
      </trkpt>
      <trkpt lat="54.411305" lon="18.485685">
        <ele>140.5</ele>
        <time>2026-01-01T09:12:12.332Z</time>
      </trkpt>
      <trkpt lat="54.411284" lon="18.485722">
        <ele>140.5</ele>
        <time>2026-01-01T09:12:12.791Z</time>
      </trkpt>
      <trkpt lat="54.411235" lon="18.485781">
        <ele>140.25</ele>
        <time>2026-01-01T09:12:13.689Z</time>
      </trkpt>
      <trkpt lat="54.411197" lon="18.48581">
        <ele>140.25</ele>
        <time>2026-01-01T09:12:14.313Z</time>
      </trkpt>
      <trkpt lat="54.411154" lon="18.485831">
        <ele>140</ele>
        <time>2026-01-01T09:12:14.984Z</time>
      </trkpt>
      <trkpt lat="54.41109" lon="18.485839">
        <ele>139.75</ele>
        <time>2026-01-01T09:12:15.920Z</time>
      </trkpt>
      <trkpt lat="54.410262" lon="18.485761">
        <ele>137.5</ele>
        <time>2026-01-01T09:12:27.909Z</time>
      </trkpt>
      <trkpt lat="54.410178" lon="18.485753">
        <ele>137.5</ele>
        <time>2026-01-01T09:12:29.134Z</time>
      </trkpt>
      <trkpt lat="54.408833" lon="18.485625">
        <ele>140.75</ele>
        <time>2026-01-01T09:12:53.369Z</time>
      </trkpt>
      <trkpt lat="54.407999" lon="18.485541">
        <ele>141.25</ele>
        <time>2026-01-01T09:13:08.070Z</time>
      </trkpt>
      <trkpt lat="54.406284" lon="18.48535">
        <ele>142.5</ele>
        <time>2026-01-01T09:13:37.024Z</time>
      </trkpt>
      <trkpt lat="54.404491" lon="18.485176">
        <ele>143.75</ele>
        <time>2026-01-01T09:14:07.314Z</time>
      </trkpt>
      <trkpt lat="54.402822" lon="18.484992">
        <ele>145</ele>
        <time>2026-01-01T09:14:35.534Z</time>
      </trkpt>
      <trkpt lat="54.401161" lon="18.484832">
        <ele>145.75</ele>
        <time>2026-01-01T09:15:03.458Z</time>
      </trkpt>
      <trkpt lat="54.400886" lon="18.484815">
        <ele>145.75</ele>
        <time>2026-01-01T09:15:08.033Z</time>
      </trkpt>
      <trkpt lat="54.400308" lon="18.484808">
        <ele>147.5</ele>
        <time>2026-01-01T09:15:18.342Z</time>
      </trkpt>
      <trkpt lat="54.399798" lon="18.484832">
        <ele>148.5</ele>
        <time>2026-01-01T09:15:27.612Z</time>
      </trkpt>
      <trkpt lat="54.399085" lon="18.484959">
        <ele>148.75</ele>
        <time>2026-01-01T09:15:39.863Z</time>
      </trkpt>
      <trkpt lat="54.398706" lon="18.485076">
        <ele>149</ele>
        <time>2026-01-01T09:15:46.285Z</time>
      </trkpt>
      <trkpt lat="54.398348" lon="18.48521">
        <ele>149.25</ele>
        <time>2026-01-01T09:15:52.359Z</time>
      </trkpt>
      <trkpt lat="54.398316" lon="18.485222">
        <ele>149</ele>
        <time>2026-01-01T09:15:52.894Z</time>
      </trkpt>
      <trkpt lat="54.398242" lon="18.48525">
        <ele>149</ele>
        <time>2026-01-01T09:15:54.132Z</time>
      </trkpt>
      <trkpt lat="54.397605" lon="18.485557">
        <ele>148.75</ele>
        <time>2026-01-01T09:16:04.630Z</time>
      </trkpt>
      <trkpt lat="54.396744" lon="18.486039">
        <ele>149.25</ele>
        <time>2026-01-01T09:16:19.537Z</time>
      </trkpt>
      <trkpt lat="54.395883" lon="18.486559">
        <ele>148</ele>
        <time>2026-01-01T09:16:34.178Z</time>
      </trkpt>
      <trkpt lat="54.395774" lon="18.486621">
        <ele>147.75</ele>
        <time>2026-01-01T09:16:35.950Z</time>
      </trkpt>
      <trkpt lat="54.395684" lon="18.486659">
        <ele>147.75</ele>
        <time>2026-01-01T09:16:37.393Z</time>
      </trkpt>
      <trkpt lat="54.395594" lon="18.48669">
        <ele>147.75</ele>
        <time>2026-01-01T09:16:38.810Z</time>
      </trkpt>
      <trkpt lat="54.395421" lon="18.486729">
        <ele>147.5</ele>
        <time>2026-01-01T09:16:41.504Z</time>
      </trkpt>
      <trkpt lat="54.395286" lon="18.486738">
        <ele>147.25</ele>
        <time>2026-01-01T09:16:43.604Z</time>
      </trkpt>
      <trkpt lat="54.395089" lon="18.486732">
        <ele>147</ele>
        <time>2026-01-01T09:16:46.643Z</time>
      </trkpt>
      <trkpt lat="54.394825" lon="18.486702">
        <ele>146.75</ele>
        <time>2026-01-01T09:16:50.724Z</time>
      </trkpt>
      <trkpt lat="54.394537" lon="18.486615">
        <ele>146.25</ele>
        <time>2026-01-01T09:16:55.260Z</time>
      </trkpt>
      <trkpt lat="54.394439" lon="18.486564">
        <ele>146.25</ele>
        <time>2026-01-01T09:16:56.838Z</time>
      </trkpt>
      <trkpt lat="54.39426" lon="18.486424">
        <ele>146</ele>
        <time>2026-01-01T09:16:59.870Z</time>
      </trkpt>
      <trkpt lat="54.394018" lon="18.486188">
        <ele>146</ele>
        <time>2026-01-01T09:17:04.330Z</time>
      </trkpt>
      <trkpt lat="54.393349" lon="18.485477">
        <ele>146</ele>
        <time>2026-01-01T09:17:17.188Z</time>
      </trkpt>
      <trkpt lat="54.392993" lon="18.485142">
        <ele>145</ele>
        <time>2026-01-01T09:17:23.573Z</time>
      </trkpt>
      <trkpt lat="54.392799" lon="18.484964">
        <ele>144.5</ele>
        <time>2026-01-01T09:17:26.754Z</time>
      </trkpt>
      <trkpt lat="54.39267" lon="18.48486">
        <ele>144</ele>
        <time>2026-01-01T09:17:28.846Z</time>
      </trkpt>
      <trkpt lat="54.392394" lon="18.484694">
        <ele>143.5</ele>
        <time>2026-01-01T09:17:33.215Z</time>
      </trkpt>
      <trkpt lat="54.392277" lon="18.484629">
        <ele>143.5</ele>
        <time>2026-01-01T09:17:35.082Z</time>
      </trkpt>
      <trkpt lat="54.392206" lon="18.484593">
        <ele>143.5</ele>
        <time>2026-01-01T09:17:36.239Z</time>
      </trkpt>
      <trkpt lat="54.391926" lon="18.484454">
        <ele>143.25</ele>
        <time>2026-01-01T09:17:40.893Z</time>
      </trkpt>
      <trkpt lat="54.391535" lon="18.484256">
        <ele>143</ele>
        <time>2026-01-01T09:17:47.362Z</time>
      </trkpt>
      <trkpt lat="54.391291" lon="18.484133">
        <ele>143</ele>
        <time>2026-01-01T09:17:51.447Z</time>
      </trkpt>
      <trkpt lat="54.391102" lon="18.48404">
        <ele>143</ele>
        <time>2026-01-01T09:17:54.660Z</time>
      </trkpt>
      <trkpt lat="54.39079" lon="18.483881">
        <ele>142.75</ele>
        <time>2026-01-01T09:17:59.864Z</time>
      </trkpt>
      <trkpt lat="54.39034" lon="18.483651">
        <ele>142.25</ele>
        <time>2026-01-01T09:18:07.213Z</time>
      </trkpt>
      <trkpt lat="54.389999" lon="18.483479">
        <ele>141.75</ele>
        <time>2026-01-01T09:18:12.706Z</time>
      </trkpt>
      <trkpt lat="54.389762" lon="18.483349">
        <ele>141.5</ele>
        <time>2026-01-01T09:18:16.586Z</time>
      </trkpt>
      <trkpt lat="54.389649" lon="18.483235">
        <ele>141.5</ele>
        <time>2026-01-01T09:18:18.639Z</time>
      </trkpt>
      <trkpt lat="54.389562" lon="18.483115">
        <ele>141.25</ele>
        <time>2026-01-01T09:18:20.387Z</time>
      </trkpt>
      <trkpt lat="54.389528" lon="18.483046">
        <ele>141.25</ele>
        <time>2026-01-01T09:18:21.214Z</time>
      </trkpt>
      <trkpt lat="54.389127" lon="18.482111">
        <ele>141</ele>
        <time>2026-01-01T09:18:32.010Z</time>
      </trkpt>
      <trkpt lat="54.389065" lon="18.481945">
        <ele>141</ele>
        <time>2026-01-01T09:18:33.867Z</time>
      </trkpt>
      <trkpt lat="54.389007" lon="18.481792">
        <ele>141</ele>
        <time>2026-01-01T09:18:35.604Z</time>
      </trkpt>
      <trkpt lat="54.388929" lon="18.481853">
        <ele>141</ele>
        <time>2026-01-01T09:18:37.031Z</time>
      </trkpt>
      <trkpt lat="54.388865" lon="18.481926">
        <ele>141</ele>
        <time>2026-01-01T09:18:38.306Z</time>
      </trkpt>
      <trkpt lat="54.388713" lon="18.482153">
        <ele>141.25</ele>
        <time>2026-01-01T09:18:41.650Z</time>
      </trkpt>
      <trkpt lat="54.388609" lon="18.482279">
        <ele>141.25</ele>
        <time>2026-01-01T09:18:43.777Z</time>
      </trkpt>
      <trkpt lat="54.38815" lon="18.482868">
        <ele>143</ele>
        <time>2026-01-01T09:18:53.993Z</time>
      </trkpt>
      <trkpt lat="54.387958" lon="18.483109">
        <ele>143.5</ele>
        <time>2026-01-01T09:18:58.328Z</time>
      </trkpt>
      <trkpt lat="54.387919" lon="18.483163">
        <ele>143.5</ele>
        <time>2026-01-01T09:18:59.207Z</time>
      </trkpt>
      <trkpt lat="54.387677" lon="18.483495">
        <ele>144</ele>
        <time>2026-01-01T09:19:04.647Z</time>
      </trkpt>
      <trkpt lat="54.387475" lon="18.483753">
        <ele>144</ele>
        <time>2026-01-01T09:19:08.912Z</time>
      </trkpt>
      <trkpt lat="54.387058" lon="18.484261">
        <ele>144.5</ele>
        <time>2026-01-01T09:19:17.514Z</time>
      </trkpt>
      <trkpt lat="54.386787" lon="18.484564">
        <ele>145.25</ele>
        <time>2026-01-01T09:19:23.153Z</time>
      </trkpt>
      <trkpt lat="54.386155" lon="18.485179">
        <ele>146</ele>
        <time>2026-01-01T09:19:35.784Z</time>
      </trkpt>
      <trkpt lat="54.385635" lon="18.485664">
        <ele>146</ele>
        <time>2026-01-01T09:19:45.703Z</time>
      </trkpt>
      <trkpt lat="54.385548" lon="18.485734">
        <ele>146</ele>
        <time>2026-01-01T09:19:47.273Z</time>
      </trkpt>
      <trkpt lat="54.385471" lon="18.485769">
        <ele>146</ele>
        <time>2026-01-01T09:19:48.574Z</time>
      </trkpt>
      <trkpt lat="54.384926" lon="18.485933">
        <ele>146</ele>
        <time>2026-01-01T09:19:57.617Z</time>
      </trkpt>
      <trkpt lat="54.384814" lon="18.485967">
        <ele>146</ele>
        <time>2026-01-01T09:19:59.476Z</time>
      </trkpt>
      <trkpt lat="54.384348" lon="18.486089">
        <ele>146.75</ele>
        <time>2026-01-01T09:20:07.622Z</time>
      </trkpt>
      <trkpt lat="54.383963" lon="18.486195">
        <ele>146.75</ele>
        <time>2026-01-01T09:20:14.244Z</time>
      </trkpt>
      <trkpt lat="54.383546" lon="18.486303">
        <ele>146.25</ele>
        <time>2026-01-01T09:20:20.946Z</time>
      </trkpt>
      <trkpt lat="54.383228" lon="18.486384">
        <ele>146</ele>
        <time>2026-01-01T09:20:25.962Z</time>
      </trkpt>
      <trkpt lat="54.383065" lon="18.486421">
        <ele>146</ele>
        <time>2026-01-01T09:20:28.609Z</time>
      </trkpt>
      <trkpt lat="54.382916" lon="18.486444">
        <ele>146</ele>
        <time>2026-01-01T09:20:31.054Z</time>
      </trkpt>
      <trkpt lat="54.382801" lon="18.486444">
        <ele>146</ele>
        <time>2026-01-01T09:20:32.933Z</time>
      </trkpt>
      <trkpt lat="54.382773" lon="18.486444">
        <ele>146</ele>
        <time>2026-01-01T09:20:33.390Z</time>
      </trkpt>
      <trkpt lat="54.382668" lon="18.486443">
        <ele>146</ele>
        <time>2026-01-01T09:20:35.106Z</time>
      </trkpt>
      <trkpt lat="54.382544" lon="18.486436">
        <ele>146</ele>
        <time>2026-01-01T09:20:37.133Z</time>
      </trkpt>
      <trkpt lat="54.382542" lon="18.486436">
        <ele>146</ele>
        <time>2026-01-01T09:20:37.165Z</time>
      </trkpt>
      <trkpt lat="54.380844" lon="18.486349">
        <ele>149</ele>
        <time>2026-01-01T09:21:06.728Z</time>
      </trkpt>
      <trkpt lat="54.380748" lon="18.486342">
        <ele>149.25</ele>
        <time>2026-01-01T09:21:08.417Z</time>
      </trkpt>
      <trkpt lat="54.380553" lon="18.486335">
        <ele>149.5</ele>
        <time>2026-01-01T09:21:11.840Z</time>
      </trkpt>
      <trkpt lat="54.380476" lon="18.486359">
        <ele>149.5</ele>
        <time>2026-01-01T09:21:13.236Z</time>
      </trkpt>
      <trkpt lat="54.380398" lon="18.486413">
        <ele>149.75</ele>
        <time>2026-01-01T09:21:14.737Z</time>
      </trkpt>
      <trkpt lat="54.380253" lon="18.486513">
        <ele>150.25</ele>
        <time>2026-01-01T09:21:17.553Z</time>
      </trkpt>
      <trkpt lat="54.380156" lon="18.486616">
        <ele>150.5</ele>
        <time>2026-01-01T09:21:19.637Z</time>
      </trkpt>
      <trkpt lat="54.380067" lon="18.486769">
        <ele>151</ele>
        <time>2026-01-01T09:21:21.940Z</time>
      </trkpt>
      <trkpt lat="54.379891" lon="18.487135">
        <ele>151.75</ele>
        <time>2026-01-01T09:21:26.958Z</time>
      </trkpt>
      <trkpt lat="54.379805" lon="18.487292">
        <ele>151.75</ele>
        <time>2026-01-01T09:21:29.185Z</time>
      </trkpt>
      <trkpt lat="54.37975" lon="18.487372">
        <ele>152</ele>
        <time>2026-01-01T09:21:30.417Z</time>
      </trkpt>
      <trkpt lat="54.379701" lon="18.487427">
        <ele>152</ele>
        <time>2026-01-01T09:21:31.340Z</time>
      </trkpt>
      <trkpt lat="54.37966" lon="18.487462">
        <ele>152</ele>
        <time>2026-01-01T09:21:32.063Z</time>
      </trkpt>
      <trkpt lat="54.37959" lon="18.487499">
        <ele>152</ele>
        <time>2026-01-01T09:21:33.220Z</time>
      </trkpt>
      <trkpt lat="54.379508" lon="18.487513">
        <ele>151.75</ele>
        <time>2026-01-01T09:21:34.522Z</time>
      </trkpt>
      <trkpt lat="54.379352" lon="18.487526">
        <ele>151.5</ele>
        <time>2026-01-01T09:21:36.955Z</time>
      </trkpt>
      <trkpt lat="54.379321" lon="18.487528">
        <ele>151.25</ele>
        <time>2026-01-01T09:21:37.432Z</time>
      </trkpt>
      <trkpt lat="54.379287" lon="18.487531">
        <ele>151.25</ele>
        <time>2026-01-01T09:21:37.956Z</time>
      </trkpt>
      <trkpt lat="54.379123" lon="18.487492">
        <ele>151</ele>
        <time>2026-01-01T09:21:40.492Z</time>
      </trkpt>
      <trkpt lat="54.379" lon="18.487449">
        <ele>151</ele>
        <time>2026-01-01T09:21:42.609Z</time>
      </trkpt>
      <trkpt lat="54.378966" lon="18.487768">
        <ele>152.25</ele>
        <time>2026-01-01T09:21:45.886Z</time>
      </trkpt>
      <trkpt lat="54.378908" lon="18.488385">
        <ele>154</ele>
        <time>2026-01-01T09:21:52.960Z</time>
      </trkpt>
      <trkpt lat="54.378491" lon="18.492176">
        <ele>159.75</ele>
        <time>2026-01-01T09:22:34.328Z</time>
      </trkpt>
      <trkpt lat="54.377745" lon="18.498423">
        <ele>158.5</ele>
        <time>2026-01-01T09:23:37.093Z</time>
      </trkpt>
      <trkpt lat="54.3776" lon="18.499434">
        <ele>158.5</ele>
        <time>2026-01-01T09:23:46.876Z</time>
      </trkpt>
      <trkpt lat="54.377441" lon="18.500621">
        <ele>158.25</ele>
        <time>2026-01-01T09:23:58.372Z</time>
      </trkpt>
      <trkpt lat="54.377287" lon="18.501908">
        <ele>156.75</ele>
        <time>2026-01-01T09:24:10.215Z</time>
      </trkpt>
      <trkpt lat="54.377263" lon="18.502116">
        <ele>156.25</ele>
        <time>2026-01-01T09:24:12.008Z</time>
      </trkpt>
      <trkpt lat="54.37723" lon="18.502406">
        <ele>155.5</ele>
        <time>2026-01-01T09:24:14.385Z</time>
      </trkpt>
      <trkpt lat="54.377204" lon="18.502617">
        <ele>152</ele>
        <time>2026-01-01T09:24:16.120Z</time>
      </trkpt>
      <trkpt lat="54.377204" lon="18.502617">
        <ele>155.25</ele>
        <time>2026-01-01T09:24:16.120Z</time>
      </trkpt>
      <trkpt lat="54.376718" lon="18.50663">
        <ele>152</ele>
        <time>2026-01-01T09:24:52.196Z</time>
      </trkpt>
      <trkpt lat="54.37656" lon="18.508025">
        <ele>150.25</ele>
        <time>2026-01-01T09:25:04.785Z</time>
      </trkpt>
      <trkpt lat="54.37655" lon="18.508105">
        <ele>150.25</ele>
        <time>2026-01-01T09:25:05.515Z</time>
      </trkpt>
      <trkpt lat="54.376539" lon="18.508201">
        <ele>150.25</ele>
        <time>2026-01-01T09:25:06.446Z</time>
      </trkpt>
      <trkpt lat="54.376509" lon="18.508468">
        <ele>149.75</ele>
        <time>2026-01-01T09:25:09.034Z</time>
      </trkpt>
      <trkpt lat="54.376418" lon="18.508351">
        <ele>150.25</ele>
        <time>2026-01-01T09:25:10.892Z</time>
      </trkpt>
      <trkpt lat="54.376378" lon="18.508321">
        <ele>150.25</ele>
        <time>2026-01-01T09:25:11.634Z</time>
      </trkpt>
      <trkpt lat="54.376004" lon="18.508101">
        <ele>151</ele>
        <time>2026-01-01T09:25:18.362Z</time>
      </trkpt>
      <trkpt lat="54.375688" lon="18.507876">
        <ele>151.5</ele>
        <time>2026-01-01T09:25:24.353Z</time>
      </trkpt>
      <trkpt lat="54.37507" lon="18.507401">
        <ele>152</ele>
        <time>2026-01-01T09:25:35.907Z</time>
      </trkpt>
      <trkpt lat="54.374213" lon="18.506751">
        <ele>152.75</ele>
        <time>2026-01-01T09:25:51.753Z</time>
      </trkpt>
      <trkpt lat="54.37416" lon="18.506713">
        <ele>152.75</ele>
        <time>2026-01-01T09:25:52.661Z</time>
      </trkpt>
      <trkpt lat="54.374111" lon="18.506899">
        <ele>152.25</ele>
        <time>2026-01-01T09:25:54.257Z</time>
      </trkpt>
      <trkpt lat="54.374087" lon="18.506991">
        <ele>152</ele>
        <time>2026-01-01T09:25:55.045Z</time>
      </trkpt>
      <trkpt lat="54.373973" lon="18.50705">
        <ele>151.25</ele>
        <time>2026-01-01T09:25:56.624Z</time>
      </trkpt>
      <trkpt lat="54.373898" lon="18.506994">
        <ele>151</ele>
        <time>2026-01-01T09:25:57.708Z</time>
      </trkpt>
      <trkpt lat="54.373857" lon="18.506962">
        <ele>150.75</ele>
        <time>2026-01-01T09:25:58.301Z</time>
      </trkpt>
      <trkpt lat="54.373743" lon="18.506898">
        <ele>150.25</ele>
        <time>2026-01-01T09:25:59.857Z</time>
      </trkpt>
      <trkpt lat="54.373667" lon="18.506858">
        <ele>149.75</ele>
        <time>2026-01-01T09:26:00.891Z</time>
      </trkpt>
      <trkpt lat="54.373514" lon="18.506748">
        <ele>149</ele>
        <time>2026-01-01T09:26:03.041Z</time>
      </trkpt>
      <trkpt lat="54.373484" lon="18.506725">
        <ele>148.75</ele>
        <time>2026-01-01T09:26:03.466Z</time>
      </trkpt>
      <trkpt lat="54.373483" lon="18.506724">
        <ele>148.75</ele>
        <time>2026-01-01T09:26:03.480Z</time>
      </trkpt>
      <trkpt lat="54.373437" lon="18.506689">
        <ele>148.5</ele>
        <time>2026-01-01T09:26:04.131Z</time>
      </trkpt>
      <trkpt lat="54.3734" lon="18.506657">
        <ele>148.25</ele>
        <time>2026-01-01T09:26:04.668Z</time>
      </trkpt>
      <trkpt lat="54.373366" lon="18.506631">
        <ele>148.25</ele>
        <time>2026-01-01T09:26:05.147Z</time>
      </trkpt>
      <trkpt lat="54.37328" lon="18.506566">
        <ele>147.75</ele>
        <time>2026-01-01T09:26:06.358Z</time>
      </trkpt>
      <trkpt lat="54.373224" lon="18.506527">
        <ele>147.25</ele>
        <time>2026-01-01T09:26:07.143Z</time>
      </trkpt>
      <trkpt lat="54.373194" lon="18.506495">
        <ele>147</ele>
        <time>2026-01-01T09:26:07.599Z</time>
      </trkpt>
      <trkpt lat="54.373155" lon="18.506441">
        <ele>147</ele>
        <time>2026-01-01T09:26:08.261Z</time>
      </trkpt>
      <trkpt lat="54.372862" lon="18.506025">
        <ele>145.5</ele>
        <time>2026-01-01T09:26:13.261Z</time>
      </trkpt>
      <trkpt lat="54.372836" lon="18.505987">
        <ele>145.25</ele>
        <time>2026-01-01T09:26:13.710Z</time>
      </trkpt>
      <trkpt lat="54.372518" lon="18.505723">
        <ele>143.25</ele>
        <time>2026-01-01T09:26:18.300Z</time>
      </trkpt>
      <trkpt lat="54.372466" lon="18.505678">
        <ele>143</ele>
        <time>2026-01-01T09:26:18.999Z</time>
      </trkpt>
      <trkpt lat="54.372374" lon="18.505656">
        <ele>142.25</ele>
        <time>2026-01-01T09:26:20.144Z</time>
      </trkpt>
      <trkpt lat="54.372296" lon="18.505636">
        <ele>141.5</ele>
        <time>2026-01-01T09:26:21.111Z</time>
      </trkpt>
      <trkpt lat="54.372218" lon="18.505593">
        <ele>141</ele>
        <time>2026-01-01T09:26:22.123Z</time>
      </trkpt>
      <trkpt lat="54.372161" lon="18.505545">
        <ele>140.5</ele>
        <time>2026-01-01T09:26:22.885Z</time>
      </trkpt>
      <trkpt lat="54.372091" lon="18.505384">
        <ele>140.25</ele>
        <time>2026-01-01T09:26:24.314Z</time>
      </trkpt>
      <trkpt lat="54.371946" lon="18.505194">
        <ele>139.25</ele>
        <time>2026-01-01T09:26:26.508Z</time>
      </trkpt>
      <trkpt lat="54.371902" lon="18.505161">
        <ele>138.5</ele>
        <time>2026-01-01T09:26:27.099Z</time>
      </trkpt>
      <trkpt lat="54.371861" lon="18.505131">
        <ele>138.5</ele>
        <time>2026-01-01T09:26:27.648Z</time>
      </trkpt>
      <trkpt lat="54.371795" lon="18.505081">
        <ele>138</ele>
        <time>2026-01-01T09:26:28.568Z</time>
      </trkpt>
      <trkpt lat="54.371711" lon="18.504992">
        <ele>137.25</ele>
        <time>2026-01-01T09:26:29.798Z</time>
      </trkpt>
      <trkpt lat="54.371482" lon="18.504816">
        <ele>136.25</ele>
        <time>2026-01-01T09:26:32.925Z</time>
      </trkpt>
      <trkpt lat="54.371061" lon="18.504552">
        <ele>134.25</ele>
        <time>2026-01-01T09:26:38.737Z</time>
      </trkpt>
      <trkpt lat="54.371011" lon="18.504517">
        <ele>134</ele>
        <time>2026-01-01T09:26:39.447Z</time>
      </trkpt>
      <trkpt lat="54.370915" lon="18.504485">
        <ele>133.5</ele>
        <time>2026-01-01T09:26:40.711Z</time>
      </trkpt>
      <trkpt lat="54.370551" lon="18.504226">
        <ele>132.5</ele>
        <time>2026-01-01T09:26:46.247Z</time>
      </trkpt>
      <trkpt lat="54.370478" lon="18.504169">
        <ele>132.5</ele>
        <time>2026-01-01T09:26:47.446Z</time>
      </trkpt>
      <trkpt lat="54.370478" lon="18.504169">
        <ele>132.5</ele>
        <time>2026-01-01T09:26:47.446Z</time>
      </trkpt>
      <trkpt lat="54.370478" lon="18.504169">
        <ele>132.5</ele>
        <time>2026-01-01T09:26:47.446Z</time>
      </trkpt>
      <trkpt lat="54.370411" lon="18.504111">
        <ele>132.25</ele>
        <time>2026-01-01T09:26:48.619Z</time>
      </trkpt>
      <trkpt lat="54.370331" lon="18.503993">
        <ele>132.25</ele>
        <time>2026-01-01T09:26:50.268Z</time>
      </trkpt>
      <trkpt lat="54.370331" lon="18.503993">
        <ele>132.25</ele>
        <time>2026-01-01T09:26:50.268Z</time>
      </trkpt>
      <trkpt lat="54.369994" lon="18.503728">
        <ele>132</ele>
        <time>2026-01-01T09:26:56.111Z</time>
      </trkpt>
      <trkpt lat="54.369806" lon="18.503622">
        <ele>132</ele>
        <time>2026-01-01T09:26:59.296Z</time>
      </trkpt>
      <trkpt lat="54.369724" lon="18.503552">
        <ele>132</ele>
        <time>2026-01-01T09:27:00.792Z</time>
      </trkpt>
      <trkpt lat="54.369647" lon="18.503501">
        <ele>132</ele>
        <time>2026-01-01T09:27:02.141Z</time>
      </trkpt>
      <trkpt lat="54.369578" lon="18.503404">
        <ele>132</ele>
        <time>2026-01-01T09:27:03.598Z</time>
      </trkpt>
      <trkpt lat="54.369256" lon="18.50311">
        <ele>131.75</ele>
        <time>2026-01-01T09:27:09.452Z</time>
      </trkpt>
      <trkpt lat="54.36903" lon="18.502916">
        <ele>131.75</ele>
        <time>2026-01-01T09:27:13.520Z</time>
      </trkpt>
      <trkpt lat="54.368901" lon="18.50286">
        <ele>131.75</ele>
        <time>2026-01-01T09:27:15.694Z</time>
      </trkpt>
      <trkpt lat="54.368245" lon="18.502391">
        <ele>131.75</ele>
        <time>2026-01-01T09:27:27.309Z</time>
      </trkpt>
      <trkpt lat="54.368087" lon="18.50239">
        <ele>131</ele>
        <time>2026-01-01T09:27:29.783Z</time>
      </trkpt>
      <trkpt lat="54.368033" lon="18.502354">
        <ele>131</ele>
        <time>2026-01-01T09:27:30.615Z</time>
      </trkpt>
      <trkpt lat="54.367959" lon="18.502306">
        <ele>130.75</ele>
        <time>2026-01-01T09:27:31.752Z</time>
      </trkpt>
      <trkpt lat="54.367912" lon="18.502214">
        <ele>130.75</ele>
        <time>2026-01-01T09:27:32.783Z</time>
      </trkpt>
      <trkpt lat="54.36764" lon="18.501975">
        <ele>130</ele>
        <time>2026-01-01T09:27:37.203Z</time>
      </trkpt>
      <trkpt lat="54.367479" lon="18.501793">
        <ele>129.75</ele>
        <time>2026-01-01T09:27:40.107Z</time>
      </trkpt>
      <trkpt lat="54.367248" lon="18.501505">
        <ele>129.5</ele>
        <time>2026-01-01T09:27:44.554Z</time>
      </trkpt>
      <trkpt lat="54.367111" lon="18.501302">
        <ele>129.5</ele>
        <time>2026-01-01T09:27:47.419Z</time>
      </trkpt>
      <trkpt lat="54.366949" lon="18.501031">
        <ele>129.25</ele>
        <time>2026-01-01T09:27:51.019Z</time>
      </trkpt>
      <trkpt lat="54.366949" lon="18.501029">
        <ele>129.25</ele>
        <time>2026-01-01T09:27:51.037Z</time>
      </trkpt>
      <trkpt lat="54.366935" lon="18.501006">
        <ele>129.25</ele>
        <time>2026-01-01T09:27:51.349Z</time>
      </trkpt>
      <trkpt lat="54.366727" lon="18.500548">
        <ele>129.25</ele>
        <time>2026-01-01T09:27:56.797Z</time>
      </trkpt>
      <trkpt lat="54.366606" lon="18.500243">
        <ele>129.5</ele>
        <time>2026-01-01T09:28:00.379Z</time>
      </trkpt>
      <trkpt lat="54.366461" lon="18.499771">
        <ele>130.25</ele>
        <time>2026-01-01T09:28:05.950Z</time>
      </trkpt>
      <trkpt lat="54.366443" lon="18.499693">
        <ele>130.5</ele>
        <time>2026-01-01T09:28:06.829Z</time>
      </trkpt>
      <trkpt lat="54.366333" lon="18.499222">
        <ele>131</ele>
        <time>2026-01-01T09:28:12.151Z</time>
      </trkpt>
      <trkpt lat="54.366163" lon="18.49836">
        <ele>131</ele>
        <time>2026-01-01T09:28:21.150Z</time>
      </trkpt>
      <trkpt lat="54.366045" lon="18.498004">
        <ele>131.5</ele>
        <time>2026-01-01T09:28:25.192Z</time>
      </trkpt>
      <trkpt lat="54.365998" lon="18.497754">
        <ele>131.75</ele>
        <time>2026-01-01T09:28:27.966Z</time>
      </trkpt>
      <trkpt lat="54.36599" lon="18.497558">
        <ele>132.25</ele>
        <time>2026-01-01T09:28:30.041Z</time>
      </trkpt>
      <trkpt lat="54.36577" lon="18.496354">
        <ele>134.75</ele>
        <time>2026-01-01T09:28:43.760Z</time>
      </trkpt>
      <trkpt lat="54.365758" lon="18.496283">
        <ele>135</ele>
        <time>2026-01-01T09:28:44.578Z</time>
      </trkpt>
      <trkpt lat="54.36575" lon="18.496132">
        <ele>135.5</ele>
        <time>2026-01-01T09:28:46.362Z</time>
      </trkpt>
      <trkpt lat="54.365576" lon="18.495215">
        <ele>136.75</ele>
        <time>2026-01-01T09:28:56.711Z</time>
      </trkpt>
      <trkpt lat="54.365522" lon="18.494931">
        <ele>136.75</ele>
        <time>2026-01-01T09:28:59.771Z</time>
      </trkpt>
      <trkpt lat="54.36538" lon="18.494053">
        <ele>138</ele>
        <time>2026-01-01T09:29:09.134Z</time>
      </trkpt>
      <trkpt lat="54.365357" lon="18.493976">
        <ele>138</ele>
        <time>2026-01-01T09:29:10.033Z</time>
      </trkpt>
      <trkpt lat="54.365319" lon="18.493768">
        <ele>138.25</ele>
        <time>2026-01-01T09:29:12.257Z</time>
      </trkpt>
      <trkpt lat="54.36529" lon="18.493541">
        <ele>138.5</ele>
        <time>2026-01-01T09:29:14.628Z</time>
      </trkpt>
      <trkpt lat="54.365182" lon="18.492671">
        <ele>138.5</ele>
        <time>2026-01-01T09:29:23.327Z</time>
      </trkpt>
      <trkpt lat="54.365142" lon="18.492338">
        <ele>138.25</ele>
        <time>2026-01-01T09:29:26.487Z</time>
      </trkpt>
      <trkpt lat="54.365062" lon="18.49198">
        <ele>138</ele>
        <time>2026-01-01T09:29:30.064Z</time>
      </trkpt>
      <trkpt lat="54.365127" lon="18.491951">
        <ele>138.25</ele>
        <time>2026-01-01T09:29:31.146Z</time>
      </trkpt>
      <trkpt lat="54.365191" lon="18.491922">
        <ele>138.25</ele>
        <time>2026-01-01T09:29:32.211Z</time>
      </trkpt>
      <trkpt lat="54.365196" lon="18.491679">
        <ele>138</ele>
        <time>2026-01-01T09:29:34.493Z</time>
      </trkpt>
      <trkpt lat="54.365228" lon="18.491587">
        <ele>138.25</ele>
        <time>2026-01-01T09:29:35.513Z</time>
      </trkpt>
      <trkpt lat="54.365238" lon="18.49148">
        <ele>138.25</ele>
        <time>2026-01-01T09:29:36.544Z</time>
      </trkpt>
      <trkpt lat="54.365223" lon="18.491375">
        <ele>138.25</ele>
        <time>2026-01-01T09:29:37.573Z</time>
      </trkpt>
      <trkpt lat="54.365196" lon="18.491308">
        <ele>138</ele>
        <time>2026-01-01T09:29:38.336Z</time>
      </trkpt>
      <trkpt lat="54.36516" lon="18.491256">
        <ele>138</ele>
        <time>2026-01-01T09:29:39.095Z</time>
      </trkpt>
      <trkpt lat="54.3651" lon="18.491219">
        <ele>138</ele>
        <time>2026-01-01T09:29:40.122Z</time>
      </trkpt>
      <trkpt lat="54.365063" lon="18.491001">
        <ele>138</ele>
        <time>2026-01-01T09:29:42.284Z</time>
      </trkpt>
      <trkpt lat="54.365012" lon="18.490693">
        <ele>138</ele>
        <time>2026-01-01T09:29:45.276Z</time>
      </trkpt>
      <trkpt lat="54.364924" lon="18.489882">
        <ele>137.75</ele>
        <time>2026-01-01T09:29:53.034Z</time>
      </trkpt>
      <trkpt lat="54.364783" lon="18.488707">
        <ele>133</ele>
        <time>2026-01-01T09:30:02.380Z</time>
      </trkpt>
      <trkpt lat="54.364784" lon="18.488708">
        <ele>135.75</ele>
        <time>2026-01-01T09:30:02.396Z</time>
      </trkpt>
      <trkpt lat="54.364575" lon="18.486953">
        <ele>133</ele>
        <time>2026-01-01T09:30:19.454Z</time>
      </trkpt>
      <trkpt lat="54.364088" lon="18.482875">
        <ele>131.5</ele>
        <time>2026-01-01T09:30:56.921Z</time>
      </trkpt>
      <trkpt lat="54.363989" lon="18.482059">
        <ele>132</ele>
        <time>2026-01-01T09:31:04.736Z</time>
      </trkpt>
      <trkpt lat="54.363973" lon="18.481872">
        <ele>132</ele>
        <time>2026-01-01T09:31:06.603Z</time>
      </trkpt>
      <trkpt lat="54.363901" lon="18.480516">
        <ele>133</ele>
        <time>2026-01-01T09:31:20.213Z</time>
      </trkpt>
      <trkpt lat="54.363895" lon="18.480349">
        <ele>133</ele>
        <time>2026-01-01T09:31:21.886Z</time>
      </trkpt>
      <trkpt lat="54.363851" lon="18.479329">
        <ele>133.5</ele>
        <time>2026-01-01T09:31:31.941Z</time>
      </trkpt>
      <trkpt lat="54.363736" lon="18.476935">
        <ele>131.5</ele>
        <time>2026-01-01T09:31:54.044Z</time>
      </trkpt>
      <trkpt lat="54.36372" lon="18.476612">
        <ele>131.25</ele>
        <time>2026-01-01T09:31:56.935Z</time>
      </trkpt>
      <trkpt lat="54.36363" lon="18.475009">
        <ele>131.25</ele>
        <time>2026-01-01T09:32:12.118Z</time>
      </trkpt>
      <trkpt lat="54.363627" lon="18.474916">
        <ele>131.25</ele>
        <time>2026-01-01T09:32:13.026Z</time>
      </trkpt>
      <trkpt lat="54.363585" lon="18.474277">
        <ele>132</ele>
        <time>2026-01-01T09:32:19.627Z</time>
      </trkpt>
      <trkpt lat="54.363583" lon="18.473983">
        <ele>132.25</ele>
        <time>2026-01-01T09:32:22.573Z</time>
      </trkpt>
      <trkpt lat="54.363591" lon="18.473778">
        <ele>132.25</ele>
        <time>2026-01-01T09:32:24.568Z</time>
      </trkpt>
      <trkpt lat="54.363608" lon="18.473545">
        <ele>132.25</ele>
        <time>2026-01-01T09:32:26.848Z</time>
      </trkpt>
      <trkpt lat="54.363657" lon="18.47333">
        <ele>132.25</ele>
        <time>2026-01-01T09:32:29.090Z</time>
      </trkpt>
      <trkpt lat="54.364405" lon="18.471775">
        <ele>132.25</ele>
        <time>2026-01-01T09:32:48.293Z</time>
      </trkpt>
      <trkpt lat="54.364485" lon="18.47161">
        <ele>132.25</ele>
        <time>2026-01-01T09:32:50.337Z</time>
      </trkpt>
      <trkpt lat="54.364561" lon="18.471453">
        <ele>132.25</ele>
        <time>2026-01-01T09:32:52.240Z</time>
      </trkpt>
      <trkpt lat="54.36475" lon="18.471064">
        <ele>132</ele>
        <time>2026-01-01T09:32:56.962Z</time>
      </trkpt>
      <trkpt lat="54.36519" lon="18.470197">
        <ele>132</ele>
        <time>2026-01-01T09:33:07.797Z</time>
      </trkpt>
      <trkpt lat="54.365318" lon="18.469929">
        <ele>132.25</ele>
        <time>2026-01-01T09:33:11.180Z</time>
      </trkpt>
      <trkpt lat="54.365326" lon="18.469911">
        <ele>132.5</ele>
        <time>2026-01-01T09:33:11.417Z</time>
      </trkpt>
      <trkpt lat="54.365859" lon="18.468841">
        <ele>132.75</ele>
        <time>2026-01-01T09:33:25.259Z</time>
      </trkpt>
      <trkpt lat="54.365938" lon="18.468687">
        <ele>132.75</ele>
        <time>2026-01-01T09:33:27.194Z</time>
      </trkpt>
      <trkpt lat="54.366099" lon="18.468368">
        <ele>132.25</ele>
        <time>2026-01-01T09:33:30.884Z</time>
      </trkpt>
      <trkpt lat="54.366161" lon="18.468244">
        <ele>132</ele>
        <time>2026-01-01T09:33:32.301Z</time>
      </trkpt>
      <trkpt lat="54.366215" lon="18.468134">
        <ele>131.75</ele>
        <time>2026-01-01T09:33:33.521Z</time>
      </trkpt>
      <trkpt lat="54.366269" lon="18.468029">
        <ele>131.5</ele>
        <time>2026-01-01T09:33:34.709Z</time>
      </trkpt>
      <trkpt lat="54.366637" lon="18.467308">
        <ele>130</ele>
        <time>2026-01-01T09:33:42.731Z</time>
      </trkpt>
      <trkpt lat="54.366877" lon="18.466838">
        <ele>129.25</ele>
        <time>2026-01-01T09:33:48.040Z</time>
      </trkpt>
      <trkpt lat="54.367277" lon="18.46607">
        <ele>127.75</ele>
        <time>2026-01-01T09:33:56.835Z</time>
      </trkpt>
      <trkpt lat="54.367403" lon="18.465819">
        <ele>127</ele>
        <time>2026-01-01T09:33:59.596Z</time>
      </trkpt>
      <trkpt lat="54.368161" lon="18.464336">
        <ele>126</ele>
        <time>2026-01-01T09:34:17.285Z</time>
      </trkpt>
      <trkpt lat="54.368841" lon="18.462942">
        <ele>125.25</ele>
        <time>2026-01-01T09:34:33.981Z</time>
      </trkpt>
      <trkpt lat="54.36904" lon="18.462547">
        <ele>125.75</ele>
        <time>2026-01-01T09:34:38.912Z</time>
      </trkpt>
      <trkpt lat="54.36929" lon="18.462045">
        <ele>125.5</ele>
        <time>2026-01-01T09:34:45.303Z</time>
      </trkpt>
      <trkpt lat="54.369185" lon="18.461895">
        <ele>125.75</ele>
        <time>2026-01-01T09:34:47.535Z</time>
      </trkpt>
      <trkpt lat="54.369134" lon="18.461819">
        <ele>125.75</ele>
        <time>2026-01-01T09:34:48.681Z</time>
      </trkpt>
      <trkpt lat="54.369056" lon="18.461762">
        <ele>125.75</ele>
        <time>2026-01-01T09:34:50.120Z</time>
      </trkpt>
      <trkpt lat="54.368583" lon="18.461507">
        <ele>125.25</ele>
        <time>2026-01-01T09:34:58.107Z</time>
      </trkpt>
      <trkpt lat="54.368214" lon="18.461294">
        <ele>125.25</ele>
        <time>2026-01-01T09:35:04.308Z</time>
      </trkpt>
      <trkpt lat="54.368135" lon="18.461248">
        <ele>125.25</ele>
        <time>2026-01-01T09:35:05.671Z</time>
      </trkpt>
      <trkpt lat="54.367275" lon="18.460759">
        <ele>125.5</ele>
        <time>2026-01-01T09:35:20.647Z</time>
      </trkpt>
      <trkpt lat="54.366785" lon="18.460481">
        <ele>127</ele>
        <time>2026-01-01T09:35:29.547Z</time>
      </trkpt>
      <trkpt lat="54.366221" lon="18.460162">
        <ele>128</ele>
        <time>2026-01-01T09:35:40.223Z</time>
      </trkpt>
      <trkpt lat="54.366163" lon="18.460129">
        <ele>128.25</ele>
        <time>2026-01-01T09:35:41.309Z</time>
      </trkpt>
      <trkpt lat="54.36582" lon="18.459935">
        <ele>129</ele>
        <time>2026-01-01T09:35:47.831Z</time>
      </trkpt>
      <trkpt lat="54.364641" lon="18.459275">
        <ele>134</ele>
        <time>2026-01-01T09:36:11.279Z</time>
      </trkpt>
      <trkpt lat="54.364715" lon="18.458998">
        <ele>134</ele>
        <time>2026-01-01T09:36:14.626Z</time>
      </trkpt>
      <trkpt lat="54.365072" lon="18.458077">
        <ele>132.5</ele>
        <time>2026-01-01T09:36:24.303Z</time>
      </trkpt>
      <trkpt lat="54.365117" lon="18.457936">
        <ele>132.5</ele>
        <time>2026-01-01T09:36:25.717Z</time>
      </trkpt>
      <trkpt lat="54.36515" lon="18.457729">
        <ele>132.25</ele>
        <time>2026-01-01T09:36:27.701Z</time>
      </trkpt>
      <trkpt lat="54.365159" lon="18.457445">
        <ele>132.25</ele>
        <time>2026-01-01T09:36:30.363Z</time>
      </trkpt>
      <trkpt lat="54.365157" lon="18.456977">
        <ele>132.25</ele>
        <time>2026-01-01T09:36:34.743Z</time>
      </trkpt>
      <trkpt lat="54.365155" lon="18.455817">
        <ele>134.25</ele>
        <time>2026-01-01T09:36:46.673Z</time>
      </trkpt>
      <trkpt lat="54.365137" lon="18.455253">
        <ele>135</ele>
        <time>2026-01-01T09:36:52.700Z</time>
      </trkpt>
      <trkpt lat="54.365135" lon="18.454573">
        <ele>135.5</ele>
        <time>2026-01-01T09:36:59.673Z</time>
      </trkpt>
      <trkpt lat="54.365134" lon="18.453745">
        <ele>136.25</ele>
        <time>2026-01-01T09:37:08.059Z</time>
      </trkpt>
      <trkpt lat="54.365149" lon="18.452285">
        <ele>136.25</ele>
        <time>2026-01-01T09:37:22.316Z</time>
      </trkpt>
      <trkpt lat="54.36516" lon="18.45147">
        <ele>136.25</ele>
        <time>2026-01-01T09:37:30.079Z</time>
      </trkpt>
      <trkpt lat="54.365142" lon="18.448786">
        <ele>137.25</ele>
        <time>2026-01-01T09:37:56.203Z</time>
      </trkpt>
      <trkpt lat="54.365162" lon="18.447979">
        <ele>137.75</ele>
        <time>2026-01-01T09:38:04.149Z</time>
      </trkpt>
      <trkpt lat="54.365156" lon="18.447795">
        <ele>137.75</ele>
        <time>2026-01-01T09:38:06.008Z</time>
      </trkpt>
      <trkpt lat="54.365147" lon="18.447499">
        <ele>138.25</ele>
        <time>2026-01-01T09:38:09.055Z</time>
      </trkpt>
      <trkpt lat="54.36516" lon="18.445823">
        <ele>137.5</ele>
        <time>2026-01-01T09:38:24.873Z</time>
      </trkpt>
      <trkpt lat="54.365155" lon="18.444145">
        <ele>137.25</ele>
        <time>2026-01-01T09:38:40.485Z</time>
      </trkpt>
      <trkpt lat="54.365148" lon="18.443965">
        <ele>137.25</ele>
        <time>2026-01-01T09:38:42.185Z</time>
      </trkpt>
      <trkpt lat="54.365022" lon="18.442794">
        <ele>137.25</ele>
        <time>2026-01-01T09:38:53.524Z</time>
      </trkpt>
      <trkpt lat="54.364996" lon="18.442563">
        <ele>137</ele>
        <time>2026-01-01T09:38:55.734Z</time>
      </trkpt>
      <trkpt lat="54.36488" lon="18.441617">
        <ele>137</ele>
        <time>2026-01-01T09:39:04.792Z</time>
      </trkpt>
      <trkpt lat="54.364856" lon="18.441415">
        <ele>136.75</ele>
        <time>2026-01-01T09:39:06.725Z</time>
      </trkpt>
      <trkpt lat="54.364845" lon="18.441315">
        <ele>136.75</ele>
        <time>2026-01-01T09:39:07.633Z</time>
      </trkpt>
      <trkpt lat="54.364611" lon="18.439215">
        <ele>137.75</ele>
        <time>2026-01-01T09:39:28.475Z</time>
      </trkpt>
      <trkpt lat="54.364525" lon="18.438433">
        <ele>138</ele>
        <time>2026-01-01T09:39:36.302Z</time>
      </trkpt>
      <trkpt lat="54.364273" lon="18.43616">
        <ele>138</ele>
        <time>2026-01-01T09:39:58.473Z</time>
      </trkpt>
      <trkpt lat="54.364002" lon="18.434256">
        <ele>138.25</ele>
        <time>2026-01-01T09:40:17.222Z</time>
      </trkpt>
      <trkpt lat="54.363955" lon="18.433597">
        <ele>138.75</ele>
        <time>2026-01-01T09:40:23.680Z</time>
      </trkpt>
      <trkpt lat="54.363952" lon="18.433532">
        <ele>138.75</ele>
        <time>2026-01-01T09:40:24.351Z</time>
      </trkpt>
      <trkpt lat="54.363932" lon="18.433098">
        <ele>139.5</ele>
        <time>2026-01-01T09:40:28.837Z</time>
      </trkpt>
      <trkpt lat="54.363562" lon="18.43242">
        <ele>142.25</ele>
        <time>2026-01-01T09:40:39.280Z</time>
      </trkpt>
      <trkpt lat="54.363452" lon="18.432208">
        <ele>142.75</ele>
        <time>2026-01-01T09:40:42.512Z</time>
      </trkpt>
      <trkpt lat="54.363234" lon="18.431673">
        <ele>144</ele>
        <time>2026-01-01T09:40:49.601Z</time>
      </trkpt>
      <trkpt lat="54.36274" lon="18.429943">
        <ele>146</ele>
        <time>2026-01-01T09:41:09.710Z</time>
      </trkpt>
      <trkpt lat="54.362593" lon="18.429426">
        <ele>146.5</ele>
        <time>2026-01-01T09:41:15.607Z</time>
      </trkpt>
      <trkpt lat="54.36227" lon="18.428294">
        <ele>147.25</ele>
        <time>2026-01-01T09:41:28.239Z</time>
      </trkpt>
      <trkpt lat="54.362141" lon="18.427841">
        <ele>148.25</ele>
        <time>2026-01-01T09:41:33.405Z</time>
      </trkpt>
      <trkpt lat="54.361968" lon="18.427205">
        <ele>149.25</ele>
        <time>2026-01-01T09:41:40.926Z</time>
      </trkpt>
      <trkpt lat="54.361922" lon="18.427022">
        <ele>149.25</ele>
        <time>2026-01-01T09:41:42.985Z</time>
      </trkpt>
      <trkpt lat="54.361711" lon="18.426194">
        <ele>148.75</ele>
        <time>2026-01-01T09:41:51.291Z</time>
      </trkpt>
      <trkpt lat="54.361711" lon="18.426192">
        <ele>148.75</ele>
        <time>2026-01-01T09:41:51.309Z</time>
      </trkpt>
      <trkpt lat="54.361638" lon="18.425903">
        <ele>148.75</ele>
        <time>2026-01-01T09:41:54.308Z</time>
      </trkpt>
      <trkpt lat="54.361539" lon="18.425596">
        <ele>148.75</ele>
        <time>2026-01-01T09:41:57.584Z</time>
      </trkpt>
      <trkpt lat="54.361445" lon="18.425316">
        <ele>148.5</ele>
        <time>2026-01-01T09:42:00.601Z</time>
      </trkpt>
      <trkpt lat="54.361102" lon="18.424296">
        <ele>147.5</ele>
        <time>2026-01-01T09:42:11.234Z</time>
      </trkpt>
      <trkpt lat="54.360826" lon="18.423411">
        <ele>145</ele>
        <time>2026-01-01T09:42:19.633Z</time>
      </trkpt>
      <trkpt lat="54.360667" lon="18.422932">
        <ele>144</ele>
        <time>2026-01-01T09:42:24.006Z</time>
      </trkpt>
      <trkpt lat="54.360564" lon="18.422597">
        <ele>143.25</ele>
        <time>2026-01-01T09:42:27.126Z</time>
      </trkpt>
      <trkpt lat="54.360511" lon="18.422436">
        <ele>143</ele>
        <time>2026-01-01T09:42:28.644Z</time>
      </trkpt>
      <trkpt lat="54.360359" lon="18.42198">
        <ele>142</ele>
        <time>2026-01-01T09:42:32.956Z</time>
      </trkpt>
      <trkpt lat="54.360146" lon="18.421434">
        <ele>140.5</ele>
        <time>2026-01-01T09:42:38.272Z</time>
      </trkpt>
      <trkpt lat="54.359979" lon="18.421072">
        <ele>139</ele>
        <time>2026-01-01T09:42:41.808Z</time>
      </trkpt>
      <trkpt lat="54.359549" lon="18.420168">
        <ele>137</ele>
        <time>2026-01-01T09:42:51.143Z</time>
      </trkpt>
      <trkpt lat="54.359456" lon="18.419991">
        <ele>136.5</ele>
        <time>2026-01-01T09:42:53.096Z</time>
      </trkpt>
      <trkpt lat="54.359375" lon="18.419834">
        <ele>136</ele>
        <time>2026-01-01T09:42:54.717Z</time>
      </trkpt>
      <trkpt lat="54.359248" lon="18.419583">
        <ele>135</ele>
        <time>2026-01-01T09:42:57.287Z</time>
      </trkpt>
      <trkpt lat="54.359017" lon="18.419131">
        <ele>133.5</ele>
        <time>2026-01-01T09:43:01.913Z</time>
      </trkpt>
      <trkpt lat="54.35888" lon="18.418879">
        <ele>133</ele>
        <time>2026-01-01T09:43:04.766Z</time>
      </trkpt>
      <trkpt lat="54.358746" lon="18.418612">
        <ele>132.75</ele>
        <time>2026-01-01T09:43:07.891Z</time>
      </trkpt>
      <trkpt lat="54.358587" lon="18.418294">
        <ele>132.5</ele>
        <time>2026-01-01T09:43:11.607Z</time>
      </trkpt>
      <trkpt lat="54.358453" lon="18.417947">
        <ele>132.25</ele>
        <time>2026-01-01T09:43:15.366Z</time>
      </trkpt>
      <trkpt lat="54.358369" lon="18.41769">
        <ele>132</ele>
        <time>2026-01-01T09:43:18.020Z</time>
      </trkpt>
      <trkpt lat="54.35823" lon="18.417247">
        <ele>132</ele>
        <time>2026-01-01T09:43:22.660Z</time>
      </trkpt>
      <trkpt lat="54.35804" lon="18.416767">
        <ele>132.25</ele>
        <time>2026-01-01T09:43:28.285Z</time>
      </trkpt>
      <trkpt lat="54.357856" lon="18.416368">
        <ele>132.25</ele>
        <time>2026-01-01T09:43:33.217Z</time>
      </trkpt>
      <trkpt lat="54.357627" lon="18.415986">
        <ele>132.5</ele>
        <time>2026-01-01T09:43:38.532Z</time>
      </trkpt>
      <trkpt lat="54.357281" lon="18.415513">
        <ele>133</ele>
        <time>2026-01-01T09:43:46.081Z</time>
      </trkpt>
      <trkpt lat="54.357072" lon="18.415296">
        <ele>133</ele>
        <time>2026-01-01T09:43:50.125Z</time>
      </trkpt>
      <trkpt lat="54.356915" lon="18.415162">
        <ele>132.75</ele>
        <time>2026-01-01T09:43:52.942Z</time>
      </trkpt>
      <trkpt lat="54.356787" lon="18.41505">
        <ele>133</ele>
        <time>2026-01-01T09:43:55.228Z</time>
      </trkpt>
      <trkpt lat="54.356799" lon="18.414995">
        <ele>132.75</ele>
        <time>2026-01-01T09:43:55.778Z</time>
      </trkpt>
      <trkpt lat="54.3568" lon="18.414877">
        <ele>132.75</ele>
        <time>2026-01-01T09:43:56.885Z</time>
      </trkpt>
      <trkpt lat="54.356789" lon="18.414821">
        <ele>132.75</ele>
        <time>2026-01-01T09:43:57.439Z</time>
      </trkpt>
      <trkpt lat="54.35677" lon="18.414771">
        <ele>132.75</ele>
        <time>2026-01-01T09:43:58.007Z</time>
      </trkpt>
      <trkpt lat="54.356741" lon="18.414724">
        <ele>132.5</ele>
        <time>2026-01-01T09:43:58.658Z</time>
      </trkpt>
      <trkpt lat="54.356705" lon="18.414691">
        <ele>132.5</ele>
        <time>2026-01-01T09:43:59.325Z</time>
      </trkpt>
      <trkpt lat="54.356666" lon="18.414676">
        <ele>132.5</ele>
        <time>2026-01-01T09:43:59.978Z</time>
      </trkpt>
      <trkpt lat="54.356626" lon="18.41468">
        <ele>132.5</ele>
        <time>2026-01-01T09:44:00.632Z</time>
      </trkpt>
      <trkpt lat="54.356588" lon="18.414702">
        <ele>132.5</ele>
        <time>2026-01-01T09:44:01.276Z</time>
      </trkpt>
      <trkpt lat="54.356554" lon="18.41474">
        <ele>132.75</ele>
        <time>2026-01-01T09:44:01.928Z</time>
      </trkpt>
      <trkpt lat="54.356528" lon="18.414793">
        <ele>132.75</ele>
        <time>2026-01-01T09:44:02.587Z</time>
      </trkpt>
      <trkpt lat="54.356415" lon="18.414683">
        <ele>132.75</ele>
        <time>2026-01-01T09:44:04.739Z</time>
      </trkpt>
      <trkpt lat="54.356331" lon="18.414607">
        <ele>132.75</ele>
        <time>2026-01-01T09:44:06.315Z</time>
      </trkpt>
      <trkpt lat="54.356163" lon="18.414551">
        <ele>133</ele>
        <time>2026-01-01T09:44:09.217Z</time>
      </trkpt>
      <trkpt lat="54.354797" lon="18.414394">
        <ele>134.25</ele>
        <time>2026-01-01T09:44:32.428Z</time>
      </trkpt>
      <trkpt lat="54.35468" lon="18.414378">
        <ele>134.5</ele>
        <time>2026-01-01T09:44:34.432Z</time>
      </trkpt>
      <trkpt lat="54.354587" lon="18.414369">
        <ele>134.5</ele>
        <time>2026-01-01T09:44:36.043Z</time>
      </trkpt>
      <trkpt lat="54.354413" lon="18.414354">
        <ele>134.75</ele>
        <time>2026-01-01T09:44:39.056Z</time>
      </trkpt>
      <trkpt lat="54.353796" lon="18.414286">
        <ele>135</ele>
        <time>2026-01-01T09:44:49.500Z</time>
      </trkpt>
      <trkpt lat="54.353397" lon="18.414241">
        <ele>138.75</ele>
        <time>2026-01-01T09:44:57.144Z</time>
      </trkpt>
      <trkpt lat="54.351812" lon="18.414064">
        <ele>138.75</ele>
        <time>2026-01-01T09:45:25.286Z</time>
      </trkpt>
      <trkpt lat="54.35158" lon="18.414038">
        <ele>139</ele>
        <time>2026-01-01T09:45:29.109Z</time>
      </trkpt>
      <trkpt lat="54.351297" lon="18.414">
        <ele>139.5</ele>
        <time>2026-01-01T09:45:34.050Z</time>
      </trkpt>
      <trkpt lat="54.351041" lon="18.413966">
        <ele>139.75</ele>
        <time>2026-01-01T09:45:38.507Z</time>
      </trkpt>
      <trkpt lat="54.35049" lon="18.413897">
        <ele>140.5</ele>
        <time>2026-01-01T09:45:48.036Z</time>
      </trkpt>
      <trkpt lat="54.350373" lon="18.413883">
        <ele>140.75</ele>
        <time>2026-01-01T09:45:50.080Z</time>
      </trkpt>
      <trkpt lat="54.347957" lon="18.413613">
        <ele>145.5</ele>
        <time>2026-01-01T09:46:33.122Z</time>
      </trkpt>
      <trkpt lat="54.347857" lon="18.4136">
        <ele>145.5</ele>
        <time>2026-01-01T09:46:34.891Z</time>
      </trkpt>
      <trkpt lat="54.347848" lon="18.4137">
        <ele>145.5</ele>
        <time>2026-01-01T09:46:35.854Z</time>
      </trkpt>
      <trkpt lat="54.347768" lon="18.413706">
        <ele>145.5</ele>
        <time>2026-01-01T09:46:37.162Z</time>
      </trkpt>
      <trkpt lat="54.346994" lon="18.413649">
        <ele>146.25</ele>
        <time>2026-01-01T09:46:50.245Z</time>
      </trkpt>
      <trkpt lat="54.346912" lon="18.413639">
        <ele>146.75</ele>
        <time>2026-01-01T09:46:51.656Z</time>
      </trkpt>
      <trkpt lat="54.346914" lon="18.413639">
        <ele>146.25</ele>
        <time>2026-01-01T09:46:51.690Z</time>
      </trkpt>
      <trkpt lat="54.346912" lon="18.413639">
        <ele>146.25</ele>
        <time>2026-01-01T09:46:51.724Z</time>
      </trkpt>
      <trkpt lat="54.346669" lon="18.413612">
        <ele>146.75</ele>
        <time>2026-01-01T09:46:55.973Z</time>
      </trkpt>
      <trkpt lat="54.346228" lon="18.413505">
        <ele>147.5</ele>
        <time>2026-01-01T09:47:03.777Z</time>
      </trkpt>
      <trkpt lat="54.345716" lon="18.413443">
        <ele>148</ele>
        <time>2026-01-01T09:47:12.656Z</time>
      </trkpt>
      <trkpt lat="54.345306" lon="18.413462">
        <ele>148</ele>
        <time>2026-01-01T09:47:19.522Z</time>
      </trkpt>
      <trkpt lat="54.344447" lon="18.413379">
        <ele>148</ele>
        <time>2026-01-01T09:47:33.584Z</time>
      </trkpt>
      <trkpt lat="54.344356" lon="18.413394">
        <ele>148</ele>
        <time>2026-01-01T09:47:35.078Z</time>
      </trkpt>
      <trkpt lat="54.343602" lon="18.413682">
        <ele>147</ele>
        <time>2026-01-01T09:47:47.049Z</time>
      </trkpt>
      <trkpt lat="54.343457" lon="18.413713">
        <ele>146.75</ele>
        <time>2026-01-01T09:47:49.286Z</time>
      </trkpt>
      <trkpt lat="54.343319" lon="18.413672">
        <ele>146.5</ele>
        <time>2026-01-01T09:47:51.525Z</time>
      </trkpt>
      <trkpt lat="54.34311" lon="18.413503">
        <ele>146.75</ele>
        <time>2026-01-01T09:47:55.219Z</time>
      </trkpt>
      <trkpt lat="54.342813" lon="18.413321">
        <ele>147</ele>
        <time>2026-01-01T09:48:00.458Z</time>
      </trkpt>
      <trkpt lat="54.342417" lon="18.413049">
        <ele>147.5</ele>
        <time>2026-01-01T09:48:07.746Z</time>
      </trkpt>
      <trkpt lat="54.342053" lon="18.41289">
        <ele>148.5</ele>
        <time>2026-01-01T09:48:14.396Z</time>
      </trkpt>
      <trkpt lat="54.340701" lon="18.41195">
        <ele>149.75</ele>
        <time>2026-01-01T09:48:39.550Z</time>
      </trkpt>
      <trkpt lat="54.339535" lon="18.411111">
        <ele>144.75</ele>
        <time>2026-01-01T09:48:58.943Z</time>
      </trkpt>
      <trkpt lat="54.339397" lon="18.41096">
        <ele>143.5</ele>
        <time>2026-01-01T09:49:01.103Z</time>
      </trkpt>
      <trkpt lat="54.339284" lon="18.410877">
        <ele>142.75</ele>
        <time>2026-01-01T09:49:02.552Z</time>
      </trkpt>
      <trkpt lat="54.339117" lon="18.410772">
        <ele>141.5</ele>
        <time>2026-01-01T09:49:04.698Z</time>
      </trkpt>
      <trkpt lat="54.338894" lon="18.41066">
        <ele>140.25</ele>
        <time>2026-01-01T09:49:07.566Z</time>
      </trkpt>
      <trkpt lat="54.338756" lon="18.410642">
        <ele>139.5</ele>
        <time>2026-01-01T09:49:09.276Z</time>
      </trkpt>
      <trkpt lat="54.338441" lon="18.410657">
        <ele>137.75</ele>
        <time>2026-01-01T09:49:12.067Z</time>
      </trkpt>
      <trkpt lat="54.338395" lon="18.410672">
        <ele>128.75</ele>
        <time>2026-01-01T09:49:12.453Z</time>
      </trkpt>
      <trkpt lat="54.337668" lon="18.410917">
        <ele>128.75</ele>
        <time>2026-01-01T09:49:20.295Z</time>
      </trkpt>
      <trkpt lat="54.337666" lon="18.410802">
        <ele>129</ele>
        <time>2026-01-01T09:49:21.265Z</time>
      </trkpt>
      <trkpt lat="54.337558" lon="18.41079">
        <ele>127.75</ele>
        <time>2026-01-01T09:49:22.528Z</time>
      </trkpt>
      <trkpt lat="54.337501" lon="18.410768">
        <ele>127</ele>
        <time>2026-01-01T09:49:23.230Z</time>
      </trkpt>
      <trkpt lat="54.337442" lon="18.41073">
        <ele>126.5</ele>
        <time>2026-01-01T09:49:24.027Z</time>
      </trkpt>
      <trkpt lat="54.337383" lon="18.410674">
        <ele>126</ele>
        <time>2026-01-01T09:49:24.894Z</time>
      </trkpt>
      <trkpt lat="54.337342" lon="18.410622">
        <ele>125.75</ele>
        <time>2026-01-01T09:49:25.572Z</time>
      </trkpt>
      <trkpt lat="54.337261" lon="18.410468">
        <ele>125.25</ele>
        <time>2026-01-01T09:49:27.180Z</time>
      </trkpt>
      <trkpt lat="54.33721" lon="18.410298">
        <ele>125.25</ele>
        <time>2026-01-01T09:49:28.689Z</time>
      </trkpt>
      <trkpt lat="54.337198" lon="18.410226">
        <ele>125.25</ele>
        <time>2026-01-01T09:49:29.287Z</time>
      </trkpt>
      <trkpt lat="54.33717" lon="18.410039">
        <ele>125.25</ele>
        <time>2026-01-01T09:49:30.816Z</time>
      </trkpt>
      <trkpt lat="54.337127" lon="18.40973">
        <ele>124.25</ele>
        <time>2026-01-01T09:49:33.279Z</time>
      </trkpt>
      <trkpt lat="54.337109" lon="18.409648">
        <ele>124</ele>
        <time>2026-01-01T09:49:33.914Z</time>
      </trkpt>
      <trkpt lat="54.337062" lon="18.409518">
        <ele>123.25</ele>
        <time>2026-01-01T09:49:34.982Z</time>
      </trkpt>
      <trkpt lat="54.336984" lon="18.409419">
        <ele>122.25</ele>
        <time>2026-01-01T09:49:36.115Z</time>
      </trkpt>
      <trkpt lat="54.336917" lon="18.409375">
        <ele>121.5</ele>
        <time>2026-01-01T09:49:36.915Z</time>
      </trkpt>
      <trkpt lat="54.336875" lon="18.409361">
        <ele>121.25</ele>
        <time>2026-01-01T09:49:37.383Z</time>
      </trkpt>
      <trkpt lat="54.336747" lon="18.409278">
        <ele>119.75</ele>
        <time>2026-01-01T09:49:38.898Z</time>
      </trkpt>
      <trkpt lat="54.336702" lon="18.409262">
        <ele>119.25</ele>
        <time>2026-01-01T09:49:39.401Z</time>
      </trkpt>
      <trkpt lat="54.336584" lon="18.409217">
        <ele>118.25</ele>
        <time>2026-01-01T09:49:40.795Z</time>
      </trkpt>
      <trkpt lat="54.336575" lon="18.409126">
        <ele>118</ele>
        <time>2026-01-01T09:49:41.425Z</time>
      </trkpt>
      <trkpt lat="54.336551" lon="18.409043">
        <ele>117.75</ele>
        <time>2026-01-01T09:49:42.068Z</time>
      </trkpt>
      <trkpt lat="54.336514" lon="18.408976">
        <ele>117.25</ele>
        <time>2026-01-01T09:49:42.772Z</time>
      </trkpt>
      <trkpt lat="54.336544" lon="18.408774">
        <ele>117.25</ele>
        <time>2026-01-01T09:49:44.456Z</time>
      </trkpt>
      <trkpt lat="54.336603" lon="18.408327">
        <ele>117.25</ele>
        <time>2026-01-01T09:49:48.251Z</time>
      </trkpt>
      <trkpt lat="54.336626" lon="18.407972">
        <ele>116.75</ele>
        <time>2026-01-01T09:49:51.344Z</time>
      </trkpt>
      <trkpt lat="54.336645" lon="18.407626">
        <ele>116</ele>
        <time>2026-01-01T09:49:54.213Z</time>
      </trkpt>
      <trkpt lat="54.336711" lon="18.40661">
        <ele>114.25</ele>
        <time>2026-01-01T09:50:02.680Z</time>
      </trkpt>
      <trkpt lat="54.336712" lon="18.406552">
        <ele>112.25</ele>
        <time>2026-01-01T09:50:03.137Z</time>
      </trkpt>
      <trkpt lat="54.336712" lon="18.406552">
        <ele>114</ele>
        <time>2026-01-01T09:50:03.137Z</time>
      </trkpt>
      <trkpt lat="54.336728" lon="18.406026">
        <ele>112.25</ele>
        <time>2026-01-01T09:50:06.942Z</time>
      </trkpt>
      <trkpt lat="54.336728" lon="18.405341">
        <ele>110.25</ele>
        <time>2026-01-01T09:50:11.997Z</time>
      </trkpt>
      <trkpt lat="54.336736" lon="18.405032">
        <ele>109.75</ele>
        <time>2026-01-01T09:50:14.436Z</time>
      </trkpt>
      <trkpt lat="54.336755" lon="18.404848">
        <ele>109.5</ele>
        <time>2026-01-01T09:50:16.082Z</time>
      </trkpt>
      <trkpt lat="54.336805" lon="18.404581">
        <ele>109.25</ele>
        <time>2026-01-01T09:50:18.552Z</time>
      </trkpt>
      <trkpt lat="54.336855" lon="18.404362">
        <ele>109.25</ele>
        <time>2026-01-01T09:50:20.752Z</time>
      </trkpt>
      <trkpt lat="54.336955" lon="18.404062">
        <ele>109.5</ele>
        <time>2026-01-01T09:50:23.984Z</time>
      </trkpt>
      <trkpt lat="54.337175" lon="18.403572">
        <ele>110.25</ele>
        <time>2026-01-01T09:50:30.254Z</time>
      </trkpt>
      <trkpt lat="54.337463" lon="18.402974">
        <ele>110.75</ele>
        <time>2026-01-01T09:50:38.153Z</time>
      </trkpt>
      <trkpt lat="54.337631" lon="18.402555">
        <ele>112</ele>
        <time>2026-01-01T09:50:43.500Z</time>
      </trkpt>
      <trkpt lat="54.337727" lon="18.402249">
        <ele>112.25</ele>
        <time>2026-01-01T09:50:47.231Z</time>
      </trkpt>
      <trkpt lat="54.337773" lon="18.402083">
        <ele>112.5</ele>
        <time>2026-01-01T09:50:49.108Z</time>
      </trkpt>
      <trkpt lat="54.337906" lon="18.40148">
        <ele>112.25</ele>
        <time>2026-01-01T09:50:55.352Z</time>
      </trkpt>
      <trkpt lat="54.338235" lon="18.399553">
        <ele>110.75</ele>
        <time>2026-01-01T09:51:13.515Z</time>
      </trkpt>
      <trkpt lat="54.338362" lon="18.398672">
        <ele>108.5</ele>
        <time>2026-01-01T09:51:21.316Z</time>
      </trkpt>
      <trkpt lat="54.338523" lon="18.39735">
        <ele>109.75</ele>
        <time>2026-01-01T09:51:33.746Z</time>
      </trkpt>
      <trkpt lat="54.338578" lon="18.396918">
        <ele>110.5</ele>
        <time>2026-01-01T09:51:38.318Z</time>
      </trkpt>
      <trkpt lat="54.338622" lon="18.396567">
        <ele>111</ele>
        <time>2026-01-01T09:51:42.081Z</time>
      </trkpt>
      <trkpt lat="54.33864" lon="18.396421">
        <ele>111</ele>
        <time>2026-01-01T09:51:43.557Z</time>
      </trkpt>
      <trkpt lat="54.338702" lon="18.395931">
        <ele>111</ele>
        <time>2026-01-01T09:51:48.517Z</time>
      </trkpt>
      <trkpt lat="54.338751" lon="18.395535">
        <ele>110.75</ele>
        <time>2026-01-01T09:51:52.304Z</time>
      </trkpt>
      <trkpt lat="54.338835" lon="18.394864">
        <ele>109.5</ele>
        <time>2026-01-01T09:51:58.160Z</time>
      </trkpt>
      <trkpt lat="54.338905" lon="18.394285">
        <ele>109.75</ele>
        <time>2026-01-01T09:52:03.456Z</time>
      </trkpt>
      <trkpt lat="54.338956" lon="18.393855">
        <ele>109.75</ele>
        <time>2026-01-01T09:52:07.772Z</time>
      </trkpt>
      <trkpt lat="54.338974" lon="18.3937">
        <ele>110</ele>
        <time>2026-01-01T09:52:09.327Z</time>
      </trkpt>
      <trkpt lat="54.339011" lon="18.393132">
        <ele>110.25</ele>
        <time>2026-01-01T09:52:14.952Z</time>
      </trkpt>
      <trkpt lat="54.339032" lon="18.392426">
        <ele>111.25</ele>
        <time>2026-01-01T09:52:22.226Z</time>
      </trkpt>
      <trkpt lat="54.33903" lon="18.391745">
        <ele>111.25</ele>
        <time>2026-01-01T09:52:29.074Z</time>
      </trkpt>
      <trkpt lat="54.33904" lon="18.38231">
        <ele>114.75</ele>
        <time>2026-01-01T09:54:01.376Z</time>
      </trkpt>
      <trkpt lat="54.339067" lon="18.381922">
        <ele>115</ele>
        <time>2026-01-01T09:54:05.208Z</time>
      </trkpt>
      <trkpt lat="54.33912" lon="18.381476">
        <ele>115</ele>
        <time>2026-01-01T09:54:09.644Z</time>
      </trkpt>
      <trkpt lat="54.339416" lon="18.379813">
        <ele>116.5</ele>
        <time>2026-01-01T09:54:27.083Z</time>
      </trkpt>
      <trkpt lat="54.339555" lon="18.379034">
        <ele>116.75</ele>
        <time>2026-01-01T09:54:35.254Z</time>
      </trkpt>
      <trkpt lat="54.339684" lon="18.378404">
        <ele>116.75</ele>
        <time>2026-01-01T09:54:41.699Z</time>
      </trkpt>
      <trkpt lat="54.339811" lon="18.377999">
        <ele>117</ele>
        <time>2026-01-01T09:54:46.155Z</time>
      </trkpt>
      <trkpt lat="54.340004" lon="18.377602">
        <ele>117</ele>
        <time>2026-01-01T09:54:51.177Z</time>
      </trkpt>
      <trkpt lat="54.340205" lon="18.37719">
        <ele>117.25</ele>
        <time>2026-01-01T09:54:56.389Z</time>
      </trkpt>
      <trkpt lat="54.340442" lon="18.376744">
        <ele>117.25</ele>
        <time>2026-01-01T09:55:02.236Z</time>
      </trkpt>
      <trkpt lat="54.340538" lon="18.376514">
        <ele>117.75</ele>
        <time>2026-01-01T09:55:05.091Z</time>
      </trkpt>
      <trkpt lat="54.34066" lon="18.376166">
        <ele>118.25</ele>
        <time>2026-01-01T09:55:09.242Z</time>
      </trkpt>
      <trkpt lat="54.340747" lon="18.375839">
        <ele>118.25</ele>
        <time>2026-01-01T09:55:12.917Z</time>
      </trkpt>
      <trkpt lat="54.340832" lon="18.375298">
        <ele>118.25</ele>
        <time>2026-01-01T09:55:18.411Z</time>
      </trkpt>
      <trkpt lat="54.340995" lon="18.37386">
        <ele>120.75</ele>
        <time>2026-01-01T09:55:33.682Z</time>
      </trkpt>
      <trkpt lat="54.34107" lon="18.373238">
        <ele>121.75</ele>
        <time>2026-01-01T09:55:40.495Z</time>
      </trkpt>
      <trkpt lat="54.341136" lon="18.372565">
        <ele>122.75</ele>
        <time>2026-01-01T09:55:47.745Z</time>
      </trkpt>
      <trkpt lat="54.341168" lon="18.371882">
        <ele>123.5</ele>
        <time>2026-01-01T09:55:54.910Z</time>
      </trkpt>
      <trkpt lat="54.341183" lon="18.371435">
        <ele>123.5</ele>
        <time>2026-01-01T09:55:59.350Z</time>
      </trkpt>
      <trkpt lat="54.341184" lon="18.371151">
        <ele>123.5</ele>
        <time>2026-01-01T09:56:02.004Z</time>
      </trkpt>
      <trkpt lat="54.341186" lon="18.370881">
        <ele>123.25</ele>
        <time>2026-01-01T09:56:04.541Z</time>
      </trkpt>
      <trkpt lat="54.341186" lon="18.370493">
        <ele>123.25</ele>
        <time>2026-01-01T09:56:08.162Z</time>
      </trkpt>
      <trkpt lat="54.341204" lon="18.370009">
        <ele>123</ele>
        <time>2026-01-01T09:56:12.627Z</time>
      </trkpt>
      <trkpt lat="54.341237" lon="18.369699">
        <ele>123</ele>
        <time>2026-01-01T09:56:15.557Z</time>
      </trkpt>
      <trkpt lat="54.341337" lon="18.368959">
        <ele>123.5</ele>
        <time>2026-01-01T09:56:23.054Z</time>
      </trkpt>
      <trkpt lat="54.341387" lon="18.368597">
        <ele>124</ele>
        <time>2026-01-01T09:56:26.841Z</time>
      </trkpt>
      <trkpt lat="54.341415" lon="18.368332">
        <ele>124.25</ele>
        <time>2026-01-01T09:56:29.686Z</time>
      </trkpt>
      <trkpt lat="54.341436" lon="18.368105">
        <ele>124.75</ele>
        <time>2026-01-01T09:56:32.143Z</time>
      </trkpt>
      <trkpt lat="54.341449" lon="18.367738">
        <ele>125.5</ele>
        <time>2026-01-01T09:56:36.160Z</time>
      </trkpt>
      <trkpt lat="54.341449" lon="18.367457">
        <ele>126.25</ele>
        <time>2026-01-01T09:56:39.205Z</time>
      </trkpt>
      <trkpt lat="54.341447" lon="18.367315">
        <ele>126.25</ele>
        <time>2026-01-01T09:56:40.708Z</time>
      </trkpt>
      <trkpt lat="54.341446" lon="18.367224">
        <ele>126.25</ele>
        <time>2026-01-01T09:56:41.659Z</time>
      </trkpt>
      <trkpt lat="54.341446" lon="18.367106">
        <ele>126.5</ele>
        <time>2026-01-01T09:56:42.891Z</time>
      </trkpt>
      <trkpt lat="54.341446" lon="18.366739">
        <ele>126.75</ele>
        <time>2026-01-01T09:56:46.690Z</time>
      </trkpt>
      <trkpt lat="54.341459" lon="18.366557">
        <ele>127</ele>
        <time>2026-01-01T09:56:48.583Z</time>
      </trkpt>
      <trkpt lat="54.341481" lon="18.366419">
        <ele>127</ele>
        <time>2026-01-01T09:56:50.073Z</time>
      </trkpt>
      <trkpt lat="54.341576" lon="18.36614">
        <ele>127.75</ele>
        <time>2026-01-01T09:56:53.559Z</time>
      </trkpt>
      <trkpt lat="54.34173" lon="18.365834">
        <ele>129</ele>
        <time>2026-01-01T09:56:57.944Z</time>
      </trkpt>
      <trkpt lat="54.341785" lon="18.365697">
        <ele>129</ele>
        <time>2026-01-01T09:56:59.746Z</time>
      </trkpt>
      <trkpt lat="54.341861" lon="18.365508">
        <ele>129.25</ele>
        <time>2026-01-01T09:57:02.237Z</time>
      </trkpt>
      <trkpt lat="54.341932" lon="18.365295">
        <ele>129.5</ele>
        <time>2026-01-01T09:57:04.806Z</time>
      </trkpt>
      <trkpt lat="54.34199" lon="18.365154">
        <ele>130</ele>
        <time>2026-01-01T09:57:06.629Z</time>
      </trkpt>
      <trkpt lat="54.342061" lon="18.365023">
        <ele>130.25</ele>
        <time>2026-01-01T09:57:08.520Z</time>
      </trkpt>
      <trkpt lat="54.342099" lon="18.36507">
        <ele>130.25</ele>
        <time>2026-01-01T09:57:09.353Z</time>
      </trkpt>
      <trkpt lat="54.342144" lon="18.365089">
        <ele>130.5</ele>
        <time>2026-01-01T09:57:10.150Z</time>
      </trkpt>
      <trkpt lat="54.34219" lon="18.365079">
        <ele>130.75</ele>
        <time>2026-01-01T09:57:10.936Z</time>
      </trkpt>
      <trkpt lat="54.342231" lon="18.36504">
        <ele>130.75</ele>
        <time>2026-01-01T09:57:11.713Z</time>
      </trkpt>
      <trkpt lat="54.34226" lon="18.364978">
        <ele>131</ele>
        <time>2026-01-01T09:57:12.480Z</time>
      </trkpt>
      <trkpt lat="54.342274" lon="18.364902">
        <ele>131</ele>
        <time>2026-01-01T09:57:13.258Z</time>
      </trkpt>
      <trkpt lat="54.342272" lon="18.364829">
        <ele>131</ele>
        <time>2026-01-01T09:57:13.954Z</time>
      </trkpt>
      <trkpt lat="54.342255" lon="18.364761">
        <ele>130.75</ele>
        <time>2026-01-01T09:57:14.658Z</time>
      </trkpt>
      <trkpt lat="54.342225" lon="18.364707">
        <ele>130.75</ele>
        <time>2026-01-01T09:57:15.368Z</time>
      </trkpt>
      <trkpt lat="54.342187" lon="18.364674">
        <ele>130.5</ele>
        <time>2026-01-01T09:57:16.064Z</time>
      </trkpt>
      <trkpt lat="54.342144" lon="18.364665">
        <ele>130.25</ele>
        <time>2026-01-01T09:57:16.762Z</time>
      </trkpt>
      <trkpt lat="54.342102" lon="18.364682">
        <ele>130</ele>
        <time>2026-01-01T09:57:17.457Z</time>
      </trkpt>
      <trkpt lat="54.342063" lon="18.364727">
        <ele>129.75</ele>
        <time>2026-01-01T09:57:18.186Z</time>
      </trkpt>
      <trkpt lat="54.342036" lon="18.364795">
        <ele>129.75</ele>
        <time>2026-01-01T09:57:18.917Z</time>
      </trkpt>
      <trkpt lat="54.342027" lon="18.364875">
        <ele>130</ele>
        <time>2026-01-01T09:57:19.638Z</time>
      </trkpt>
      <trkpt lat="54.342035" lon="18.364955">
        <ele>130</ele>
        <time>2026-01-01T09:57:20.343Z</time>
      </trkpt>
      <trkpt lat="54.342061" lon="18.365023">
        <ele>130.25</ele>
        <time>2026-01-01T09:57:21.046Z</time>
      </trkpt>
      <trkpt lat="54.34199" lon="18.365154">
        <ele>130</ele>
        <time>2026-01-01T09:57:22.600Z</time>
      </trkpt>
      <trkpt lat="54.341932" lon="18.365295">
        <ele>129.5</ele>
        <time>2026-01-01T09:57:24.107Z</time>
      </trkpt>
      <trkpt lat="54.341861" lon="18.365508">
        <ele>129.25</ele>
        <time>2026-01-01T09:57:26.316Z</time>
      </trkpt>
      <trkpt lat="54.341785" lon="18.365697">
        <ele>129</ele>
        <time>2026-01-01T09:57:28.358Z</time>
      </trkpt>
      <trkpt lat="54.34173" lon="18.365834">
        <ele>129</ele>
        <time>2026-01-01T09:57:29.723Z</time>
      </trkpt>
      <trkpt lat="54.341576" lon="18.36614">
        <ele>127.75</ele>
        <time>2026-01-01T09:57:33.046Z</time>
      </trkpt>
      <trkpt lat="54.341481" lon="18.366419">
        <ele>127</ele>
        <time>2026-01-01T09:57:35.618Z</time>
      </trkpt>
      <trkpt lat="54.341419" lon="18.366357">
        <ele>126.75</ele>
        <time>2026-01-01T09:57:36.564Z</time>
      </trkpt>
      <trkpt lat="54.340955" lon="18.364454">
        <ele>119.75</ele>
        <time>2026-01-01T09:57:51.740Z</time>
      </trkpt>
      <trkpt lat="54.340868" lon="18.364117">
        <ele>118</ele>
        <time>2026-01-01T09:57:54.369Z</time>
      </trkpt>
      <trkpt lat="54.340833" lon="18.363977">
        <ele>117.5</ele>
        <time>2026-01-01T09:57:55.458Z</time>
      </trkpt>
      <trkpt lat="54.340732" lon="18.363708">
        <ele>116.5</ele>
        <time>2026-01-01T09:57:57.747Z</time>
      </trkpt>
      <trkpt lat="54.340667" lon="18.363613">
        <ele>116.25</ele>
        <time>2026-01-01T09:57:58.856Z</time>
      </trkpt>
      <trkpt lat="54.34033" lon="18.363251">
        <ele>115.25</ele>
        <time>2026-01-01T09:58:04.331Z</time>
      </trkpt>
      <trkpt lat="54.340285" lon="18.363203">
        <ele>115</ele>
        <time>2026-01-01T09:58:05.100Z</time>
      </trkpt>
      <trkpt lat="54.340107" lon="18.363034">
        <ele>114.75</ele>
        <time>2026-01-01T09:58:08.056Z</time>
      </trkpt>
      <trkpt lat="54.340092" lon="18.363019">
        <ele>114.75</ele>
        <time>2026-01-01T09:58:08.306Z</time>
      </trkpt>
      <trkpt lat="54.339989" lon="18.362898">
        <ele>114.25</ele>
        <time>2026-01-01T09:58:10.107Z</time>
      </trkpt>
      <trkpt lat="54.339902" lon="18.362656">
        <ele>113.75</ele>
        <time>2026-01-01T09:58:12.498Z</time>
      </trkpt>
      <trkpt lat="54.339705" lon="18.36174">
        <ele>113.5</ele>
        <time>2026-01-01T09:58:21.208Z</time>
      </trkpt>
      <trkpt lat="54.339639" lon="18.361586">
        <ele>113.75</ele>
        <time>2026-01-01T09:58:23.115Z</time>
      </trkpt>
      <trkpt lat="54.339572" lon="18.361475">
        <ele>114</ele>
        <time>2026-01-01T09:58:24.879Z</time>
      </trkpt>
      <trkpt lat="54.33943" lon="18.361309">
        <ele>114.75</ele>
        <time>2026-01-01T09:58:28.133Z</time>
      </trkpt>
      <trkpt lat="54.339339" lon="18.361229">
        <ele>115.25</ele>
        <time>2026-01-01T09:58:30.069Z</time>
      </trkpt>
      <trkpt lat="54.338869" lon="18.361004">
        <ele>117</ele>
        <time>2026-01-01T09:58:39.356Z</time>
      </trkpt>
      <trkpt lat="54.338043" lon="18.360362">
        <ele>117.75</ele>
        <time>2026-01-01T09:58:55.362Z</time>
      </trkpt>
      <trkpt lat="54.33794" lon="18.360272">
        <ele>117.25</ele>
        <time>2026-01-01T09:58:57.272Z</time>
      </trkpt>
      <trkpt lat="54.337258" lon="18.360052">
        <ele>114.5</ele>
        <time>2026-01-01T09:59:06.651Z</time>
      </trkpt>
      <trkpt lat="54.337025" lon="18.359935">
        <ele>114.25</ele>
        <time>2026-01-01T09:59:10.063Z</time>
      </trkpt>
      <trkpt lat="54.336771" lon="18.359634">
        <ele>114.25</ele>
        <time>2026-01-01T09:59:15.006Z</time>
      </trkpt>
      <trkpt lat="54.336542" lon="18.359363">
        <ele>114.25</ele>
        <time>2026-01-01T09:59:19.553Z</time>
      </trkpt>
      <trkpt lat="54.336173" lon="18.358927">
        <ele>115</ele>
        <time>2026-01-01T09:59:27.216Z</time>
      </trkpt>
      <trkpt lat="54.336074" lon="18.358766">
        <ele>115.25</ele>
        <time>2026-01-01T09:59:29.595Z</time>
      </trkpt>
      <trkpt lat="54.336044" lon="18.358637">
        <ele>115.25</ele>
        <time>2026-01-01T09:59:30.986Z</time>
      </trkpt>
      <trkpt lat="54.335755" lon="18.357974">
        <ele>116.75</ele>
        <time>2026-01-01T09:59:39.746Z</time>
      </trkpt>
      <trkpt lat="54.335661" lon="18.357769">
        <ele>117.25</ele>
        <time>2026-01-01T09:59:42.511Z</time>
      </trkpt>
      <trkpt lat="54.335496" lon="18.357452">
        <ele>117.5</ele>
        <time>2026-01-01T09:59:46.813Z</time>
      </trkpt>
      <trkpt lat="54.335396" lon="18.357292">
        <ele>117.5</ele>
        <time>2026-01-01T09:59:49.111Z</time>
      </trkpt>
      <trkpt lat="54.335197" lon="18.357006">
        <ele>117.25</ele>
        <time>2026-01-01T09:59:53.290Z</time>
      </trkpt>
      <trkpt lat="54.335116" lon="18.356919">
        <ele>117</ele>
        <time>2026-01-01T09:59:54.789Z</time>
      </trkpt>
      <trkpt lat="54.334977" lon="18.356854">
        <ele>116.5</ele>
        <time>2026-01-01T09:59:57.040Z</time>
      </trkpt>
      <trkpt lat="54.334875" lon="18.356832">
        <ele>116.75</ele>
        <time>2026-01-01T09:59:58.662Z</time>
      </trkpt>
      <trkpt lat="54.334781" lon="18.356844">
        <ele>116.75</ele>
        <time>2026-01-01T10:00:00.149Z</time>
      </trkpt>
      <trkpt lat="54.334711" lon="18.356872">
        <ele>116.75</ele>
        <time>2026-01-01T10:00:01.283Z</time>
      </trkpt>
      <trkpt lat="54.334581" lon="18.356956">
        <ele>116.75</ele>
        <time>2026-01-01T10:00:03.494Z</time>
      </trkpt>
      <trkpt lat="54.334312" lon="18.357217">
        <ele>116.5</ele>
        <time>2026-01-01T10:00:08.545Z</time>
      </trkpt>
      <trkpt lat="54.334015" lon="18.357536">
        <ele>116.5</ele>
        <time>2026-01-01T10:00:14.192Z</time>
      </trkpt>
      <trkpt lat="54.332679" lon="18.358978">
        <ele>117.25</ele>
        <time>2026-01-01T10:00:40.444Z</time>
      </trkpt>
      <trkpt lat="54.332275" lon="18.359523">
        <ele>117.5</ele>
        <time>2026-01-01T10:00:49.025Z</time>
      </trkpt>
      <trkpt lat="54.331914" lon="18.360048">
        <ele>118.75</ele>
        <time>2026-01-01T10:00:57.286Z</time>
      </trkpt>
      <trkpt lat="54.331833" lon="18.360188">
        <ele>119</ele>
        <time>2026-01-01T10:00:59.333Z</time>
      </trkpt>
      <trkpt lat="54.331648" lon="18.360552">
        <ele>119.25</ele>
        <time>2026-01-01T10:01:04.194Z</time>
      </trkpt>
      <trkpt lat="54.331516" lon="18.360909">
        <ele>119.25</ele>
        <time>2026-01-01T10:01:08.342Z</time>
      </trkpt>
      <trkpt lat="54.33148" lon="18.361093">
        <ele>119.25</ele>
        <time>2026-01-01T10:01:10.101Z</time>
      </trkpt>
      <trkpt lat="54.331414" lon="18.361648">
        <ele>118.5</ele>
        <time>2026-01-01T10:01:15.236Z</time>
      </trkpt>
      <trkpt lat="54.33137" lon="18.362654">
        <ele>117.75</ele>
        <time>2026-01-01T10:01:24.225Z</time>
      </trkpt>
      <trkpt lat="54.331339" lon="18.363306">
        <ele>117.5</ele>
        <time>2026-01-01T10:01:30.171Z</time>
      </trkpt>
      <trkpt lat="54.331324" lon="18.363945">
        <ele>117.5</ele>
        <time>2026-01-01T10:01:36.175Z</time>
      </trkpt>
      <trkpt lat="54.331325" lon="18.364219">
        <ele>117.5</ele>
        <time>2026-01-01T10:01:38.786Z</time>
      </trkpt>
      <trkpt lat="54.33136" lon="18.364879">
        <ele>117.25</ele>
        <time>2026-01-01T10:01:44.972Z</time>
      </trkpt>
      <trkpt lat="54.331373" lon="18.36511">
        <ele>117.25</ele>
        <time>2026-01-01T10:01:47.136Z</time>
      </trkpt>
      <trkpt lat="54.331433" lon="18.365951">
        <ele>118.25</ele>
        <time>2026-01-01T10:01:55.784Z</time>
      </trkpt>
      <trkpt lat="54.331396" lon="18.366179">
        <ele>119</ele>
        <time>2026-01-01T10:01:58.516Z</time>
      </trkpt>
      <trkpt lat="54.33132" lon="18.366341">
        <ele>120.25</ele>
        <time>2026-01-01T10:02:01.121Z</time>
      </trkpt>
      <trkpt lat="54.331274" lon="18.36641">
        <ele>121</ele>
        <time>2026-01-01T10:02:02.434Z</time>
      </trkpt>
      <trkpt lat="54.331213" lon="18.366503">
        <ele>121.75</ele>
        <time>2026-01-01T10:02:04.188Z</time>
      </trkpt>
      <trkpt lat="54.33117" lon="18.366589">
        <ele>122.5</ele>
        <time>2026-01-01T10:02:05.607Z</time>
      </trkpt>
      <trkpt lat="54.331156" lon="18.366773">
        <ele>123</ele>
        <time>2026-01-01T10:02:07.972Z</time>
      </trkpt>
      <trkpt lat="54.331237" lon="18.367606">
        <ele>124.25</ele>
        <time>2026-01-01T10:02:17.903Z</time>
      </trkpt>
      <trkpt lat="54.331236" lon="18.36803">
        <ele>125.25</ele>
        <time>2026-01-01T10:02:22.606Z</time>
      </trkpt>
      <trkpt lat="54.331184" lon="18.368335">
        <ele>126.5</ele>
        <time>2026-01-01T10:02:26.295Z</time>
      </trkpt>
      <trkpt lat="54.331046" lon="18.368744">
        <ele>128.25</ele>
        <time>2026-01-01T10:02:31.853Z</time>
      </trkpt>
      <trkpt lat="54.330927" lon="18.369031">
        <ele>129.75</ele>
        <time>2026-01-01T10:02:36.124Z</time>
      </trkpt>
      <trkpt lat="54.330798" lon="18.369247">
        <ele>131</ele>
        <time>2026-01-01T10:02:39.904Z</time>
      </trkpt>
      <trkpt lat="54.33056" lon="18.369553">
        <ele>132.25</ele>
        <time>2026-01-01T10:02:45.825Z</time>
      </trkpt>
      <trkpt lat="54.330455" lon="18.3697">
        <ele>132.5</ele>
        <time>2026-01-01T10:02:48.361Z</time>
      </trkpt>
      <trkpt lat="54.330342" lon="18.369919">
        <ele>133</ele>
        <time>2026-01-01T10:02:51.551Z</time>
      </trkpt>
      <trkpt lat="54.329214" lon="18.372583">
        <ele>141.5</ele>
        <time>2026-01-01T10:03:28.534Z</time>
      </trkpt>
      <trkpt lat="54.329135" lon="18.372778">
        <ele>141.75</ele>
        <time>2026-01-01T10:03:31.194Z</time>
      </trkpt>
      <trkpt lat="54.329009" lon="18.373068">
        <ele>142.25</ele>
        <time>2026-01-01T10:03:34.969Z</time>
      </trkpt>
      <trkpt lat="54.328739" lon="18.373711">
        <ele>143.75</ele>
        <time>2026-01-01T10:03:43.443Z</time>
      </trkpt>
      <trkpt lat="54.328664" lon="18.373882">
        <ele>144</ele>
        <time>2026-01-01T10:03:45.749Z</time>
      </trkpt>
      <trkpt lat="54.328387" lon="18.374516">
        <ele>144.75</ele>
        <time>2026-01-01T10:03:53.874Z</time>
      </trkpt>
      <trkpt lat="54.328132" lon="18.375146">
        <ele>144.75</ele>
        <time>2026-01-01T10:04:01.454Z</time>
      </trkpt>
      <trkpt lat="54.327991" lon="18.375483">
        <ele>145</ele>
        <time>2026-01-01T10:04:05.471Z</time>
      </trkpt>
      <trkpt lat="54.327848" lon="18.375821">
        <ele>145.25</ele>
        <time>2026-01-01T10:04:09.585Z</time>
      </trkpt>
      <trkpt lat="54.327814" lon="18.3759">
        <ele>145.25</ele>
        <time>2026-01-01T10:04:10.538Z</time>
      </trkpt>
      <trkpt lat="54.327735" lon="18.376059">
        <ele>145.25</ele>
        <time>2026-01-01T10:04:12.589Z</time>
      </trkpt>
      <trkpt lat="54.327604" lon="18.376279">
        <ele>145.25</ele>
        <time>2026-01-01T10:04:15.676Z</time>
      </trkpt>
      <trkpt lat="54.327504" lon="18.376432">
        <ele>145.5</ele>
        <time>2026-01-01T10:04:17.898Z</time>
      </trkpt>
      <trkpt lat="54.327377" lon="18.376625">
        <ele>145.5</ele>
        <time>2026-01-01T10:04:20.710Z</time>
      </trkpt>
      <trkpt lat="54.327317" lon="18.376749">
        <ele>145.5</ele>
        <time>2026-01-01T10:04:22.274Z</time>
      </trkpt>
      <trkpt lat="54.32727" lon="18.376887">
        <ele>145.5</ele>
        <time>2026-01-01T10:04:23.797Z</time>
      </trkpt>
      <trkpt lat="54.327236" lon="18.37708">
        <ele>145.5</ele>
        <time>2026-01-01T10:04:25.686Z</time>
      </trkpt>
      <trkpt lat="54.327221" lon="18.377412">
        <ele>145.25</ele>
        <time>2026-01-01T10:04:28.788Z</time>
      </trkpt>
      <trkpt lat="54.327205" lon="18.378391">
        <ele>143.5</ele>
        <time>2026-01-01T10:04:37.272Z</time>
      </trkpt>
      <trkpt lat="54.327197" lon="18.378608">
        <ele>143.25</ele>
        <time>2026-01-01T10:04:39.153Z</time>
      </trkpt>
      <trkpt lat="54.327196" lon="18.378663">
        <ele>143.25</ele>
        <time>2026-01-01T10:04:39.677Z</time>
      </trkpt>
      <trkpt lat="54.327175" lon="18.37886">
        <ele>143.25</ele>
        <time>2026-01-01T10:04:41.622Z</time>
      </trkpt>
      <trkpt lat="54.327125" lon="18.379045">
        <ele>143.25</ele>
        <time>2026-01-01T10:04:43.659Z</time>
      </trkpt>
      <trkpt lat="54.327074" lon="18.379163">
        <ele>143.5</ele>
        <time>2026-01-01T10:04:45.126Z</time>
      </trkpt>
      <trkpt lat="54.326993" lon="18.379281">
        <ele>143.75</ele>
        <time>2026-01-01T10:04:46.999Z</time>
      </trkpt>
      <trkpt lat="54.326897" lon="18.379368">
        <ele>144.25</ele>
        <time>2026-01-01T10:04:48.921Z</time>
      </trkpt>
      <trkpt lat="54.326445" lon="18.379595">
        <ele>146</ele>
        <time>2026-01-01T10:04:57.661Z</time>
      </trkpt>
      <trkpt lat="54.326343" lon="18.379656">
        <ele>146.25</ele>
        <time>2026-01-01T10:04:59.665Z</time>
      </trkpt>
      <trkpt lat="54.326257" lon="18.379733">
        <ele>146.5</ele>
        <time>2026-01-01T10:05:01.418Z</time>
      </trkpt>
      <trkpt lat="54.326197" lon="18.379796">
        <ele>146.75</ele>
        <time>2026-01-01T10:05:02.689Z</time>
      </trkpt>
      <trkpt lat="54.326096" lon="18.379971">
        <ele>147</ele>
        <time>2026-01-01T10:05:05.283Z</time>
      </trkpt>
      <trkpt lat="54.325917" lon="18.380405">
        <ele>147.5</ele>
        <time>2026-01-01T10:05:10.813Z</time>
      </trkpt>
      <trkpt lat="54.325748" lon="18.380831">
        <ele>147.5</ele>
        <time>2026-01-01T10:05:15.904Z</time>
      </trkpt>
      <trkpt lat="54.325206" lon="18.382102">
        <ele>145.25</ele>
        <time>2026-01-01T10:05:29.678Z</time>
      </trkpt>
      <trkpt lat="54.324724" lon="18.383235">
        <ele>145</ele>
        <time>2026-01-01T10:05:42.185Z</time>
      </trkpt>
      <trkpt lat="54.323373" lon="18.386475">
        <ele>141.25</ele>
        <time>2026-01-01T10:06:17.987Z</time>
      </trkpt>
      <trkpt lat="54.323311" lon="18.386594">
        <ele>141</ele>
        <time>2026-01-01T10:06:19.395Z</time>
      </trkpt>
      <trkpt lat="54.32294" lon="18.387044">
        <ele>141.75</ele>
        <time>2026-01-01T10:06:27.127Z</time>
      </trkpt>
      <trkpt lat="54.322737" lon="18.387411">
        <ele>142.25</ele>
        <time>2026-01-01T10:06:32.307Z</time>
      </trkpt>
      <trkpt lat="54.322583" lon="18.387823">
        <ele>141.75</ele>
        <time>2026-01-01T10:06:36.971Z</time>
      </trkpt>
      <trkpt lat="54.32242" lon="18.38834">
        <ele>141.25</ele>
        <time>2026-01-01T10:06:42.175Z</time>
      </trkpt>
      <trkpt lat="54.322224" lon="18.388992">
        <ele>141.5</ele>
        <time>2026-01-01T10:06:49.065Z</time>
      </trkpt>
      <trkpt lat="54.322163" lon="18.389192">
        <ele>141.5</ele>
        <time>2026-01-01T10:06:51.245Z</time>
      </trkpt>
      <trkpt lat="54.322032" lon="18.389634">
        <ele>141.5</ele>
        <time>2026-01-01T10:06:55.971Z</time>
      </trkpt>
      <trkpt lat="54.32171" lon="18.390709">
        <ele>141.5</ele>
        <time>2026-01-01T10:07:07.491Z</time>
      </trkpt>
      <trkpt lat="54.321213" lon="18.39237">
        <ele>141.5</ele>
        <time>2026-01-01T10:07:25.287Z</time>
      </trkpt>
      <trkpt lat="54.320995" lon="18.393101">
        <ele>139.25</ele>
        <time>2026-01-01T10:07:32.611Z</time>
      </trkpt>
      <trkpt lat="54.320904" lon="18.393062">
        <ele>139.5</ele>
        <time>2026-01-01T10:07:33.911Z</time>
      </trkpt>
      <trkpt lat="54.320111" lon="18.392712">
        <ele>141.75</ele>
        <time>2026-01-01T10:07:48.911Z</time>
      </trkpt>
      <trkpt lat="54.319873" lon="18.392637">
        <ele>142.75</ele>
        <time>2026-01-01T10:07:53.424Z</time>
      </trkpt>
      <trkpt lat="54.319772" lon="18.392624">
        <ele>143.25</ele>
        <time>2026-01-01T10:07:55.274Z</time>
      </trkpt>
      <trkpt lat="54.319627" lon="18.392636">
        <ele>143.25</ele>
        <time>2026-01-01T10:07:57.888Z</time>
      </trkpt>
      <trkpt lat="54.319462" lon="18.392663">
        <ele>143.5</ele>
        <time>2026-01-01T10:08:00.779Z</time>
      </trkpt>
      <trkpt lat="54.319354" lon="18.392679">
        <ele>143.5</ele>
        <time>2026-01-01T10:08:02.653Z</time>
      </trkpt>
      <trkpt lat="54.319212" lon="18.392727">
        <ele>143.75</ele>
        <time>2026-01-01T10:08:05.111Z</time>
      </trkpt>
      <trkpt lat="54.319107" lon="18.392777">
        <ele>143.75</ele>
        <time>2026-01-01T10:08:06.976Z</time>
      </trkpt>
      <trkpt lat="54.318937" lon="18.392892">
        <ele>144</ele>
        <time>2026-01-01T10:08:10.055Z</time>
      </trkpt>
      <trkpt lat="54.31878" lon="18.393042">
        <ele>144</ele>
        <time>2026-01-01T10:08:13.115Z</time>
      </trkpt>
      <trkpt lat="54.318626" lon="18.393236">
        <ele>144.25</ele>
        <time>2026-01-01T10:08:16.466Z</time>
      </trkpt>
      <trkpt lat="54.318476" lon="18.393488">
        <ele>145</ele>
        <time>2026-01-01T10:08:20.162Z</time>
      </trkpt>
      <trkpt lat="54.318213" lon="18.394052">
        <ele>146.25</ele>
        <time>2026-01-01T10:08:27.876Z</time>
      </trkpt>
      <trkpt lat="54.317833" lon="18.394893">
        <ele>147.5</ele>
        <time>2026-01-01T10:08:39.096Z</time>
      </trkpt>
      <trkpt lat="54.317671" lon="18.395176">
        <ele>148.25</ele>
        <time>2026-01-01T10:08:43.281Z</time>
      </trkpt>
      <trkpt lat="54.317536" lon="18.395379">
        <ele>148.75</ele>
        <time>2026-01-01T10:08:46.466Z</time>
      </trkpt>
      <trkpt lat="54.317332" lon="18.395598">
        <ele>148.75</ele>
        <time>2026-01-01T10:08:50.736Z</time>
      </trkpt>
      <trkpt lat="54.317122" lon="18.395756">
        <ele>148.5</ele>
        <time>2026-01-01T10:08:54.484Z</time>
      </trkpt>
      <trkpt lat="54.316972" lon="18.395821">
        <ele>148.25</ele>
        <time>2026-01-01T10:08:56.870Z</time>
      </trkpt>
      <trkpt lat="54.31676" lon="18.395875">
        <ele>148</ele>
        <time>2026-01-01T10:09:00.166Z</time>
      </trkpt>
      <trkpt lat="54.3166" lon="18.395877">
        <ele>147.75</ele>
        <time>2026-01-01T10:09:02.633Z</time>
      </trkpt>
      <trkpt lat="54.316476" lon="18.395862">
        <ele>147.75</ele>
        <time>2026-01-01T10:09:04.557Z</time>
      </trkpt>
      <trkpt lat="54.316341" lon="18.395824">
        <ele>147.5</ele>
        <time>2026-01-01T10:09:06.674Z</time>
      </trkpt>
      <trkpt lat="54.315456" lon="18.395429">
        <ele>145.75</ele>
        <time>2026-01-01T10:09:20.497Z</time>
      </trkpt>
      <trkpt lat="54.315349" lon="18.395391">
        <ele>145.5</ele>
        <time>2026-01-01T10:09:22.109Z</time>
      </trkpt>
      <trkpt lat="54.315232" lon="18.395354">
        <ele>145</ele>
        <time>2026-01-01T10:09:23.794Z</time>
      </trkpt>
      <trkpt lat="54.314966" lon="18.395366">
        <ele>144.25</ele>
        <time>2026-01-01T10:09:27.665Z</time>
      </trkpt>
      <trkpt lat="54.314857" lon="18.395389">
        <ele>144.25</ele>
        <time>2026-01-01T10:09:29.251Z</time>
      </trkpt>
      <trkpt lat="54.314692" lon="18.395456">
        <ele>143.75</ele>
        <time>2026-01-01T10:09:31.751Z</time>
      </trkpt>
      <trkpt lat="54.314457" lon="18.395591">
        <ele>143.25</ele>
        <time>2026-01-01T10:09:35.469Z</time>
      </trkpt>
      <trkpt lat="54.314457" lon="18.395591">
        <ele>143.25</ele>
        <time>2026-01-01T10:09:35.469Z</time>
      </trkpt>
      <trkpt lat="54.314455" lon="18.395593">
        <ele>143.25</ele>
        <time>2026-01-01T10:09:35.503Z</time>
      </trkpt>
      <trkpt lat="54.314312" lon="18.39567">
        <ele>143</ele>
        <time>2026-01-01T10:09:37.752Z</time>
      </trkpt>
      <trkpt lat="54.314202" lon="18.395698">
        <ele>143</ele>
        <time>2026-01-01T10:09:39.569Z</time>
      </trkpt>
      <trkpt lat="54.313985" lon="18.395708">
        <ele>143.75</ele>
        <time>2026-01-01T10:09:43.282Z</time>
      </trkpt>
      <trkpt lat="54.313573" lon="18.395611">
        <ele>145.5</ele>
        <time>2026-01-01T10:09:51.076Z</time>
      </trkpt>
      <trkpt lat="54.313371" lon="18.395546">
        <ele>146.25</ele>
        <time>2026-01-01T10:09:54.937Z</time>
      </trkpt>
      <trkpt lat="54.313197" lon="18.395461">
        <ele>146.5</ele>
        <time>2026-01-01T10:09:58.156Z</time>
      </trkpt>
      <trkpt lat="54.313093" lon="18.395375">
        <ele>146.5</ele>
        <time>2026-01-01T10:10:00.210Z</time>
      </trkpt>
      <trkpt lat="54.312699" lon="18.394908">
        <ele>146.75</ele>
        <time>2026-01-01T10:10:08.266Z</time>
      </trkpt>
      <trkpt lat="54.312617" lon="18.394811">
        <ele>146.75</ele>
        <time>2026-01-01T10:10:09.922Z</time>
      </trkpt>
      <trkpt lat="54.312549" lon="18.394728">
        <ele>146.75</ele>
        <time>2026-01-01T10:10:11.372Z</time>
      </trkpt>
      <trkpt lat="54.312264" lon="18.394386">
        <ele>147.5</ele>
        <time>2026-01-01T10:10:17.417Z</time>
      </trkpt>
      <trkpt lat="54.312017" lon="18.394089">
        <ele>148</ele>
        <time>2026-01-01T10:10:22.723Z</time>
      </trkpt>
      <trkpt lat="54.31159" lon="18.393495">
        <ele>149.25</ele>
        <time>2026-01-01T10:10:32.532Z</time>
      </trkpt>
      <trkpt lat="54.311039" lon="18.392705">
        <ele>151.25</ele>
        <time>2026-01-01T10:10:45.602Z</time>
      </trkpt>
      <trkpt lat="54.310932" lon="18.392583">
        <ele>151.5</ele>
        <time>2026-01-01T10:10:47.982Z</time>
      </trkpt>
      <trkpt lat="54.310769" lon="18.39244">
        <ele>152.25</ele>
        <time>2026-01-01T10:10:51.426Z</time>
      </trkpt>
      <trkpt lat="54.310654" lon="18.392375">
        <ele>152.75</ele>
        <time>2026-01-01T10:10:53.801Z</time>
      </trkpt>
      <trkpt lat="54.31035" lon="18.392282">
        <ele>154.75</ele>
        <time>2026-01-01T10:10:59.859Z</time>
      </trkpt>
      <trkpt lat="54.310205" lon="18.392242">
        <ele>155.5</ele>
        <time>2026-01-01T10:11:02.853Z</time>
      </trkpt>
      <trkpt lat="54.310166" lon="18.392231">
        <ele>155.75</ele>
        <time>2026-01-01T10:11:03.625Z</time>
      </trkpt>
      <trkpt lat="54.309995" lon="18.392226">
        <ele>157</ele>
        <time>2026-01-01T10:11:06.969Z</time>
      </trkpt>
      <trkpt lat="54.309915" lon="18.39251">
        <ele>157.25</ele>
        <time>2026-01-01T10:11:10.534Z</time>
      </trkpt>
      <trkpt lat="54.309849" lon="18.392743">
        <ele>157.75</ele>
        <time>2026-01-01T10:11:13.441Z</time>
      </trkpt>
      <trkpt lat="54.309452" lon="18.394141">
        <ele>159.5</ele>
        <time>2026-01-01T10:11:29.594Z</time>
      </trkpt>
      <trkpt lat="54.309428" lon="18.394195">
        <ele>159.5</ele>
        <time>2026-01-01T10:11:30.275Z</time>
      </trkpt>
      <trkpt lat="54.309312" lon="18.394463">
        <ele>159.5</ele>
        <time>2026-01-01T10:11:33.383Z</time>
      </trkpt>
      <trkpt lat="54.309213" lon="18.394638">
        <ele>159.25</ele>
        <time>2026-01-01T10:11:35.707Z</time>
      </trkpt>
      <trkpt lat="54.309125" lon="18.394751">
        <ele>159.25</ele>
        <time>2026-01-01T10:11:37.504Z</time>
      </trkpt>
      <trkpt lat="54.308997" lon="18.394901">
        <ele>159.5</ele>
        <time>2026-01-01T10:11:40.074Z</time>
      </trkpt>
      <trkpt lat="54.30883" lon="18.395055">
        <ele>159.75</ele>
        <time>2026-01-01T10:11:43.296Z</time>
      </trkpt>
      <trkpt lat="54.308599" lon="18.39522">
        <ele>160.25</ele>
        <time>2026-01-01T10:11:47.693Z</time>
      </trkpt>
      <trkpt lat="54.307831" lon="18.395725">
        <ele>161.5</ele>
        <time>2026-01-01T10:12:02.089Z</time>
      </trkpt>
      <trkpt lat="54.307594" lon="18.395906">
        <ele>161.75</ele>
        <time>2026-01-01T10:12:06.592Z</time>
      </trkpt>
      <trkpt lat="54.307353" lon="18.396171">
        <ele>161.75</ele>
        <time>2026-01-01T10:12:11.432Z</time>
      </trkpt>
      <trkpt lat="54.307271" lon="18.396291">
        <ele>162</ele>
        <time>2026-01-01T10:12:13.259Z</time>
      </trkpt>
      <trkpt lat="54.307122" lon="18.396543">
        <ele>162.25</ele>
        <time>2026-01-01T10:12:16.807Z</time>
      </trkpt>
      <trkpt lat="54.306924" lon="18.396982">
        <ele>163</ele>
        <time>2026-01-01T10:12:22.557Z</time>
      </trkpt>
      <trkpt lat="54.306791" lon="18.397451">
        <ele>163.5</ele>
        <time>2026-01-01T10:12:27.970Z</time>
      </trkpt>
      <trkpt lat="54.306115" lon="18.400585">
        <ele>162.5</ele>
        <time>2026-01-01T10:12:59.516Z</time>
      </trkpt>
      <trkpt lat="54.306013" lon="18.400965">
        <ele>162.25</ele>
        <time>2026-01-01T10:13:03.402Z</time>
      </trkpt>
      <trkpt lat="54.305692" lon="18.401996">
        <ele>162</ele>
        <time>2026-01-01T10:13:14.276Z</time>
      </trkpt>
      <trkpt lat="54.305653" lon="18.40212">
        <ele>162</ele>
        <time>2026-01-01T10:13:15.599Z</time>
      </trkpt>
      <trkpt lat="54.30532" lon="18.403185">
        <ele>161.75</ele>
        <time>2026-01-01T10:13:26.957Z</time>
      </trkpt>
      <trkpt lat="54.305184" lon="18.403634">
        <ele>162</ele>
        <time>2026-01-01T10:13:31.781Z</time>
      </trkpt>
      <trkpt lat="54.305026" lon="18.404192">
        <ele>162.75</ele>
        <time>2026-01-01T10:13:38.098Z</time>
      </trkpt>
      <trkpt lat="54.304876" lon="18.404904">
        <ele>163.75</ele>
        <time>2026-01-01T10:13:46.015Z</time>
      </trkpt>
      <trkpt lat="54.304815" lon="18.405255">
        <ele>164</ele>
        <time>2026-01-01T10:13:49.804Z</time>
      </trkpt>
      <trkpt lat="54.304722" lon="18.40587">
        <ele>164</ele>
        <time>2026-01-01T10:13:55.979Z</time>
      </trkpt>
      <trkpt lat="54.30469" lon="18.406078">
        <ele>164.25</ele>
        <time>2026-01-01T10:13:58.069Z</time>
      </trkpt>
      <trkpt lat="54.304668" lon="18.406225">
        <ele>164.25</ele>
        <time>2026-01-01T10:13:59.619Z</time>
      </trkpt>
      <trkpt lat="54.304598" lon="18.406646">
        <ele>164.75</ele>
        <time>2026-01-01T10:14:04.091Z</time>
      </trkpt>
      <trkpt lat="54.304493" lon="18.407219">
        <ele>164.5</ele>
        <time>2026-01-01T10:14:09.911Z</time>
      </trkpt>
      <trkpt lat="54.30438" lon="18.407791">
        <ele>164.25</ele>
        <time>2026-01-01T10:14:15.486Z</time>
      </trkpt>
      <trkpt lat="54.304342" lon="18.407983">
        <ele>164</ele>
        <time>2026-01-01T10:14:17.327Z</time>
      </trkpt>
      <trkpt lat="54.304145" lon="18.408821">
        <ele>163.75</ele>
        <time>2026-01-01T10:14:25.643Z</time>
      </trkpt>
      <trkpt lat="54.303925" lon="18.409658">
        <ele>164.5</ele>
        <time>2026-01-01T10:14:34.583Z</time>
      </trkpt>
      <trkpt lat="54.303914" lon="18.409701">
        <ele>164.5</ele>
        <time>2026-01-01T10:14:35.057Z</time>
      </trkpt>
      <trkpt lat="54.303628" lon="18.410801">
        <ele>165</ele>
        <time>2026-01-01T10:14:46.895Z</time>
      </trkpt>
      <trkpt lat="54.303614" lon="18.410854">
        <ele>164.75</ele>
        <time>2026-01-01T10:14:47.458Z</time>
      </trkpt>
      <trkpt lat="54.303236" lon="18.412333">
        <ele>164</ele>
        <time>2026-01-01T10:15:02.149Z</time>
      </trkpt>
      <trkpt lat="54.303194" lon="18.41251">
        <ele>163.75</ele>
        <time>2026-01-01T10:15:03.829Z</time>
      </trkpt>
      <trkpt lat="54.303104" lon="18.412878">
        <ele>162.5</ele>
        <time>2026-01-01T10:15:06.924Z</time>
      </trkpt>
      <trkpt lat="54.303016" lon="18.413245">
        <ele>161.25</ele>
        <time>2026-01-01T10:15:09.942Z</time>
      </trkpt>
      <trkpt lat="54.302902" lon="18.413718">
        <ele>160.5</ele>
        <time>2026-01-01T10:15:14.025Z</time>
      </trkpt>
      <trkpt lat="54.302762" lon="18.414291">
        <ele>160</ele>
        <time>2026-01-01T10:15:19.450Z</time>
      </trkpt>
      <trkpt lat="54.30227" lon="18.416307">
        <ele>160.5</ele>
        <time>2026-01-01T10:15:40.291Z</time>
      </trkpt>
      <trkpt lat="54.302186" lon="18.416601">
        <ele>160.75</ele>
        <time>2026-01-01T10:15:43.455Z</time>
      </trkpt>
      <trkpt lat="54.30208" lon="18.41687">
        <ele>160.5</ele>
        <time>2026-01-01T10:15:46.488Z</time>
      </trkpt>
      <trkpt lat="54.301966" lon="18.417112">
        <ele>160.25</ele>
        <time>2026-01-01T10:15:49.362Z</time>
      </trkpt>
      <trkpt lat="54.301849" lon="18.417312">
        <ele>160</ele>
        <time>2026-01-01T10:15:51.905Z</time>
      </trkpt>
      <trkpt lat="54.301667" lon="18.417551">
        <ele>159.75</ele>
        <time>2026-01-01T10:15:55.370Z</time>
      </trkpt>
      <trkpt lat="54.301524" lon="18.417688">
        <ele>159.25</ele>
        <time>2026-01-01T10:15:57.766Z</time>
      </trkpt>
      <trkpt lat="54.301357" lon="18.417799">
        <ele>158.5</ele>
        <time>2026-01-01T10:16:00.300Z</time>
      </trkpt>
      <trkpt lat="54.301123" lon="18.417923">
        <ele>157.5</ele>
        <time>2026-01-01T10:16:03.598Z</time>
      </trkpt>
      <trkpt lat="54.301059" lon="18.417942">
        <ele>157.25</ele>
        <time>2026-01-01T10:16:04.474Z</time>
      </trkpt>
      <trkpt lat="54.30098" lon="18.417964">
        <ele>156.75</ele>
        <time>2026-01-01T10:16:05.556Z</time>
      </trkpt>
      <trkpt lat="54.30089" lon="18.417974">
        <ele>156.5</ele>
        <time>2026-01-01T10:16:06.838Z</time>
      </trkpt>
      <trkpt lat="54.300809" lon="18.417983">
        <ele>156.25</ele>
        <time>2026-01-01T10:16:08.022Z</time>
      </trkpt>
      <trkpt lat="54.300608" lon="18.417968">
        <ele>156.25</ele>
        <time>2026-01-01T10:16:11.117Z</time>
      </trkpt>
      <trkpt lat="54.300365" lon="18.417908">
        <ele>156.5</ele>
        <time>2026-01-01T10:16:15.056Z</time>
      </trkpt>
      <trkpt lat="54.299962" lon="18.417757">
        <ele>157</ele>
        <time>2026-01-01T10:16:22.062Z</time>
      </trkpt>
      <trkpt lat="54.299712" lon="18.417695">
        <ele>157</ele>
        <time>2026-01-01T10:16:26.330Z</time>
      </trkpt>
      <trkpt lat="54.299487" lon="18.417678">
        <ele>156.75</ele>
        <time>2026-01-01T10:16:29.882Z</time>
      </trkpt>
      <trkpt lat="54.299321" lon="18.417686">
        <ele>156.5</ele>
        <time>2026-01-01T10:16:32.428Z</time>
      </trkpt>
      <trkpt lat="54.299171" lon="18.417711">
        <ele>156.25</ele>
        <time>2026-01-01T10:16:34.586Z</time>
      </trkpt>
      <trkpt lat="54.299005" lon="18.417772">
        <ele>155</ele>
        <time>2026-01-01T10:16:36.927Z</time>
      </trkpt>
      <trkpt lat="54.298657" lon="18.417926">
        <ele>152.75</ele>
        <time>2026-01-01T10:16:41.453Z</time>
      </trkpt>
      <trkpt lat="54.298451" lon="18.418074">
        <ele>151.75</ele>
        <time>2026-01-01T10:16:44.258Z</time>
      </trkpt>
      <trkpt lat="54.298065" lon="18.418468">
        <ele>151</ele>
        <time>2026-01-01T10:16:50.757Z</time>
      </trkpt>
      <trkpt lat="54.297611" lon="18.419066">
        <ele>150.25</ele>
        <time>2026-01-01T10:16:59.502Z</time>
      </trkpt>
      <trkpt lat="54.297455" lon="18.419263">
        <ele>150</ele>
        <time>2026-01-01T10:17:02.593Z</time>
      </trkpt>
      <trkpt lat="54.297315" lon="18.419421">
        <ele>150.5</ele>
        <time>2026-01-01T10:17:05.418Z</time>
      </trkpt>
      <trkpt lat="54.296773" lon="18.419922">
        <ele>152.5</ele>
        <time>2026-01-01T10:17:16.511Z</time>
      </trkpt>
      <trkpt lat="54.296357" lon="18.420294">
        <ele>153.25</ele>
        <time>2026-01-01T10:17:25.039Z</time>
      </trkpt>
      <trkpt lat="54.295958" lon="18.420684">
        <ele>153</ele>
        <time>2026-01-01T10:17:32.728Z</time>
      </trkpt>
      <trkpt lat="54.295245" lon="18.421458">
        <ele>153.5</ele>
        <time>2026-01-01T10:17:46.642Z</time>
      </trkpt>
      <trkpt lat="54.295054" lon="18.421689">
        <ele>154</ele>
        <time>2026-01-01T10:17:50.622Z</time>
      </trkpt>
      <trkpt lat="54.294887" lon="18.421934">
        <ele>154.5</ele>
        <time>2026-01-01T10:17:54.686Z</time>
      </trkpt>
      <trkpt lat="54.294796" lon="18.422099">
        <ele>155.25</ele>
        <time>2026-01-01T10:17:57.178Z</time>
      </trkpt>
      <trkpt lat="54.294669" lon="18.422418">
        <ele>156</ele>
        <time>2026-01-01T10:18:01.417Z</time>
      </trkpt>
      <trkpt lat="54.294512" lon="18.422914">
        <ele>157.75</ele>
        <time>2026-01-01T10:18:07.879Z</time>
      </trkpt>
      <trkpt lat="54.294366" lon="18.423498">
        <ele>159.5</ele>
        <time>2026-01-01T10:18:15.216Z</time>
      </trkpt>
      <trkpt lat="54.29377" lon="18.425772">
        <ele>163.25</ele>
        <time>2026-01-01T10:18:42.140Z</time>
      </trkpt>
      <trkpt lat="54.293012" lon="18.428672">
        <ele>164</ele>
        <time>2026-01-01T10:19:14.296Z</time>
      </trkpt>
      <trkpt lat="54.292774" lon="18.429584">
        <ele>164.5</ele>
        <time>2026-01-01T10:19:24.045Z</time>
      </trkpt>
      <trkpt lat="54.292675" lon="18.429906">
        <ele>164.25</ele>
        <time>2026-01-01T10:19:27.600Z</time>
      </trkpt>
      <trkpt lat="54.292601" lon="18.430094">
        <ele>164.5</ele>
        <time>2026-01-01T10:19:29.846Z</time>
      </trkpt>
      <trkpt lat="54.29243" lon="18.430379">
        <ele>165</ele>
        <time>2026-01-01T10:19:33.745Z</time>
      </trkpt>
      <trkpt lat="54.292483" lon="18.430521">
        <ele>165</ele>
        <time>2026-01-01T10:19:35.287Z</time>
      </trkpt>
      <trkpt lat="54.292563" lon="18.430637">
        <ele>164.5</ele>
        <time>2026-01-01T10:19:36.853Z</time>
      </trkpt>
      <trkpt lat="54.292794" lon="18.430784">
        <ele>163.5</ele>
        <time>2026-01-01T10:19:40.535Z</time>
      </trkpt>
      <trkpt lat="54.292878" lon="18.430848">
        <ele>163</ele>
        <time>2026-01-01T10:19:41.796Z</time>
      </trkpt>
      <trkpt lat="54.293229" lon="18.43125">
        <ele>161</ele>
        <time>2026-01-01T10:19:47.339Z</time>
      </trkpt>
      <trkpt lat="54.293513" lon="18.431717">
        <ele>159</ele>
        <time>2026-01-01T10:19:52.439Z</time>
      </trkpt>
      <trkpt lat="54.293606" lon="18.431832">
        <ele>158.25</ele>
        <time>2026-01-01T10:19:53.927Z</time>
      </trkpt>
      <trkpt lat="54.293693" lon="18.431896">
        <ele>157.75</ele>
        <time>2026-01-01T10:19:55.167Z</time>
      </trkpt>
      <trkpt lat="54.293791" lon="18.431934">
        <ele>157.5</ele>
        <time>2026-01-01T10:19:56.483Z</time>
      </trkpt>
      <trkpt lat="54.293909" lon="18.431951">
        <ele>157</ele>
        <time>2026-01-01T10:19:58.036Z</time>
      </trkpt>
      <trkpt lat="54.29418" lon="18.431978">
        <ele>155.75</ele>
        <time>2026-01-01T10:20:01.596Z</time>
      </trkpt>
      <trkpt lat="54.294382" lon="18.432033">
        <ele>155.25</ele>
        <time>2026-01-01T10:20:04.423Z</time>
      </trkpt>
      <trkpt lat="54.294553" lon="18.432132">
        <ele>154.75</ele>
        <time>2026-01-01T10:20:07.034Z</time>
      </trkpt>
      <trkpt lat="54.294845" lon="18.432387">
        <ele>154.25</ele>
        <time>2026-01-01T10:20:11.889Z</time>
      </trkpt>
      <trkpt lat="54.295076" lon="18.432568">
        <ele>153.75</ele>
        <time>2026-01-01T10:20:15.722Z</time>
      </trkpt>
      <trkpt lat="54.295395" lon="18.43274">
        <ele>153.25</ele>
        <time>2026-01-01T10:20:20.732Z</time>
      </trkpt>
      <trkpt lat="54.295469" lon="18.432793">
        <ele>153</ele>
        <time>2026-01-01T10:20:21.937Z</time>
      </trkpt>
      <trkpt lat="54.296503" lon="18.433527">
        <ele>151</ele>
        <time>2026-01-01T10:20:38.768Z</time>
      </trkpt>
      <trkpt lat="54.297177" lon="18.434042">
        <ele>150.25</ele>
        <time>2026-01-01T10:20:50.031Z</time>
      </trkpt>
      <trkpt lat="54.297466" lon="18.434289">
        <ele>150</ele>
        <time>2026-01-01T10:20:55.086Z</time>
      </trkpt>
      <trkpt lat="54.297614" lon="18.434501">
        <ele>150.25</ele>
        <time>2026-01-01T10:20:58.238Z</time>
      </trkpt>
      <trkpt lat="54.298115" lon="18.435358">
        <ele>151.25</ele>
        <time>2026-01-01T10:21:10.526Z</time>
      </trkpt>
      <trkpt lat="54.298212" lon="18.435581">
        <ele>151.25</ele>
        <time>2026-01-01T10:21:13.205Z</time>
      </trkpt>
      <trkpt lat="54.298243" lon="18.435653">
        <ele>151</ele>
        <time>2026-01-01T10:21:13.992Z</time>
      </trkpt>
      <trkpt lat="54.298375" lon="18.435958">
        <ele>150.5</ele>
        <time>2026-01-01T10:21:17.336Z</time>
      </trkpt>
      <trkpt lat="54.298548" lon="18.436412">
        <ele>149.25</ele>
        <time>2026-01-01T10:21:21.921Z</time>
      </trkpt>
      <trkpt lat="54.298563" lon="18.436449">
        <ele>149.25</ele>
        <time>2026-01-01T10:21:22.292Z</time>
      </trkpt>
      <trkpt lat="54.298777" lon="18.437011">
        <ele>148.25</ele>
        <time>2026-01-01T10:21:27.832Z</time>
      </trkpt>
      <trkpt lat="54.299147" lon="18.438266">
        <ele>148</ele>
        <time>2026-01-01T10:21:40.636Z</time>
      </trkpt>
      <trkpt lat="54.299353" lon="18.439241">
        <ele>147.5</ele>
        <time>2026-01-01T10:21:50.292Z</time>
      </trkpt>
      <trkpt lat="54.299616" lon="18.440629">
        <ele>147.25</ele>
        <time>2026-01-01T10:22:03.889Z</time>
      </trkpt>
      <trkpt lat="54.300154" lon="18.442863">
        <ele>145.25</ele>
        <time>2026-01-01T10:22:25.911Z</time>
      </trkpt>
      <trkpt lat="54.30037" lon="18.443805">
        <ele>144.25</ele>
        <time>2026-01-01T10:22:34.917Z</time>
      </trkpt>
      <trkpt lat="54.300446" lon="18.444091">
        <ele>143.75</ele>
        <time>2026-01-01T10:22:37.651Z</time>
      </trkpt>
      <trkpt lat="54.300511" lon="18.444254">
        <ele>143.5</ele>
        <time>2026-01-01T10:22:39.324Z</time>
      </trkpt>
      <trkpt lat="54.300817" lon="18.444797">
        <ele>142.25</ele>
        <time>2026-01-01T10:22:45.664Z</time>
      </trkpt>
      <trkpt lat="54.301157" lon="18.444694">
        <ele>142.5</ele>
        <time>2026-01-01T10:22:50.985Z</time>
      </trkpt>
      <trkpt lat="54.301649" lon="18.444544">
        <ele>143</ele>
        <time>2026-01-01T10:22:59.478Z</time>
      </trkpt>
      <trkpt lat="54.301812" lon="18.444563">
        <ele>143</ele>
        <time>2026-01-01T10:23:02.238Z</time>
      </trkpt>
      <trkpt lat="54.302095" lon="18.444738">
        <ele>142.75</ele>
        <time>2026-01-01T10:23:07.057Z</time>
      </trkpt>
      <trkpt lat="54.302188" lon="18.444783">
        <ele>142.75</ele>
        <time>2026-01-01T10:23:08.663Z</time>
      </trkpt>
      <trkpt lat="54.302325" lon="18.444778">
        <ele>143</ele>
        <time>2026-01-01T10:23:10.941Z</time>
      </trkpt>
      <trkpt lat="54.302441" lon="18.444743">
        <ele>143.25</ele>
        <time>2026-01-01T10:23:12.988Z</time>
      </trkpt>
      <trkpt lat="54.30334" lon="18.444385">
        <ele>141.5</ele>
        <time>2026-01-01T10:23:27.409Z</time>
      </trkpt>
      <trkpt lat="54.303583" lon="18.44428">
        <ele>141.25</ele>
        <time>2026-01-01T10:23:31.193Z</time>
      </trkpt>
      <trkpt lat="54.303583" lon="18.44428">
        <ele>141.25</ele>
        <time>2026-01-01T10:23:31.193Z</time>
      </trkpt>
      <trkpt lat="54.305029" lon="18.443662">
        <ele>140</ele>
        <time>2026-01-01T10:23:54.609Z</time>
      </trkpt>
      <trkpt lat="54.306769" lon="18.442967">
        <ele>133.25</ele>
        <time>2026-01-01T10:24:20.656Z</time>
      </trkpt>
      <trkpt lat="54.307456" lon="18.44275">
        <ele>127</ele>
        <time>2026-01-01T10:24:29.570Z</time>
      </trkpt>
      <trkpt lat="54.307564" lon="18.442714">
        <ele>126.25</ele>
        <time>2026-01-01T10:24:30.782Z</time>
      </trkpt>
      <trkpt lat="54.307972" lon="18.442582">
        <ele>124</ele>
        <time>2026-01-01T10:24:35.964Z</time>
      </trkpt>
      <trkpt lat="54.308286" lon="18.442521">
        <ele>122.25</ele>
        <time>2026-01-01T10:24:39.952Z</time>
      </trkpt>
      <trkpt lat="54.308933" lon="18.442407">
        <ele>125.5</ele>
        <time>2026-01-01T10:24:51.320Z</time>
      </trkpt>
      <trkpt lat="54.309177" lon="18.442357">
        <ele>127</ele>
        <time>2026-01-01T10:24:56.227Z</time>
      </trkpt>
      <trkpt lat="54.3097" lon="18.442252">
        <ele>128</ele>
        <time>2026-01-01T10:25:06.052Z</time>
      </trkpt>
      <trkpt lat="54.309945" lon="18.442202">
        <ele>128.5</ele>
        <time>2026-01-01T10:25:10.452Z</time>
      </trkpt>
      <trkpt lat="54.310145" lon="18.442167">
        <ele>129</ele>
        <time>2026-01-01T10:25:14.067Z</time>
      </trkpt>
      <trkpt lat="54.31025" lon="18.442144">
        <ele>129.25</ele>
        <time>2026-01-01T10:25:15.995Z</time>
      </trkpt>
      <trkpt lat="54.310403" lon="18.442117">
        <ele>129.75</ele>
        <time>2026-01-01T10:25:18.804Z</time>
      </trkpt>
      <trkpt lat="54.310515" lon="18.442095">
        <ele>130</ele>
        <time>2026-01-01T10:25:20.868Z</time>
      </trkpt>
      <trkpt lat="54.310563" lon="18.442085">
        <ele>130.25</ele>
        <time>2026-01-01T10:25:21.753Z</time>
      </trkpt>
      <trkpt lat="54.310599" lon="18.442079">
        <ele>130.25</ele>
        <time>2026-01-01T10:25:22.415Z</time>
      </trkpt>
      <trkpt lat="54.311609" lon="18.44191">
        <ele>135.75</ele>
        <time>2026-01-01T10:25:42.349Z</time>
      </trkpt>
      <trkpt lat="54.312421" lon="18.441755">
        <ele>130</ele>
        <time>2026-01-01T10:25:55.621Z</time>
      </trkpt>
      <trkpt lat="54.312728" lon="18.441697">
        <ele>130</ele>
        <time>2026-01-01T10:25:59.585Z</time>
      </trkpt>
      <trkpt lat="54.313339" lon="18.441608">
        <ele>125</ele>
        <time>2026-01-01T10:26:07.340Z</time>
      </trkpt>
      <trkpt lat="54.313701" lon="18.441604">
        <ele>120.5</ele>
        <time>2026-01-01T10:26:11.172Z</time>
      </trkpt>
      <trkpt lat="54.313822" lon="18.441622">
        <ele>119</ele>
        <time>2026-01-01T10:26:12.367Z</time>
      </trkpt>
      <trkpt lat="54.313912" lon="18.441649">
        <ele>118</ele>
        <time>2026-01-01T10:26:13.297Z</time>
      </trkpt>
      <trkpt lat="54.314014" lon="18.44171">
        <ele>116.75</ele>
        <time>2026-01-01T10:26:14.396Z</time>
      </trkpt>
      <trkpt lat="54.314125" lon="18.441847">
        <ele>115.5</ele>
        <time>2026-01-01T10:26:15.788Z</time>
      </trkpt>
      <trkpt lat="54.314432" lon="18.442266">
        <ele>114</ele>
        <time>2026-01-01T10:26:20.440Z</time>
      </trkpt>
      <trkpt lat="54.314721" lon="18.442655">
        <ele>112.25</ele>
        <time>2026-01-01T10:26:25.344Z</time>
      </trkpt>
      <trkpt lat="54.315062" lon="18.443114">
        <ele>110.25</ele>
        <time>2026-01-01T10:26:31.020Z</time>
      </trkpt>
      <trkpt lat="54.315353" lon="18.443451">
        <ele>110.25</ele>
        <time>2026-01-01T10:26:36.113Z</time>
      </trkpt>
      <trkpt lat="54.315514" lon="18.44357">
        <ele>110.5</ele>
        <time>2026-01-01T10:26:39.024Z</time>
      </trkpt>
      <trkpt lat="54.315611" lon="18.443557">
        <ele>110.5</ele>
        <time>2026-01-01T10:26:40.690Z</time>
      </trkpt>
      <trkpt lat="54.315624" lon="18.443698">
        <ele>110.5</ele>
        <time>2026-01-01T10:26:42.098Z</time>
      </trkpt>
      <trkpt lat="54.315647" lon="18.443881">
        <ele>110.75</ele>
        <time>2026-01-01T10:26:43.907Z</time>
      </trkpt>
      <trkpt lat="54.31571" lon="18.444157">
        <ele>110.75</ele>
        <time>2026-01-01T10:26:46.732Z</time>
      </trkpt>
      <trkpt lat="54.315783" lon="18.444408">
        <ele>110.5</ele>
        <time>2026-01-01T10:26:49.364Z</time>
      </trkpt>
      <trkpt lat="54.315885" lon="18.444692">
        <ele>110.25</ele>
        <time>2026-01-01T10:26:52.417Z</time>
      </trkpt>
      <trkpt lat="54.316" lon="18.444989">
        <ele>109.75</ele>
        <time>2026-01-01T10:26:55.548Z</time>
      </trkpt>
      <trkpt lat="54.316272" lon="18.445546">
        <ele>108.75</ele>
        <time>2026-01-01T10:27:01.822Z</time>
      </trkpt>
      <trkpt lat="54.31685" lon="18.446561">
        <ele>105.75</ele>
        <time>2026-01-01T10:27:13.453Z</time>
      </trkpt>
      <trkpt lat="54.317177" lon="18.447155">
        <ele>104</ele>
        <time>2026-01-01T10:27:20.008Z</time>
      </trkpt>
      <trkpt lat="54.317315" lon="18.447428">
        <ele>103.5</ele>
        <time>2026-01-01T10:27:22.903Z</time>
      </trkpt>
      <trkpt lat="54.317404" lon="18.447637">
        <ele>102.75</ele>
        <time>2026-01-01T10:27:24.977Z</time>
      </trkpt>
      <trkpt lat="54.317433" lon="18.447702">
        <ele>102.5</ele>
        <time>2026-01-01T10:27:25.629Z</time>
      </trkpt>
      <trkpt lat="54.317641" lon="18.448187">
        <ele>101.25</ele>
        <time>2026-01-01T10:27:30.429Z</time>
      </trkpt>
      <trkpt lat="54.317661" lon="18.448234">
        <ele>101</ele>
        <time>2026-01-01T10:27:30.983Z</time>
      </trkpt>
      <trkpt lat="54.317763" lon="18.448482">
        <ele>101.5</ele>
        <time>2026-01-01T10:27:33.876Z</time>
      </trkpt>
      <trkpt lat="54.317885" lon="18.448791">
        <ele>102.75</ele>
        <time>2026-01-01T10:27:37.975Z</time>
      </trkpt>
      <trkpt lat="54.318098" lon="18.449399">
        <ele>105</ele>
        <time>2026-01-01T10:27:46.022Z</time>
      </trkpt>
      <trkpt lat="54.318176" lon="18.449623">
        <ele>105.75</ele>
        <time>2026-01-01T10:27:49.054Z</time>
      </trkpt>
      <trkpt lat="54.31827" lon="18.449923">
        <ele>106.75</ele>
        <time>2026-01-01T10:27:52.954Z</time>
      </trkpt>
      <trkpt lat="54.318339" lon="18.4502">
        <ele>107.5</ele>
        <time>2026-01-01T10:27:56.461Z</time>
      </trkpt>
      <trkpt lat="54.318386" lon="18.450502">
        <ele>108.75</ele>
        <time>2026-01-01T10:28:00.132Z</time>
      </trkpt>
      <trkpt lat="54.318404" lon="18.450773">
        <ele>109.75</ele>
        <time>2026-01-01T10:28:03.373Z</time>
      </trkpt>
      <trkpt lat="54.318406" lon="18.4511">
        <ele>111</ele>
        <time>2026-01-01T10:28:07.302Z</time>
      </trkpt>
      <trkpt lat="54.318393" lon="18.451388">
        <ele>112</ele>
        <time>2026-01-01T10:28:10.750Z</time>
      </trkpt>
      <trkpt lat="54.318349" lon="18.45167">
        <ele>113</ele>
        <time>2026-01-01T10:28:14.083Z</time>
      </trkpt>
      <trkpt lat="54.318293" lon="18.451943">
        <ele>113</ele>
        <time>2026-01-01T10:28:17.249Z</time>
      </trkpt>
      <trkpt lat="54.318212" lon="18.452173">
        <ele>113.25</ele>
        <time>2026-01-01T10:28:20.052Z</time>
      </trkpt>
      <trkpt lat="54.318084" lon="18.452457">
        <ele>113.5</ele>
        <time>2026-01-01T10:28:23.617Z</time>
      </trkpt>
      <trkpt lat="54.317822" lon="18.452926">
        <ele>114</ele>
        <time>2026-01-01T10:28:30.180Z</time>
      </trkpt>
      <trkpt lat="54.317293" lon="18.453765">
        <ele>115</ele>
        <time>2026-01-01T10:28:42.678Z</time>
      </trkpt>
      <trkpt lat="54.317194" lon="18.453917">
        <ele>115</ele>
        <time>2026-01-01T10:28:44.964Z</time>
      </trkpt>
      <trkpt lat="54.316867" lon="18.454424">
        <ele>116</ele>
        <time>2026-01-01T10:28:52.730Z</time>
      </trkpt>
      <trkpt lat="54.316587" lon="18.454804">
        <ele>117</ele>
        <time>2026-01-01T10:28:59.213Z</time>
      </trkpt>
      <trkpt lat="54.316129" lon="18.455419">
        <ele>117.75</ele>
        <time>2026-01-01T10:29:09.511Z</time>
      </trkpt>
      <trkpt lat="54.315863" lon="18.455768">
        <ele>118</ele>
        <time>2026-01-01T10:29:15.253Z</time>
      </trkpt>
      <trkpt lat="54.315672" lon="18.456044">
        <ele>116.75</ele>
        <time>2026-01-01T10:29:19.024Z</time>
      </trkpt>
      <trkpt lat="54.315528" lon="18.456288">
        <ele>115.75</ele>
        <time>2026-01-01T10:29:21.638Z</time>
      </trkpt>
      <trkpt lat="54.315364" lon="18.456635">
        <ele>114.25</ele>
        <time>2026-01-01T10:29:24.936Z</time>
      </trkpt>
      <trkpt lat="54.315209" lon="18.457009">
        <ele>114.5</ele>
        <time>2026-01-01T10:29:28.851Z</time>
      </trkpt>
      <trkpt lat="54.314884" lon="18.457915">
        <ele>116.5</ele>
        <time>2026-01-01T10:29:40.127Z</time>
      </trkpt>
      <trkpt lat="54.314826" lon="18.458099">
        <ele>116.75</ele>
        <time>2026-01-01T10:29:42.356Z</time>
      </trkpt>
      <trkpt lat="54.314757" lon="18.458408">
        <ele>117</ele>
        <time>2026-01-01T10:29:45.734Z</time>
      </trkpt>
      <trkpt lat="54.314637" lon="18.459008">
        <ele>118.25</ele>
        <time>2026-01-01T10:29:52.464Z</time>
      </trkpt>
      <trkpt lat="54.314544" lon="18.45968">
        <ele>120</ele>
        <time>2026-01-01T10:30:00.153Z</time>
      </trkpt>
      <trkpt lat="54.314524" lon="18.459921">
        <ele>120.5</ele>
        <time>2026-01-01T10:30:02.806Z</time>
      </trkpt>
      <trkpt lat="54.314519" lon="18.460209">
        <ele>121</ele>
        <time>2026-01-01T10:30:05.833Z</time>
      </trkpt>
      <trkpt lat="54.314522" lon="18.460423">
        <ele>121</ele>
        <time>2026-01-01T10:30:08.082Z</time>
      </trkpt>
      <trkpt lat="54.314577" lon="18.461737">
        <ele>121</ele>
        <time>2026-01-01T10:30:21.111Z</time>
      </trkpt>
      <trkpt lat="54.314619" lon="18.46274">
        <ele>121.75</ele>
        <time>2026-01-01T10:30:30.937Z</time>
      </trkpt>
      <trkpt lat="54.314624" lon="18.463117">
        <ele>122</ele>
        <time>2026-01-01T10:30:34.610Z</time>
      </trkpt>
      <trkpt lat="54.314618" lon="18.463501">
        <ele>121.5</ele>
        <time>2026-01-01T10:30:37.954Z</time>
      </trkpt>
      <trkpt lat="54.314607" lon="18.463616">
        <ele>120.75</ele>
        <time>2026-01-01T10:30:38.912Z</time>
      </trkpt>
      <trkpt lat="54.314534" lon="18.464015">
        <ele>119.5</ele>
        <time>2026-01-01T10:30:42.122Z</time>
      </trkpt>
      <trkpt lat="54.314483" lon="18.464202">
        <ele>119</ele>
        <time>2026-01-01T10:30:43.719Z</time>
      </trkpt>
      <trkpt lat="54.314424" lon="18.464402">
        <ele>118.5</ele>
        <time>2026-01-01T10:30:45.533Z</time>
      </trkpt>
      <trkpt lat="54.314323" lon="18.464647">
        <ele>118.25</ele>
        <time>2026-01-01T10:30:48.163Z</time>
      </trkpt>
      <trkpt lat="54.314233" lon="18.464805">
        <ele>118.5</ele>
        <time>2026-01-01T10:30:50.099Z</time>
      </trkpt>
      <trkpt lat="54.313866" lon="18.465287">
        <ele>120.5</ele>
        <time>2026-01-01T10:30:58.219Z</time>
      </trkpt>
      <trkpt lat="54.313816" lon="18.465388">
        <ele>120.5</ele>
        <time>2026-01-01T10:30:59.558Z</time>
      </trkpt>
      <trkpt lat="54.313783" lon="18.4655">
        <ele>120.5</ele>
        <time>2026-01-01T10:31:00.567Z</time>
      </trkpt>
      <trkpt lat="54.31377" lon="18.46558">
        <ele>120</ele>
        <time>2026-01-01T10:31:01.118Z</time>
      </trkpt>
      <trkpt lat="54.313764" lon="18.465716">
        <ele>119.5</ele>
        <time>2026-01-01T10:31:02.023Z</time>
      </trkpt>
      <trkpt lat="54.313773" lon="18.466169">
        <ele>116.25</ele>
        <time>2026-01-01T10:31:05.033Z</time>
      </trkpt>
      <trkpt lat="54.31382" lon="18.46825">
        <ele>112.75</ele>
        <time>2026-01-01T10:31:20.835Z</time>
      </trkpt>
      <trkpt lat="54.313859" lon="18.469487">
        <ele>112.5</ele>
        <time>2026-01-01T10:31:31.629Z</time>
      </trkpt>
      <trkpt lat="54.313879" lon="18.46984">
        <ele>112.5</ele>
        <time>2026-01-01T10:31:34.969Z</time>
      </trkpt>
      <trkpt lat="54.313931" lon="18.470504">
        <ele>112</ele>
        <time>2026-01-01T10:31:41.117Z</time>
      </trkpt>
      <trkpt lat="54.313945" lon="18.47068">
        <ele>111.75</ele>
        <time>2026-01-01T10:31:42.736Z</time>
      </trkpt>
      <trkpt lat="54.313975" lon="18.471151">
        <ele>111.75</ele>
        <time>2026-01-01T10:31:47.120Z</time>
      </trkpt>
      <trkpt lat="54.313997" lon="18.471453">
        <ele>111.75</ele>
        <time>2026-01-01T10:31:49.963Z</time>
      </trkpt>
      <trkpt lat="54.314034" lon="18.472212">
        <ele>112.25</ele>
        <time>2026-01-01T10:31:57.487Z</time>
      </trkpt>
      <trkpt lat="54.314064" lon="18.472406">
        <ele>112.25</ele>
        <time>2026-01-01T10:31:59.477Z</time>
      </trkpt>
      <trkpt lat="54.314256" lon="18.473051">
        <ele>112.5</ele>
        <time>2026-01-01T10:32:06.525Z</time>
      </trkpt>
      <trkpt lat="54.314401" lon="18.473494">
        <ele>112.25</ele>
        <time>2026-01-01T10:32:11.368Z</time>
      </trkpt>
      <trkpt lat="54.314502" lon="18.47386">
        <ele>112.5</ele>
        <time>2026-01-01T10:32:15.358Z</time>
      </trkpt>
      <trkpt lat="54.314544" lon="18.474081">
        <ele>113</ele>
        <time>2026-01-01T10:32:17.773Z</time>
      </trkpt>
      <trkpt lat="54.314657" lon="18.474872">
        <ele>115</ele>
        <time>2026-01-01T10:32:26.640Z</time>
      </trkpt>
      <trkpt lat="54.314848" lon="18.476065">
        <ele>112.75</ele>
        <time>2026-01-01T10:32:38.324Z</time>
      </trkpt>
      <trkpt lat="54.315074" lon="18.477367">
        <ele>110.25</ele>
        <time>2026-01-01T10:32:49.495Z</time>
      </trkpt>
      <trkpt lat="54.315095" lon="18.477477">
        <ele>110</ele>
        <time>2026-01-01T10:32:50.458Z</time>
      </trkpt>
      <trkpt lat="54.315151" lon="18.477768">
        <ele>109.75</ele>
        <time>2026-01-01T10:32:53.115Z</time>
      </trkpt>
      <trkpt lat="54.315371" lon="18.478824">
        <ele>110.25</ele>
        <time>2026-01-01T10:33:03.806Z</time>
      </trkpt>
      <trkpt lat="54.31545" lon="18.479251">
        <ele>111</ele>
        <time>2026-01-01T10:33:08.373Z</time>
      </trkpt>
      <trkpt lat="54.315462" lon="18.479332">
        <ele>111.25</ele>
        <time>2026-01-01T10:33:09.286Z</time>
      </trkpt>
      <trkpt lat="54.315546" lon="18.479804">
        <ele>112.25</ele>
        <time>2026-01-01T10:33:14.678Z</time>
      </trkpt>
      <trkpt lat="54.315701" lon="18.480606">
        <ele>111.5</ele>
        <time>2026-01-01T10:33:22.951Z</time>
      </trkpt>
      <trkpt lat="54.316181" lon="18.483093">
        <ele>111.75</ele>
        <time>2026-01-01T10:33:47.649Z</time>
      </trkpt>
      <trkpt lat="54.316336" lon="18.483918">
        <ele>114.5</ele>
        <time>2026-01-01T10:33:56.457Z</time>
      </trkpt>
      <trkpt lat="54.316382" lon="18.484146">
        <ele>115.5</ele>
        <time>2026-01-01T10:33:59.308Z</time>
      </trkpt>
      <trkpt lat="54.316494" lon="18.484865">
        <ele>119</ele>
        <time>2026-01-01T10:34:08.556Z</time>
      </trkpt>
      <trkpt lat="54.316764" lon="18.486674">
        <ele>119.25</ele>
        <time>2026-01-01T10:34:28.298Z</time>
      </trkpt>
      <trkpt lat="54.316904" lon="18.48766">
        <ele>117.75</ele>
        <time>2026-01-01T10:34:37.650Z</time>
      </trkpt>
      <trkpt lat="54.316961" lon="18.488037">
        <ele>118</ele>
        <time>2026-01-01T10:34:41.109Z</time>
      </trkpt>
      <trkpt lat="54.31704" lon="18.48847">
        <ele>119.25</ele>
        <time>2026-01-01T10:34:46.329Z</time>
      </trkpt>
      <trkpt lat="54.317101" lon="18.488746">
        <ele>121</ele>
        <time>2026-01-01T10:34:50.019Z</time>
      </trkpt>
      <trkpt lat="54.317157" lon="18.488953">
        <ele>122.5</ele>
        <time>2026-01-01T10:34:52.872Z</time>
      </trkpt>
      <trkpt lat="54.317222" lon="18.489162">
        <ele>123.75</ele>
        <time>2026-01-01T10:34:55.956Z</time>
      </trkpt>
      <trkpt lat="54.317381" lon="18.489557">
        <ele>126.75</ele>
        <time>2026-01-01T10:35:02.205Z</time>
      </trkpt>
      <trkpt lat="54.317552" lon="18.489945">
        <ele>129.75</ele>
        <time>2026-01-01T10:35:08.534Z</time>
      </trkpt>
      <trkpt lat="54.317712" lon="18.490242">
        <ele>133</ele>
        <time>2026-01-01T10:35:13.899Z</time>
      </trkpt>
      <trkpt lat="54.317804" lon="18.490425">
        <ele>134.5</ele>
        <time>2026-01-01T10:35:17.105Z</time>
      </trkpt>
      <trkpt lat="54.317947" lon="18.490711">
        <ele>136.75</ele>
        <time>2026-01-01T10:35:22.104Z</time>
      </trkpt>
      <trkpt lat="54.318738" lon="18.492235">
        <ele>141.5</ele>
        <time>2026-01-01T10:35:45.993Z</time>
      </trkpt>
      <trkpt lat="54.3188" lon="18.492389">
        <ele>141.75</ele>
        <time>2026-01-01T10:35:48.065Z</time>
      </trkpt>
      <trkpt lat="54.318831" lon="18.4925">
        <ele>141.75</ele>
        <time>2026-01-01T10:35:49.375Z</time>
      </trkpt>
      <trkpt lat="54.318871" lon="18.492661">
        <ele>142.25</ele>
        <time>2026-01-01T10:35:51.257Z</time>
      </trkpt>
      <trkpt lat="54.318976" lon="18.493171">
        <ele>143.25</ele>
        <time>2026-01-01T10:35:57.075Z</time>
      </trkpt>
      <trkpt lat="54.319024" lon="18.493424">
        <ele>143.5</ele>
        <time>2026-01-01T10:35:59.714Z</time>
      </trkpt>
      <trkpt lat="54.31911" lon="18.493832">
        <ele>142.5</ele>
        <time>2026-01-01T10:36:03.511Z</time>
      </trkpt>
      <trkpt lat="54.319219" lon="18.494311">
        <ele>141.75</ele>
        <time>2026-01-01T10:36:07.931Z</time>
      </trkpt>
      <trkpt lat="54.319257" lon="18.494436">
        <ele>141.5</ele>
        <time>2026-01-01T10:36:09.133Z</time>
      </trkpt>
      <trkpt lat="54.319306" lon="18.494554">
        <ele>141.25</ele>
        <time>2026-01-01T10:36:10.368Z</time>
      </trkpt>
      <trkpt lat="54.319414" lon="18.494766">
        <ele>141</ele>
        <time>2026-01-01T10:36:12.781Z</time>
      </trkpt>
      <trkpt lat="54.319767" lon="18.495273">
        <ele>138</ele>
        <time>2026-01-01T10:36:18.794Z</time>
      </trkpt>
      <trkpt lat="54.320191" lon="18.495962">
        <ele>132.5</ele>
        <time>2026-01-01T10:36:25.362Z</time>
      </trkpt>
      <trkpt lat="54.320238" lon="18.496055">
        <ele>132</ele>
        <time>2026-01-01T10:36:26.111Z</time>
      </trkpt>
      <trkpt lat="54.320279" lon="18.496172">
        <ele>131</ele>
        <time>2026-01-01T10:36:26.913Z</time>
      </trkpt>
      <trkpt lat="54.320306" lon="18.496285">
        <ele>130.25</ele>
        <time>2026-01-01T10:36:27.630Z</time>
      </trkpt>
      <trkpt lat="54.320326" lon="18.496416">
        <ele>129.25</ele>
        <time>2026-01-01T10:36:28.430Z</time>
      </trkpt>
      <trkpt lat="54.320334" lon="18.496545">
        <ele>128.25</ele>
        <time>2026-01-01T10:36:29.196Z</time>
      </trkpt>
      <trkpt lat="54.320353" lon="18.497019">
        <ele>125.25</ele>
        <time>2026-01-01T10:36:32.004Z</time>
      </trkpt>
      <trkpt lat="54.320354" lon="18.497474">
        <ele>122.75</ele>
        <time>2026-01-01T10:36:34.720Z</time>
      </trkpt>
      <trkpt lat="54.320321" lon="18.49794">
        <ele>119.5</ele>
        <time>2026-01-01T10:36:37.521Z</time>
      </trkpt>
      <trkpt lat="54.3203" lon="18.498208">
        <ele>117.75</ele>
        <time>2026-01-01T10:36:39.133Z</time>
      </trkpt>
      <trkpt lat="54.320286" lon="18.49842">
        <ele>116.75</ele>
        <time>2026-01-01T10:36:40.489Z</time>
      </trkpt>
      <trkpt lat="54.320263" lon="18.49871">
        <ele>116.25</ele>
        <time>2026-01-01T10:36:42.666Z</time>
      </trkpt>
      <trkpt lat="54.320209" lon="18.49902">
        <ele>115.75</ele>
        <time>2026-01-01T10:36:45.269Z</time>
      </trkpt>
      <trkpt lat="54.320177" lon="18.499135">
        <ele>115.75</ele>
        <time>2026-01-01T10:36:46.382Z</time>
      </trkpt>
      <trkpt lat="54.31999" lon="18.499684">
        <ele>115.25</ele>
        <time>2026-01-01T10:36:51.939Z</time>
      </trkpt>
      <trkpt lat="54.319886" lon="18.499985">
        <ele>115</ele>
        <time>2026-01-01T10:36:55.131Z</time>
      </trkpt>
      <trkpt lat="54.319839" lon="18.500203">
        <ele>115</ele>
        <time>2026-01-01T10:36:57.269Z</time>
      </trkpt>
      <trkpt lat="54.319828" lon="18.500434">
        <ele>115</ele>
        <time>2026-01-01T10:36:59.401Z</time>
      </trkpt>
      <trkpt lat="54.319855" lon="18.500727">
        <ele>114.75</ele>
        <time>2026-01-01T10:37:02.140Z</time>
      </trkpt>
      <trkpt lat="54.319951" lon="18.501166">
        <ele>114.5</ele>
        <time>2026-01-01T10:37:06.424Z</time>
      </trkpt>
      <trkpt lat="54.319987" lon="18.501316">
        <ele>114.25</ele>
        <time>2026-01-01T10:37:07.860Z</time>
      </trkpt>
      <trkpt lat="54.320056" lon="18.501606">
        <ele>113.75</ele>
        <time>2026-01-01T10:37:10.630Z</time>
      </trkpt>
      <trkpt lat="54.320081" lon="18.501706">
        <ele>113.75</ele>
        <time>2026-01-01T10:37:11.575Z</time>
      </trkpt>
      <trkpt lat="54.320131" lon="18.501967">
        <ele>113.5</ele>
        <time>2026-01-01T10:37:13.961Z</time>
      </trkpt>
      <trkpt lat="54.320328" lon="18.503219">
        <ele>113.5</ele>
        <time>2026-01-01T10:37:25.965Z</time>
      </trkpt>
      <trkpt lat="54.320353" lon="18.503286">
        <ele>113.5</ele>
        <time>2026-01-01T10:37:26.730Z</time>
      </trkpt>
      <trkpt lat="54.320588" lon="18.503796">
        <ele>113.75</ele>
        <time>2026-01-01T10:37:33.089Z</time>
      </trkpt>
      <trkpt lat="54.320825" lon="18.504239">
        <ele>114</ele>
        <time>2026-01-01T10:37:39.116Z</time>
      </trkpt>
      <trkpt lat="54.320885" lon="18.504354">
        <ele>114.5</ele>
        <time>2026-01-01T10:37:40.801Z</time>
      </trkpt>
      <trkpt lat="54.320988" lon="18.50454">
        <ele>115.25</ele>
        <time>2026-01-01T10:37:43.602Z</time>
      </trkpt>
      <trkpt lat="54.321095" lon="18.50474">
        <ele>116.25</ele>
        <time>2026-01-01T10:37:46.812Z</time>
      </trkpt>
      <trkpt lat="54.321288" lon="18.505105">
        <ele>118</ele>
        <time>2026-01-01T10:37:52.299Z</time>
      </trkpt>
      <trkpt lat="54.321266" lon="18.505152">
        <ele>117.75</ele>
        <time>2026-01-01T10:37:52.957Z</time>
      </trkpt>
      <trkpt lat="54.321225" lon="18.505239">
        <ele>117.5</ele>
        <time>2026-01-01T10:37:54.131Z</time>
      </trkpt>
      <trkpt lat="54.321206" lon="18.505316">
        <ele>117.25</ele>
        <time>2026-01-01T10:37:55.009Z</time>
      </trkpt>
      <trkpt lat="54.321047" lon="18.506184">
        <ele>114.75</ele>
        <time>2026-01-01T10:38:03.081Z</time>
      </trkpt>
      <trkpt lat="54.320971" lon="18.506669">
        <ele>113.25</ele>
        <time>2026-01-01T10:38:06.884Z</time>
      </trkpt>
      <trkpt lat="54.32089" lon="18.507255">
        <ele>111.5</ele>
        <time>2026-01-01T10:38:11.405Z</time>
      </trkpt>
      <trkpt lat="54.320829" lon="18.507661">
        <ele>110.75</ele>
        <time>2026-01-01T10:38:14.791Z</time>
      </trkpt>
      <trkpt lat="54.320791" lon="18.507885">
        <ele>110.5</ele>
        <time>2026-01-01T10:38:16.813Z</time>
      </trkpt>
      <trkpt lat="54.32077" lon="18.507968">
        <ele>110.5</ele>
        <time>2026-01-01T10:38:17.607Z</time>
      </trkpt>
      <trkpt lat="54.320726" lon="18.508089">
        <ele>110.25</ele>
        <time>2026-01-01T10:38:18.859Z</time>
      </trkpt>
      <trkpt lat="54.320667" lon="18.508224">
        <ele>110.25</ele>
        <time>2026-01-01T10:38:20.415Z</time>
      </trkpt>
      <trkpt lat="54.320604" lon="18.508344">
        <ele>110.25</ele>
        <time>2026-01-01T10:38:21.930Z</time>
      </trkpt>
      <trkpt lat="54.320429" lon="18.508614">
        <ele>110.25</ele>
        <time>2026-01-01T10:38:25.777Z</time>
      </trkpt>
      <trkpt lat="54.320395" lon="18.508665">
        <ele>110.5</ele>
        <time>2026-01-01T10:38:26.536Z</time>
      </trkpt>
      <trkpt lat="54.320227" lon="18.508922">
        <ele>110.5</ele>
        <time>2026-01-01T10:38:30.337Z</time>
      </trkpt>
      <trkpt lat="54.320171" lon="18.509019">
        <ele>110.75</ele>
        <time>2026-01-01T10:38:31.681Z</time>
      </trkpt>
      <trkpt lat="54.320076" lon="18.509211">
        <ele>110.75</ele>
        <time>2026-01-01T10:38:34.150Z</time>
      </trkpt>
      <trkpt lat="54.320038" lon="18.50931">
        <ele>110.75</ele>
        <time>2026-01-01T10:38:35.299Z</time>
      </trkpt>
      <trkpt lat="54.320009" lon="18.509401">
        <ele>110.75</ele>
        <time>2026-01-01T10:38:36.304Z</time>
      </trkpt>
      <trkpt lat="54.319992" lon="18.509487">
        <ele>110.75</ele>
        <time>2026-01-01T10:38:37.184Z</time>
      </trkpt>
      <trkpt lat="54.319984" lon="18.509653">
        <ele>110.75</ele>
        <time>2026-01-01T10:38:38.799Z</time>
      </trkpt>
      <trkpt lat="54.319987" lon="18.509879">
        <ele>110.75</ele>
        <time>2026-01-01T10:38:41.015Z</time>
      </trkpt>
      <trkpt lat="54.319991" lon="18.510277">
        <ele>111.25</ele>
        <time>2026-01-01T10:38:44.961Z</time>
      </trkpt>
      <trkpt lat="54.319994" lon="18.510615">
        <ele>111.5</ele>
        <time>2026-01-01T10:38:48.456Z</time>
      </trkpt>
      <trkpt lat="54.320001" lon="18.510795">
        <ele>111.75</ele>
        <time>2026-01-01T10:38:50.352Z</time>
      </trkpt>
      <trkpt lat="54.320018" lon="18.511003">
        <ele>112.25</ele>
        <time>2026-01-01T10:38:52.564Z</time>
      </trkpt>
      <trkpt lat="54.32008" lon="18.511343">
        <ele>112.75</ele>
        <time>2026-01-01T10:38:56.316Z</time>
      </trkpt>
      <trkpt lat="54.320178" lon="18.511815">
        <ele>113.5</ele>
        <time>2026-01-01T10:39:01.621Z</time>
      </trkpt>
      <trkpt lat="54.320195" lon="18.511932">
        <ele>113.5</ele>
        <time>2026-01-01T10:39:02.860Z</time>
      </trkpt>
      <trkpt lat="54.320216" lon="18.512092">
        <ele>113.5</ele>
        <time>2026-01-01T10:39:04.556Z</time>
      </trkpt>
      <trkpt lat="54.320229" lon="18.51225">
        <ele>113.75</ele>
        <time>2026-01-01T10:39:06.191Z</time>
      </trkpt>
      <trkpt lat="54.320228" lon="18.512519">
        <ele>114</ele>
        <time>2026-01-01T10:39:08.948Z</time>
      </trkpt>
      <trkpt lat="54.320215" lon="18.512646">
        <ele>114.25</ele>
        <time>2026-01-01T10:39:10.293Z</time>
      </trkpt>
      <trkpt lat="54.320194" lon="18.512815">
        <ele>114.5</ele>
        <time>2026-01-01T10:39:12.109Z</time>
      </trkpt>
      <trkpt lat="54.320121" lon="18.513195">
        <ele>115.25</ele>
        <time>2026-01-01T10:39:16.369Z</time>
      </trkpt>
      <trkpt lat="54.319926" lon="18.514061">
        <ele>115.25</ele>
        <time>2026-01-01T10:39:25.739Z</time>
      </trkpt>
      <trkpt lat="54.319835" lon="18.514465">
        <ele>114.75</ele>
        <time>2026-01-01T10:39:29.760Z</time>
      </trkpt>
      <trkpt lat="54.319816" lon="18.514578">
        <ele>114.75</ele>
        <time>2026-01-01T10:39:30.803Z</time>
      </trkpt>
      <trkpt lat="54.319747" lon="18.515325">
        <ele>114.75</ele>
        <time>2026-01-01T10:39:37.800Z</time>
      </trkpt>
      <trkpt lat="54.319704" lon="18.515817">
        <ele>115.5</ele>
        <time>2026-01-01T10:39:42.760Z</time>
      </trkpt>
      <trkpt lat="54.319638" lon="18.516579">
        <ele>118</ele>
        <time>2026-01-01T10:39:51.484Z</time>
      </trkpt>
      <trkpt lat="54.319601" lon="18.517195">
        <ele>118.5</ele>
        <time>2026-01-01T10:39:58.335Z</time>
      </trkpt>
      <trkpt lat="54.319584" lon="18.51757">
        <ele>119</ele>
        <time>2026-01-01T10:40:02.128Z</time>
      </trkpt>
      <trkpt lat="54.319585" lon="18.517754">
        <ele>119</ele>
        <time>2026-01-01T10:40:03.977Z</time>
      </trkpt>
      <trkpt lat="54.319593" lon="18.517899">
        <ele>119</ele>
        <time>2026-01-01T10:40:05.430Z</time>
      </trkpt>
      <trkpt lat="54.319635" lon="18.518416">
        <ele>119.25</ele>
        <time>2026-01-01T10:40:10.640Z</time>
      </trkpt>
      <trkpt lat="54.319686" lon="18.518876">
        <ele>120</ele>
        <time>2026-01-01T10:40:15.405Z</time>
      </trkpt>
      <trkpt lat="54.319753" lon="18.519482">
        <ele>121.25</ele>
        <time>2026-01-01T10:40:22.098Z</time>
      </trkpt>
      <trkpt lat="54.319781" lon="18.519707">
        <ele>121.5</ele>
        <time>2026-01-01T10:40:24.515Z</time>
      </trkpt>
      <trkpt lat="54.319828" lon="18.519888">
        <ele>121.5</ele>
        <time>2026-01-01T10:40:26.231Z</time>
      </trkpt>
      <trkpt lat="54.319849" lon="18.519947">
        <ele>121.5</ele>
        <time>2026-01-01T10:40:26.829Z</time>
      </trkpt>
      <trkpt lat="54.319953" lon="18.520235">
        <ele>120.25</ele>
        <time>2026-01-01T10:40:29.763Z</time>
      </trkpt>
      <trkpt lat="54.320183" lon="18.520887">
        <ele>118.75</ele>
        <time>2026-01-01T10:40:35.936Z</time>
      </trkpt>
      <trkpt lat="54.320264" lon="18.52117">
        <ele>118.25</ele>
        <time>2026-01-01T10:40:38.537Z</time>
      </trkpt>
      <trkpt lat="54.320324" lon="18.521474">
        <ele>117.75</ele>
        <time>2026-01-01T10:40:41.252Z</time>
      </trkpt>
      <trkpt lat="54.320343" lon="18.521622">
        <ele>117.25</ele>
        <time>2026-01-01T10:40:42.567Z</time>
      </trkpt>
      <trkpt lat="54.320357" lon="18.521844">
        <ele>117.25</ele>
        <time>2026-01-01T10:40:44.563Z</time>
      </trkpt>
      <trkpt lat="54.320352" lon="18.522117">
        <ele>117.25</ele>
        <time>2026-01-01T10:40:47.026Z</time>
      </trkpt>
      <trkpt lat="54.320331" lon="18.522382">
        <ele>117.25</ele>
        <time>2026-01-01T10:40:49.537Z</time>
      </trkpt>
      <trkpt lat="54.320307" lon="18.522565">
        <ele>117.25</ele>
        <time>2026-01-01T10:40:51.351Z</time>
      </trkpt>
      <trkpt lat="54.320268" lon="18.522738">
        <ele>117.5</ele>
        <time>2026-01-01T10:40:53.150Z</time>
      </trkpt>
      <trkpt lat="54.320222" lon="18.52289">
        <ele>117.5</ele>
        <time>2026-01-01T10:40:54.821Z</time>
      </trkpt>
      <trkpt lat="54.320041" lon="18.523426">
        <ele>118</ele>
        <time>2026-01-01T10:41:01.017Z</time>
      </trkpt>
      <trkpt lat="54.319904" lon="18.523831">
        <ele>119.5</ele>
        <time>2026-01-01T10:41:06.103Z</time>
      </trkpt>
      <trkpt lat="54.319871" lon="18.523956">
        <ele>119.75</ele>
        <time>2026-01-01T10:41:07.654Z</time>
      </trkpt>
      <trkpt lat="54.319849" lon="18.52407">
        <ele>120</ele>
        <time>2026-01-01T10:41:09.005Z</time>
      </trkpt>
      <trkpt lat="54.319829" lon="18.524341">
        <ele>120.75</ele>
        <time>2026-01-01T10:41:12.071Z</time>
      </trkpt>
      <trkpt lat="54.319838" lon="18.524525">
        <ele>121</ele>
        <time>2026-01-01T10:41:14.097Z</time>
      </trkpt>
      <trkpt lat="54.319856" lon="18.524664">
        <ele>121.25</ele>
        <time>2026-01-01T10:41:15.660Z</time>
      </trkpt>
      <trkpt lat="54.319881" lon="18.524785">
        <ele>121.5</ele>
        <time>2026-01-01T10:41:17.024Z</time>
      </trkpt>
      <trkpt lat="54.320044" lon="18.525312">
        <ele>121.75</ele>
        <time>2026-01-01T10:41:23.343Z</time>
      </trkpt>
      <trkpt lat="54.320044" lon="18.52531">
        <ele>121.75</ele>
        <time>2026-01-01T10:41:23.363Z</time>
      </trkpt>
      <trkpt lat="54.320054" lon="18.525341">
        <ele>122</ele>
        <time>2026-01-01T10:41:23.722Z</time>
      </trkpt>
      <trkpt lat="54.320106" lon="18.525551">
        <ele>122</ele>
        <time>2026-01-01T10:41:26.038Z</time>
      </trkpt>
      <trkpt lat="54.320137" lon="18.525743">
        <ele>122.25</ele>
        <time>2026-01-01T10:41:28.103Z</time>
      </trkpt>
      <trkpt lat="54.320156" lon="18.526024">
        <ele>122.5</ele>
        <time>2026-01-01T10:41:31.061Z</time>
      </trkpt>
      <trkpt lat="54.320156" lon="18.526149">
        <ele>122.75</ele>
        <time>2026-01-01T10:41:32.368Z</time>
      </trkpt>
      <trkpt lat="54.320146" lon="18.526347">
        <ele>123</ele>
        <time>2026-01-01T10:41:34.460Z</time>
      </trkpt>
      <trkpt lat="54.320137" lon="18.526451">
        <ele>123.25</ele>
        <time>2026-01-01T10:41:35.569Z</time>
      </trkpt>
      <trkpt lat="54.319967" lon="18.527182">
        <ele>123</ele>
        <time>2026-01-01T10:41:43.360Z</time>
      </trkpt>
      <trkpt lat="54.319948" lon="18.527362">
        <ele>123</ele>
        <time>2026-01-01T10:41:45.126Z</time>
      </trkpt>
      <trkpt lat="54.319954" lon="18.527648">
        <ele>123.25</ele>
        <time>2026-01-01T10:41:48.000Z</time>
      </trkpt>
      <trkpt lat="54.319986" lon="18.527887">
        <ele>123.5</ele>
        <time>2026-01-01T10:41:50.457Z</time>
      </trkpt>
      <trkpt lat="54.320083" lon="18.528258">
        <ele>123.75</ele>
        <time>2026-01-01T10:41:54.438Z</time>
      </trkpt>
      <trkpt lat="54.320165" lon="18.528509">
        <ele>123.5</ele>
        <time>2026-01-01T10:41:57.105Z</time>
      </trkpt>
      <trkpt lat="54.320191" lon="18.528615">
        <ele>123.25</ele>
        <time>2026-01-01T10:41:58.124Z</time>
      </trkpt>
      <trkpt lat="54.32021" lon="18.528728">
        <ele>123</ele>
        <time>2026-01-01T10:41:59.106Z</time>
      </trkpt>
      <trkpt lat="54.320216" lon="18.52881">
        <ele>123</ele>
        <time>2026-01-01T10:41:59.805Z</time>
      </trkpt>
      <trkpt lat="54.320215" lon="18.528899">
        <ele>122.75</ele>
        <time>2026-01-01T10:42:00.557Z</time>
      </trkpt>
      <trkpt lat="54.32021" lon="18.528963">
        <ele>122.75</ele>
        <time>2026-01-01T10:42:01.103Z</time>
      </trkpt>
      <trkpt lat="54.320268" lon="18.528987">
        <ele>122.5</ele>
        <time>2026-01-01T10:42:01.968Z</time>
      </trkpt>
      <trkpt lat="54.320319" lon="18.529022">
        <ele>122.25</ele>
        <time>2026-01-01T10:42:02.751Z</time>
      </trkpt>
      <trkpt lat="54.320377" lon="18.529082">
        <ele>122</ele>
        <time>2026-01-01T10:42:03.717Z</time>
      </trkpt>
      <trkpt lat="54.320423" lon="18.529155">
        <ele>122</ele>
        <time>2026-01-01T10:42:04.573Z</time>
      </trkpt>
      <trkpt lat="54.320624" lon="18.529625">
        <ele>120.25</ele>
        <time>2026-01-01T10:42:09.213Z</time>
      </trkpt>
      <trkpt lat="54.320734" lon="18.529958">
        <ele>119.25</ele>
        <time>2026-01-01T10:42:12.208Z</time>
      </trkpt>
      <trkpt lat="54.320762" lon="18.530059">
        <ele>119</ele>
        <time>2026-01-01T10:42:13.114Z</time>
      </trkpt>
      <trkpt lat="54.320793" lon="18.530204">
        <ele>118.75</ele>
        <time>2026-01-01T10:42:14.366Z</time>
      </trkpt>
      <trkpt lat="54.320832" lon="18.530438">
        <ele>118.25</ele>
        <time>2026-01-01T10:42:16.349Z</time>
      </trkpt>
      <trkpt lat="54.320866" lon="18.530664">
        <ele>118</ele>
        <time>2026-01-01T10:42:18.305Z</time>
      </trkpt>
      <trkpt lat="54.320897" lon="18.530951">
        <ele>117.5</ele>
        <time>2026-01-01T10:42:20.751Z</time>
      </trkpt>
      <trkpt lat="54.320913" lon="18.531167">
        <ele>117.25</ele>
        <time>2026-01-01T10:42:22.584Z</time>
      </trkpt>
      <trkpt lat="54.320957" lon="18.531632">
        <ele>116.5</ele>
        <time>2026-01-01T10:42:26.583Z</time>
      </trkpt>
      <trkpt lat="54.320999" lon="18.532087">
        <ele>116</ele>
        <time>2026-01-01T10:42:30.547Z</time>
      </trkpt>
      <trkpt lat="54.321031" lon="18.532302">
        <ele>115.75</ele>
        <time>2026-01-01T10:42:32.507Z</time>
      </trkpt>
      <trkpt lat="54.321077" lon="18.53252">
        <ele>115.5</ele>
        <time>2026-01-01T10:42:34.555Z</time>
      </trkpt>
      <trkpt lat="54.321107" lon="18.532639">
        <ele>115.5</ele>
        <time>2026-01-01T10:42:35.696Z</time>
      </trkpt>
      <trkpt lat="54.321217" lon="18.533009">
        <ele>115</ele>
        <time>2026-01-01T10:42:39.417Z</time>
      </trkpt>
      <trkpt lat="54.321304" lon="18.533243">
        <ele>115</ele>
        <time>2026-01-01T10:42:41.938Z</time>
      </trkpt>
      <trkpt lat="54.321556" lon="18.533776">
        <ele>115.5</ele>
        <time>2026-01-01T10:42:48.478Z</time>
      </trkpt>
      <trkpt lat="54.321781" lon="18.534251">
        <ele>116</ele>
        <time>2026-01-01T10:42:54.656Z</time>
      </trkpt>
      <trkpt lat="54.321923" lon="18.534543">
        <ele>116.25</ele>
        <time>2026-01-01T10:42:58.446Z</time>
      </trkpt>
      <trkpt lat="54.321971" lon="18.534658">
        <ele>116.25</ele>
        <time>2026-01-01T10:42:59.827Z</time>
      </trkpt>
      <trkpt lat="54.322009" lon="18.534762">
        <ele>116.25</ele>
        <time>2026-01-01T10:43:01.016Z</time>
      </trkpt>
      <trkpt lat="54.322046" lon="18.534883">
        <ele>116.25</ele>
        <time>2026-01-01T10:43:02.339Z</time>
      </trkpt>
      <trkpt lat="54.322138" lon="18.53524">
        <ele>116.25</ele>
        <time>2026-01-01T10:43:06.059Z</time>
      </trkpt>
      <trkpt lat="54.322416" lon="18.536326">
        <ele>115.75</ele>
        <time>2026-01-01T10:43:17.127Z</time>
      </trkpt>
      <trkpt lat="54.32249" lon="18.536616">
        <ele>115.75</ele>
        <time>2026-01-01T10:43:20.067Z</time>
      </trkpt>
      <trkpt lat="54.322659" lon="18.537216">
        <ele>116.25</ele>
        <time>2026-01-01T10:43:26.667Z</time>
      </trkpt>
      <trkpt lat="54.322677" lon="18.537327">
        <ele>116.25</ele>
        <time>2026-01-01T10:43:27.804Z</time>
      </trkpt>
      <trkpt lat="54.322713" lon="18.537628">
        <ele>116.25</ele>
        <time>2026-01-01T10:43:30.733Z</time>
      </trkpt>
      <trkpt lat="54.32278" lon="18.538492">
        <ele>116.25</ele>
        <time>2026-01-01T10:43:39.041Z</time>
      </trkpt>
      <trkpt lat="54.322794" lon="18.538644">
        <ele>116.25</ele>
        <time>2026-01-01T10:43:40.507Z</time>
      </trkpt>
      <trkpt lat="54.32284" lon="18.539171">
        <ele>116.25</ele>
        <time>2026-01-01T10:43:45.586Z</time>
      </trkpt>
      <trkpt lat="54.322885" lon="18.539673">
        <ele>115.75</ele>
        <time>2026-01-01T10:43:50.271Z</time>
      </trkpt>
      <trkpt lat="54.322919" lon="18.539979">
        <ele>115.5</ele>
        <time>2026-01-01T10:43:53.000Z</time>
      </trkpt>
      <trkpt lat="54.322932" lon="18.540105">
        <ele>115.25</ele>
        <time>2026-01-01T10:43:54.119Z</time>
      </trkpt>
      <trkpt lat="54.322945" lon="18.540219">
        <ele>115.25</ele>
        <time>2026-01-01T10:43:55.138Z</time>
      </trkpt>
      <trkpt lat="54.322961" lon="18.540336">
        <ele>115</ele>
        <time>2026-01-01T10:43:56.192Z</time>
      </trkpt>
      <trkpt lat="54.322989" lon="18.540582">
        <ele>114.75</ele>
        <time>2026-01-01T10:43:58.348Z</time>
      </trkpt>
      <trkpt lat="54.323003" lon="18.540855">
        <ele>114.5</ele>
        <time>2026-01-01T10:44:00.679Z</time>
      </trkpt>
      <trkpt lat="54.322995" lon="18.541024">
        <ele>114</ele>
        <time>2026-01-01T10:44:02.130Z</time>
      </trkpt>
      <trkpt lat="54.322846" lon="18.541969">
        <ele>112</ele>
        <time>2026-01-01T10:44:10.203Z</time>
      </trkpt>
      <trkpt lat="54.322779" lon="18.542382">
        <ele>110.75</ele>
        <time>2026-01-01T10:44:13.591Z</time>
      </trkpt>
      <trkpt lat="54.322747" lon="18.542796">
        <ele>109.75</ele>
        <time>2026-01-01T10:44:16.784Z</time>
      </trkpt>
      <trkpt lat="54.322748" lon="18.543055">
        <ele>109</ele>
        <time>2026-01-01T10:44:18.772Z</time>
      </trkpt>
      <trkpt lat="54.322761" lon="18.543316">
        <ele>108.25</ele>
        <time>2026-01-01T10:44:20.786Z</time>
      </trkpt>
      <trkpt lat="54.322788" lon="18.543698">
        <ele>107.25</ele>
        <time>2026-01-01T10:44:23.705Z</time>
      </trkpt>
      <trkpt lat="54.322814" lon="18.543945">
        <ele>106.5</ele>
        <time>2026-01-01T10:44:25.613Z</time>
      </trkpt>
      <trkpt lat="54.322917" lon="18.544726">
        <ele>103.75</ele>
        <time>2026-01-01T10:44:31.533Z</time>
      </trkpt>
      <trkpt lat="54.322979" lon="18.545065">
        <ele>102.5</ele>
        <time>2026-01-01T10:44:34.171Z</time>
      </trkpt>
      <trkpt lat="54.323046" lon="18.545349">
        <ele>102</ele>
        <time>2026-01-01T10:44:36.553Z</time>
      </trkpt>
      <trkpt lat="54.323138" lon="18.545645">
        <ele>101.25</ele>
        <time>2026-01-01T10:44:39.161Z</time>
      </trkpt>
      <trkpt lat="54.323299" lon="18.546004">
        <ele>100</ele>
        <time>2026-01-01T10:44:42.747Z</time>
      </trkpt>
      <trkpt lat="54.32349" lon="18.546345">
        <ele>98.75</ele>
        <time>2026-01-01T10:44:46.366Z</time>
      </trkpt>
      <trkpt lat="54.323944" lon="18.547136">
        <ele>96.75</ele>
        <time>2026-01-01T10:44:55.324Z</time>
      </trkpt>
      <trkpt lat="54.32402" lon="18.547277">
        <ele>96.5</ele>
        <time>2026-01-01T10:44:56.915Z</time>
      </trkpt>
      <trkpt lat="54.324291" lon="18.54775">
        <ele>95.75</ele>
        <time>2026-01-01T10:45:02.671Z</time>
      </trkpt>
      <trkpt lat="54.324548" lon="18.548174">
        <ele>95.25</ele>
        <time>2026-01-01T10:45:08.062Z</time>
      </trkpt>
      <trkpt lat="54.324723" lon="18.548462">
        <ele>95</ele>
        <time>2026-01-01T10:45:11.784Z</time>
      </trkpt>
      <trkpt lat="54.324798" lon="18.548577">
        <ele>94.75</ele>
        <time>2026-01-01T10:45:13.330Z</time>
      </trkpt>
      <trkpt lat="54.324812" lon="18.548596">
        <ele>94.75</ele>
        <time>2026-01-01T10:45:13.609Z</time>
      </trkpt>
      <trkpt lat="54.324824" lon="18.548615">
        <ele>94.75</ele>
        <time>2026-01-01T10:45:13.864Z</time>
      </trkpt>
      <trkpt lat="54.324964" lon="18.548823">
        <ele>94.5</ele>
        <time>2026-01-01T10:45:16.761Z</time>
      </trkpt>
      <trkpt lat="54.32508" lon="18.548973">
        <ele>94.5</ele>
        <time>2026-01-01T10:45:19.025Z</time>
      </trkpt>
      <trkpt lat="54.325138" lon="18.549052">
        <ele>94.5</ele>
        <time>2026-01-01T10:45:20.201Z</time>
      </trkpt>
      <trkpt lat="54.325282" lon="18.549253">
        <ele>94.25</ele>
        <time>2026-01-01T10:45:23.149Z</time>
      </trkpt>
      <trkpt lat="54.325417" lon="18.54942">
        <ele>94.25</ele>
        <time>2026-01-01T10:45:25.816Z</time>
      </trkpt>
      <trkpt lat="54.325765" lon="18.549853">
        <ele>94</ele>
        <time>2026-01-01T10:45:32.659Z</time>
      </trkpt>
      <trkpt lat="54.325962" lon="18.550061">
        <ele>93.75</ele>
        <time>2026-01-01T10:45:36.332Z</time>
      </trkpt>
      <trkpt lat="54.326076" lon="18.550162">
        <ele>93.75</ele>
        <time>2026-01-01T10:45:38.390Z</time>
      </trkpt>
      <trkpt lat="54.326296" lon="18.550359">
        <ele>93.75</ele>
        <time>2026-01-01T10:45:42.324Z</time>
      </trkpt>
      <trkpt lat="54.326424" lon="18.550457">
        <ele>93.5</ele>
        <time>2026-01-01T10:45:44.565Z</time>
      </trkpt>
      <trkpt lat="54.327012" lon="18.550908">
        <ele>96</ele>
        <time>2026-01-01T10:45:56.112Z</time>
      </trkpt>
      <trkpt lat="54.327198" lon="18.551052">
        <ele>97.5</ele>
        <time>2026-01-01T10:46:00.115Z</time>
      </trkpt>
      <trkpt lat="54.327452" lon="18.551248">
        <ele>100</ele>
        <time>2026-01-01T10:46:06.107Z</time>
      </trkpt>
      <trkpt lat="54.327833" lon="18.551541">
        <ele>101.5</ele>
        <time>2026-01-01T10:46:14.553Z</time>
      </trkpt>
      <trkpt lat="54.327903" lon="18.551587">
        <ele>101.75</ele>
        <time>2026-01-01T10:46:15.989Z</time>
      </trkpt>
      <trkpt lat="54.328212" lon="18.551743">
        <ele>103.25</ele>
        <time>2026-01-01T10:46:22.178Z</time>
      </trkpt>
      <trkpt lat="54.328304" lon="18.551771">
        <ele>103.5</ele>
        <time>2026-01-01T10:46:23.950Z</time>
      </trkpt>
      <trkpt lat="54.328419" lon="18.551804">
        <ele>104</ele>
        <time>2026-01-01T10:46:26.112Z</time>
      </trkpt>
      <trkpt lat="54.328623" lon="18.551827">
        <ele>104.5</ele>
        <time>2026-01-01T10:46:29.755Z</time>
      </trkpt>
      <trkpt lat="54.328663" lon="18.55194">
        <ele>104.25</ele>
        <time>2026-01-01T10:46:31.069Z</time>
      </trkpt>
      <trkpt lat="54.328746" lon="18.552344">
        <ele>104</ele>
        <time>2026-01-01T10:46:35.209Z</time>
      </trkpt>
      <trkpt lat="54.328758" lon="18.552394">
        <ele>104</ele>
        <time>2026-01-01T10:46:35.682Z</time>
      </trkpt>
      <trkpt lat="54.328806" lon="18.552581">
        <ele>103.75</ele>
        <time>2026-01-01T10:46:37.471Z</time>
      </trkpt>
      <trkpt lat="54.328889" lon="18.552909">
        <ele>103.25</ele>
        <time>2026-01-01T10:46:40.589Z</time>
      </trkpt>
      <trkpt lat="54.328969" lon="18.553181">
        <ele>102.75</ele>
        <time>2026-01-01T10:46:43.182Z</time>
      </trkpt>
      <trkpt lat="54.32901" lon="18.553308">
        <ele>102.5</ele>
        <time>2026-01-01T10:46:44.456Z</time>
      </trkpt>
      <trkpt lat="54.329162" lon="18.553612">
        <ele>102.5</ele>
        <time>2026-01-01T10:46:48.014Z</time>
      </trkpt>
      <trkpt lat="54.329413" lon="18.554001">
        <ele>103.5</ele>
        <time>2026-01-01T10:46:53.826Z</time>
      </trkpt>
      <trkpt lat="54.329511" lon="18.554158">
        <ele>104</ele>
        <time>2026-01-01T10:46:56.322Z</time>
      </trkpt>
      <trkpt lat="54.329819" lon="18.554633">
        <ele>104.75</ele>
        <time>2026-01-01T10:47:03.776Z</time>
      </trkpt>
      <trkpt lat="54.329904" lon="18.554759">
        <ele>105</ele>
        <time>2026-01-01T10:47:05.735Z</time>
      </trkpt>
      <trkpt lat="54.330004" lon="18.55493">
        <ele>105</ele>
        <time>2026-01-01T10:47:08.210Z</time>
      </trkpt>
      <trkpt lat="54.330141" lon="18.555198">
        <ele>105.5</ele>
        <time>2026-01-01T10:47:11.853Z</time>
      </trkpt>
      <trkpt lat="54.330239" lon="18.555402">
        <ele>105.75</ele>
        <time>2026-01-01T10:47:14.517Z</time>
      </trkpt>
      <trkpt lat="54.330405" lon="18.555768">
        <ele>106</ele>
        <time>2026-01-01T10:47:19.121Z</time>
      </trkpt>
      <trkpt lat="54.330503" lon="18.556005">
        <ele>105.75</ele>
        <time>2026-01-01T10:47:21.816Z</time>
      </trkpt>
      <trkpt lat="54.330549" lon="18.556131">
        <ele>105.5</ele>
        <time>2026-01-01T10:47:23.164Z</time>
      </trkpt>
      <trkpt lat="54.330554" lon="18.556142">
        <ele>105.5</ele>
        <time>2026-01-01T10:47:23.282Z</time>
      </trkpt>
      <trkpt lat="54.330566" lon="18.556179">
        <ele>105.5</ele>
        <time>2026-01-01T10:47:23.643Z</time>
      </trkpt>
      <trkpt lat="54.330595" lon="18.556267">
        <ele>105.25</ele>
        <time>2026-01-01T10:47:24.517Z</time>
      </trkpt>
      <trkpt lat="54.330631" lon="18.556378">
        <ele>105</ele>
        <time>2026-01-01T10:47:25.615Z</time>
      </trkpt>
      <trkpt lat="54.330789" lon="18.556817">
        <ele>104.5</ele>
        <time>2026-01-01T10:47:30.147Z</time>
      </trkpt>
      <trkpt lat="54.330855" lon="18.557015">
        <ele>104.5</ele>
        <time>2026-01-01T10:47:32.225Z</time>
      </trkpt>
      <trkpt lat="54.330917" lon="18.55723">
        <ele>104.75</ele>
        <time>2026-01-01T10:47:34.419Z</time>
      </trkpt>
      <trkpt lat="54.330936" lon="18.557323">
        <ele>104.75</ele>
        <time>2026-01-01T10:47:35.312Z</time>
      </trkpt>
      <trkpt lat="54.330973" lon="18.557675">
        <ele>104.25</ele>
        <time>2026-01-01T10:47:38.555Z</time>
      </trkpt>
      <trkpt lat="54.330978" lon="18.557772">
        <ele>104</ele>
        <time>2026-01-01T10:47:39.419Z</time>
      </trkpt>
      <trkpt lat="54.330987" lon="18.557938">
        <ele>103.75</ele>
        <time>2026-01-01T10:47:40.837Z</time>
      </trkpt>
      <trkpt lat="54.330994" lon="18.558103">
        <ele>103.5</ele>
        <time>2026-01-01T10:47:42.237Z</time>
      </trkpt>
      <trkpt lat="54.33101" lon="18.558571">
        <ele>102.75</ele>
        <time>2026-01-01T10:47:46.142Z</time>
      </trkpt>
      <trkpt lat="54.331063" lon="18.559722">
        <ele>101.5</ele>
        <time>2026-01-01T10:47:56.091Z</time>
      </trkpt>
      <trkpt lat="54.331092" lon="18.560139">
        <ele>100.75</ele>
        <time>2026-01-01T10:47:59.706Z</time>
      </trkpt>
      <trkpt lat="54.331137" lon="18.560512">
        <ele>100</ele>
        <time>2026-01-01T10:48:02.826Z</time>
      </trkpt>
      <trkpt lat="54.331464" lon="18.562377">
        <ele>95.75</ele>
        <time>2026-01-01T10:48:18.420Z</time>
      </trkpt>
      <trkpt lat="54.331597" lon="18.563175">
        <ele>92.5</ele>
        <time>2026-01-01T10:48:24.771Z</time>
      </trkpt>
      <trkpt lat="54.33164" lon="18.563435">
        <ele>92</ele>
        <time>2026-01-01T10:48:26.725Z</time>
      </trkpt>
      <trkpt lat="54.331775" lon="18.564222">
        <ele>92</ele>
        <time>2026-01-01T10:48:34.267Z</time>
      </trkpt>
      <trkpt lat="54.331783" lon="18.564266">
        <ele>92</ele>
        <time>2026-01-01T10:48:34.698Z</time>
      </trkpt>
      <trkpt lat="54.331805" lon="18.564391">
        <ele>91.75</ele>
        <time>2026-01-01T10:48:35.822Z</time>
      </trkpt>
      <trkpt lat="54.331835" lon="18.564549">
        <ele>91.75</ele>
        <time>2026-01-01T10:48:37.252Z</time>
      </trkpt>
      <trkpt lat="54.331914" lon="18.564973">
        <ele>91</ele>
        <time>2026-01-01T10:48:41.084Z</time>
      </trkpt>
      <trkpt lat="54.332005" lon="18.565496">
        <ele>90.75</ele>
        <time>2026-01-01T10:48:45.899Z</time>
      </trkpt>
      <trkpt lat="54.332031" lon="18.565721">
        <ele>90.5</ele>
        <time>2026-01-01T10:48:48.019Z</time>
      </trkpt>
      <trkpt lat="54.332056" lon="18.566051">
        <ele>90.5</ele>
        <time>2026-01-01T10:48:51.108Z</time>
      </trkpt>
      <trkpt lat="54.332068" lon="18.566234">
        <ele>90.5</ele>
        <time>2026-01-01T10:48:52.802Z</time>
      </trkpt>
      <trkpt lat="54.33209" lon="18.56661">
        <ele>90.25</ele>
        <time>2026-01-01T10:48:56.357Z</time>
      </trkpt>
      <trkpt lat="54.332054" lon="18.566989">
        <ele>90.5</ele>
        <time>2026-01-01T10:49:00.016Z</time>
      </trkpt>
      <trkpt lat="54.332045" lon="18.56712">
        <ele>90.5</ele>
        <time>2026-01-01T10:49:01.273Z</time>
      </trkpt>
      <trkpt lat="54.332039" lon="18.567198">
        <ele>90.5</ele>
        <time>2026-01-01T10:49:02.022Z</time>
      </trkpt>
      <trkpt lat="54.332035" lon="18.567481">
        <ele>90.5</ele>
        <time>2026-01-01T10:49:04.719Z</time>
      </trkpt>
      <trkpt lat="54.332046" lon="18.567779">
        <ele>90.25</ele>
        <time>2026-01-01T10:49:07.472Z</time>
      </trkpt>
      <trkpt lat="54.332059" lon="18.568178">
        <ele>90</ele>
        <time>2026-01-01T10:49:11.142Z</time>
      </trkpt>
      <trkpt lat="54.332061" lon="18.568696">
        <ele>89.75</ele>
        <time>2026-01-01T10:49:15.844Z</time>
      </trkpt>
      <trkpt lat="54.332046" lon="18.569253">
        <ele>89.75</ele>
        <time>2026-01-01T10:49:20.988Z</time>
      </trkpt>
      <trkpt lat="54.332037" lon="18.56938">
        <ele>89.5</ele>
        <time>2026-01-01T10:49:22.247Z</time>
      </trkpt>
      <trkpt lat="54.332096" lon="18.569386">
        <ele>89.75</ele>
        <time>2026-01-01T10:49:23.244Z</time>
      </trkpt>
      <trkpt lat="54.332143" lon="18.569389">
        <ele>90</ele>
        <time>2026-01-01T10:49:24.073Z</time>
      </trkpt>
      <trkpt lat="54.332169" lon="18.569392">
        <ele>90</ele>
        <time>2026-01-01T10:49:24.532Z</time>
      </trkpt>
      <trkpt lat="54.332204" lon="18.569396">
        <ele>90</ele>
        <time>2026-01-01T10:49:25.150Z</time>
      </trkpt>
      <trkpt lat="54.33222" lon="18.569398">
        <ele>90</ele>
        <time>2026-01-01T10:49:25.433Z</time>
      </trkpt>
      <trkpt lat="54.332264" lon="18.569401">
        <ele>90.25</ele>
        <time>2026-01-01T10:49:26.198Z</time>
      </trkpt>
      <trkpt lat="54.332308" lon="18.569474">
        <ele>90.25</ele>
        <time>2026-01-01T10:49:27.262Z</time>
      </trkpt>
      <trkpt lat="54.332503" lon="18.569544">
        <ele>90.75</ele>
        <time>2026-01-01T10:49:30.726Z</time>
      </trkpt>
      <trkpt lat="54.332634" lon="18.569611">
        <ele>90.75</ele>
        <time>2026-01-01T10:49:33.136Z</time>
      </trkpt>
      <trkpt lat="54.333175" lon="18.569928">
        <ele>89.25</ele>
        <time>2026-01-01T10:49:42.169Z</time>
      </trkpt>
      <trkpt lat="54.33341" lon="18.570136">
        <ele>89</ele>
        <time>2026-01-01T10:49:46.147Z</time>
      </trkpt>
      <trkpt lat="54.333504" lon="18.570202">
        <ele>89</ele>
        <time>2026-01-01T10:49:47.761Z</time>
      </trkpt>
      <trkpt lat="54.333536" lon="18.57025">
        <ele>89</ele>
        <time>2026-01-01T10:49:48.436Z</time>
      </trkpt>
      <trkpt lat="54.335319" lon="18.57132">
        <ele>86.25</ele>
        <time>2026-01-01T10:50:17.507Z</time>
      </trkpt>
      <trkpt lat="54.336007" lon="18.571733">
        <ele>85.5</ele>
        <time>2026-01-01T10:50:28.708Z</time>
      </trkpt>
      <trkpt lat="54.336108" lon="18.571794">
        <ele>85.25</ele>
        <time>2026-01-01T10:50:30.364Z</time>
      </trkpt>
      <trkpt lat="54.336533" lon="18.572046">
        <ele>83.75</ele>
        <time>2026-01-01T10:50:36.701Z</time>
      </trkpt>
      <trkpt lat="54.33663" lon="18.572097">
        <ele>83.5</ele>
        <time>2026-01-01T10:50:38.097Z</time>
      </trkpt>
      <trkpt lat="54.336892" lon="18.572234">
        <ele>82.25</ele>
        <time>2026-01-01T10:50:41.775Z</time>
      </trkpt>
      <trkpt lat="54.336995" lon="18.572283">
        <ele>81.75</ele>
        <time>2026-01-01T10:50:43.252Z</time>
      </trkpt>
      <trkpt lat="54.337092" lon="18.572311">
        <ele>81.5</ele>
        <time>2026-01-01T10:50:44.625Z</time>
      </trkpt>
      <trkpt lat="54.337215" lon="18.572308">
        <ele>81.25</ele>
        <time>2026-01-01T10:50:46.401Z</time>
      </trkpt>
      <trkpt lat="54.33736" lon="18.572274">
        <ele>81</ele>
        <time>2026-01-01T10:50:48.607Z</time>
      </trkpt>
      <trkpt lat="54.337595" lon="18.572158">
        <ele>81</ele>
        <time>2026-01-01T10:50:52.603Z</time>
      </trkpt>
      <trkpt lat="54.337699" lon="18.572102">
        <ele>81.25</ele>
        <time>2026-01-01T10:50:54.481Z</time>
      </trkpt>
      <trkpt lat="54.337755" lon="18.572011">
        <ele>81.75</ele>
        <time>2026-01-01T10:50:55.850Z</time>
      </trkpt>
      <trkpt lat="54.337798" lon="18.571918">
        <ele>82</ele>
        <time>2026-01-01T10:50:57.073Z</time>
      </trkpt>
      <trkpt lat="54.337839" lon="18.571897">
        <ele>82</ele>
        <time>2026-01-01T10:50:57.845Z</time>
      </trkpt>
      <trkpt lat="54.337886" lon="18.571873">
        <ele>82.25</ele>
        <time>2026-01-01T10:50:58.729Z</time>
      </trkpt>
      <trkpt lat="54.337931" lon="18.571848">
        <ele>82.25</ele>
        <time>2026-01-01T10:50:59.582Z</time>
      </trkpt>
      <trkpt lat="54.337951" lon="18.571837">
        <ele>82.25</ele>
        <time>2026-01-01T10:50:59.961Z</time>
      </trkpt>
      <trkpt lat="54.337968" lon="18.571828">
        <ele>82.25</ele>
        <time>2026-01-01T10:51:00.282Z</time>
      </trkpt>
      <trkpt lat="54.338011" lon="18.571804">
        <ele>82.5</ele>
        <time>2026-01-01T10:51:01.098Z</time>
      </trkpt>
      <trkpt lat="54.33806" lon="18.571779">
        <ele>82.5</ele>
        <time>2026-01-01T10:51:02.020Z</time>
      </trkpt>
      <trkpt lat="54.338101" lon="18.571777">
        <ele>82.5</ele>
        <time>2026-01-01T10:51:02.760Z</time>
      </trkpt>
      <trkpt lat="54.338168" lon="18.571797">
        <ele>82.5</ele>
        <time>2026-01-01T10:51:03.953Z</time>
      </trkpt>
      <trkpt lat="54.338648" lon="18.57156">
        <ele>84</ele>
        <time>2026-01-01T10:51:12.937Z</time>
      </trkpt>
      <trkpt lat="54.33882" lon="18.57154">
        <ele>84.25</ele>
        <time>2026-01-01T10:51:16.122Z</time>
      </trkpt>
      <trkpt lat="54.338986" lon="18.571483">
        <ele>85</ele>
        <time>2026-01-01T10:51:19.245Z</time>
      </trkpt>
      <trkpt lat="54.339875" lon="18.57102">
        <ele>86.5</ele>
        <time>2026-01-01T10:51:35.760Z</time>
      </trkpt>
      <trkpt lat="54.340062" lon="18.57091">
        <ele>87</ele>
        <time>2026-01-01T10:51:39.246Z</time>
      </trkpt>
      <trkpt lat="54.340511" lon="18.570628">
        <ele>89</ele>
        <time>2026-01-01T10:51:48.315Z</time>
      </trkpt>
      <trkpt lat="54.340615" lon="18.57055">
        <ele>89.25</ele>
        <time>2026-01-01T10:51:50.458Z</time>
      </trkpt>
      <trkpt lat="54.340851" lon="18.570425">
        <ele>90</ele>
        <time>2026-01-01T10:51:55.435Z</time>
      </trkpt>
      <trkpt lat="54.341019" lon="18.570347">
        <ele>92</ele>
        <time>2026-01-01T10:51:59.124Z</time>
      </trkpt>
      <trkpt lat="54.34111" lon="18.570258">
        <ele>93.5</ele>
        <time>2026-01-01T10:52:01.400Z</time>
      </trkpt>
      <trkpt lat="54.34114" lon="18.570245">
        <ele>93.75</ele>
        <time>2026-01-01T10:52:02.097Z</time>
      </trkpt>
      <trkpt lat="54.34117" lon="18.570235">
        <ele>94</ele>
        <time>2026-01-01T10:52:02.785Z</time>
      </trkpt>
      <trkpt lat="54.341206" lon="18.570221">
        <ele>94.5</ele>
        <time>2026-01-01T10:52:03.617Z</time>
      </trkpt>
      <trkpt lat="54.341257" lon="18.570204">
        <ele>95</ele>
        <time>2026-01-01T10:52:04.788Z</time>
      </trkpt>
      <trkpt lat="54.341375" lon="18.570183">
        <ele>96.25</ele>
        <time>2026-01-01T10:52:07.462Z</time>
      </trkpt>
      <trkpt lat="54.341551" lon="18.570142">
        <ele>98</ele>
        <time>2026-01-01T10:52:11.393Z</time>
      </trkpt>
      <trkpt lat="54.341711" lon="18.570119">
        <ele>99</ele>
        <time>2026-01-01T10:52:14.694Z</time>
      </trkpt>
      <trkpt lat="54.341891" lon="18.570106">
        <ele>98.5</ele>
        <time>2026-01-01T10:52:18.020Z</time>
      </trkpt>
      <trkpt lat="54.34205" lon="18.570108">
        <ele>98.25</ele>
        <time>2026-01-01T10:52:20.677Z</time>
      </trkpt>
      <trkpt lat="54.342451" lon="18.570155">
        <ele>97</ele>
        <time>2026-01-01T10:52:26.464Z</time>
      </trkpt>
      <trkpt lat="54.342662" lon="18.570234">
        <ele>96</ele>
        <time>2026-01-01T10:52:29.402Z</time>
      </trkpt>
      <trkpt lat="54.342689" lon="18.570237">
        <ele>95.75</ele>
        <time>2026-01-01T10:52:29.755Z</time>
      </trkpt>
      <trkpt lat="54.342975" lon="18.570279">
        <ele>94.5</ele>
        <time>2026-01-01T10:52:33.507Z</time>
      </trkpt>
      <trkpt lat="54.343529" lon="18.570416">
        <ele>92.5</ele>
        <time>2026-01-01T10:52:41.075Z</time>
      </trkpt>
      <trkpt lat="54.343604" lon="18.570402">
        <ele>92.25</ele>
        <time>2026-01-01T10:52:42.138Z</time>
      </trkpt>
      <trkpt lat="54.343685" lon="18.57042">
        <ele>92.25</ele>
        <time>2026-01-01T10:52:43.387Z</time>
      </trkpt>
      <trkpt lat="54.344041" lon="18.570571">
        <ele>91.75</ele>
        <time>2026-01-01T10:52:48.997Z</time>
      </trkpt>
      <trkpt lat="54.344166" lon="18.570642">
        <ele>91.75</ele>
        <time>2026-01-01T10:52:50.969Z</time>
      </trkpt>
      <trkpt lat="54.344363" lon="18.570805">
        <ele>90.75</ele>
        <time>2026-01-01T10:52:54.094Z</time>
      </trkpt>
      <trkpt lat="54.34473" lon="18.570999">
        <ele>91.5</ele>
        <time>2026-01-01T10:53:00.274Z</time>
      </trkpt>
      <trkpt lat="54.345737" lon="18.571497">
        <ele>93.5</ele>
        <time>2026-01-01T10:53:18.868Z</time>
      </trkpt>
      <trkpt lat="54.346671" lon="18.571855">
        <ele>95.5</ele>
        <time>2026-01-01T10:53:35.898Z</time>
      </trkpt>
      <trkpt lat="54.34674" lon="18.571864">
        <ele>95.5</ele>
        <time>2026-01-01T10:53:37.266Z</time>
      </trkpt>
      <trkpt lat="54.346816" lon="18.571834">
        <ele>96.5</ele>
        <time>2026-01-01T10:53:39.041Z</time>
      </trkpt>
      <trkpt lat="54.346841" lon="18.57183">
        <ele>96.75</ele>
        <time>2026-01-01T10:53:39.612Z</time>
      </trkpt>
      <trkpt lat="54.346867" lon="18.57184">
        <ele>97.25</ele>
        <time>2026-01-01T10:53:40.218Z</time>
      </trkpt>
      <trkpt lat="54.346901" lon="18.571855">
        <ele>97.75</ele>
        <time>2026-01-01T10:53:41.017Z</time>
      </trkpt>
      <trkpt lat="54.34694" lon="18.571871">
        <ele>98.5</ele>
        <time>2026-01-01T10:53:41.929Z</time>
      </trkpt>
      <trkpt lat="54.347" lon="18.571901">
        <ele>99.25</ele>
        <time>2026-01-01T10:53:43.351Z</time>
      </trkpt>
      <trkpt lat="54.347061" lon="18.571929">
        <ele>100.25</ele>
        <time>2026-01-01T10:53:44.796Z</time>
      </trkpt>
      <trkpt lat="54.347122" lon="18.571976">
        <ele>101</ele>
        <time>2026-01-01T10:53:46.326Z</time>
      </trkpt>
      <trkpt lat="54.347394" lon="18.57214">
        <ele>104.75</ele>
        <time>2026-01-01T10:53:53.011Z</time>
      </trkpt>
      <trkpt lat="54.347568" lon="18.57227">
        <ele>106</ele>
        <time>2026-01-01T10:53:57.293Z</time>
      </trkpt>
      <trkpt lat="54.347817" lon="18.572461">
        <ele>105.25</ele>
        <time>2026-01-01T10:54:01.967Z</time>
      </trkpt>
      <trkpt lat="54.348012" lon="18.572659">
        <ele>104.25</ele>
        <time>2026-01-01T10:54:05.105Z</time>
      </trkpt>
      <trkpt lat="54.348277" lon="18.57287">
        <ele>102.75</ele>
        <time>2026-01-01T10:54:08.905Z</time>
      </trkpt>
      <trkpt lat="54.348914" lon="18.573349">
        <ele>100.75</ele>
        <time>2026-01-01T10:54:18.520Z</time>
      </trkpt>
      <trkpt lat="54.34912" lon="18.573479">
        <ele>100.25</ele>
        <time>2026-01-01T10:54:21.675Z</time>
      </trkpt>
      <trkpt lat="54.349356" lon="18.573602">
        <ele>100</ele>
        <time>2026-01-01T10:54:25.416Z</time>
      </trkpt>
      <trkpt lat="54.349854" lon="18.573804">
        <ele>99.75</ele>
        <time>2026-01-01T10:54:33.532Z</time>
      </trkpt>
      <trkpt lat="54.34995" lon="18.573797">
        <ele>99.75</ele>
        <time>2026-01-01T10:54:35.193Z</time>
      </trkpt>
      <trkpt lat="54.349993" lon="18.5738">
        <ele>99.75</ele>
        <time>2026-01-01T10:54:36.040Z</time>
      </trkpt>
      <trkpt lat="54.350017" lon="18.573811">
        <ele>100</ele>
        <time>2026-01-01T10:54:36.529Z</time>
      </trkpt>
      <trkpt lat="54.35008" lon="18.573843">
        <ele>100.75</ele>
        <time>2026-01-01T10:54:37.822Z</time>
      </trkpt>
      <trkpt lat="54.350108" lon="18.573855">
        <ele>101</ele>
        <time>2026-01-01T10:54:38.440Z</time>
      </trkpt>
      <trkpt lat="54.350452" lon="18.574011">
        <ele>104.75</ele>
        <time>2026-01-01T10:54:46.130Z</time>
      </trkpt>
      <trkpt lat="54.350483" lon="18.574025">
        <ele>105</ele>
        <time>2026-01-01T10:54:46.844Z</time>
      </trkpt>
      <trkpt lat="54.350523" lon="18.574044">
        <ele>105.5</ele>
        <time>2026-01-01T10:54:47.769Z</time>
      </trkpt>
      <trkpt lat="54.350539" lon="18.57405">
        <ele>105.75</ele>
        <time>2026-01-01T10:54:48.134Z</time>
      </trkpt>
      <trkpt lat="54.350851" lon="18.574233">
        <ele>109</ele>
        <time>2026-01-01T10:54:55.489Z</time>
      </trkpt>
      <trkpt lat="54.351167" lon="18.574458">
        <ele>110.25</ele>
        <time>2026-01-01T10:55:02.678Z</time>
      </trkpt>
      <trkpt lat="54.351286" lon="18.574583">
        <ele>110.75</ele>
        <time>2026-01-01T10:55:05.350Z</time>
      </trkpt>
      <trkpt lat="54.351357" lon="18.574658">
        <ele>111.25</ele>
        <time>2026-01-01T10:55:06.973Z</time>
      </trkpt>
      <trkpt lat="54.352156" lon="18.575255">
        <ele>113</ele>
        <time>2026-01-01T10:55:22.799Z</time>
      </trkpt>
      <trkpt lat="54.352245" lon="18.575274">
        <ele>113</ele>
        <time>2026-01-01T10:55:24.363Z</time>
      </trkpt>
      <trkpt lat="54.352301" lon="18.575307">
        <ele>113</ele>
        <time>2026-01-01T10:55:25.330Z</time>
      </trkpt>
      <trkpt lat="54.352386" lon="18.575356">
        <ele>113</ele>
        <time>2026-01-01T10:55:26.795Z</time>
      </trkpt>
      <trkpt lat="54.352433" lon="18.575402">
        <ele>113</ele>
        <time>2026-01-01T10:55:27.695Z</time>
      </trkpt>
      <trkpt lat="54.352707" lon="18.575654">
        <ele>113.25</ele>
        <time>2026-01-01T10:55:32.870Z</time>
      </trkpt>
      <trkpt lat="54.353043" lon="18.575925">
        <ele>113.5</ele>
        <time>2026-01-01T10:55:39.123Z</time>
      </trkpt>
      <trkpt lat="54.353162" lon="18.576076">
        <ele>113.25</ele>
        <time>2026-01-01T10:55:41.542Z</time>
      </trkpt>
      <trkpt lat="54.353572" lon="18.576422">
        <ele>110.25</ele>
        <time>2026-01-01T10:55:47.334Z</time>
      </trkpt>
      <trkpt lat="54.353645" lon="18.576461">
        <ele>109.5</ele>
        <time>2026-01-01T10:55:48.199Z</time>
      </trkpt>
      <trkpt lat="54.353678" lon="18.576476">
        <ele>109</ele>
        <time>2026-01-01T10:55:48.552Z</time>
      </trkpt>
      <trkpt lat="54.353826" lon="18.576542">
        <ele>107.5</ele>
        <time>2026-01-01T10:55:50.133Z</time>
      </trkpt>
      <trkpt lat="54.354957" lon="18.577446">
        <ele>102</ele>
        <time>2026-01-01T10:56:05.887Z</time>
      </trkpt>
      <trkpt lat="54.355219" lon="18.577653">
        <ele>101.5</ele>
        <time>2026-01-01T10:56:09.805Z</time>
      </trkpt>
      <trkpt lat="54.355381" lon="18.577783">
        <ele>101.25</ele>
        <time>2026-01-01T10:56:12.513Z</time>
      </trkpt>
      <trkpt lat="54.355419" lon="18.577815">
        <ele>101.25</ele>
        <time>2026-01-01T10:56:13.166Z</time>
      </trkpt>
      <trkpt lat="54.355507" lon="18.577885">
        <ele>101</ele>
        <time>2026-01-01T10:56:14.669Z</time>
      </trkpt>
      <trkpt lat="54.355762" lon="18.57809">
        <ele>100.75</ele>
        <time>2026-01-01T10:56:19.035Z</time>
      </trkpt>
      <trkpt lat="54.355811" lon="18.57813">
        <ele>100.75</ele>
        <time>2026-01-01T10:56:19.910Z</time>
      </trkpt>
      <trkpt lat="54.355917" lon="18.578215">
        <ele>100.75</ele>
        <time>2026-01-01T10:56:21.797Z</time>
      </trkpt>
      <trkpt lat="54.355988" lon="18.578272">
        <ele>100.75</ele>
        <time>2026-01-01T10:56:23.107Z</time>
      </trkpt>
      <trkpt lat="54.356154" lon="18.578408">
        <ele>101</ele>
        <time>2026-01-01T10:56:26.182Z</time>
      </trkpt>
      <trkpt lat="54.356208" lon="18.57845">
        <ele>101</ele>
        <time>2026-01-01T10:56:27.173Z</time>
      </trkpt>
      <trkpt lat="54.356575" lon="18.578746">
        <ele>101</ele>
        <time>2026-01-01T10:56:33.889Z</time>
      </trkpt>
      <trkpt lat="54.356706" lon="18.57885">
        <ele>101</ele>
        <time>2026-01-01T10:56:36.248Z</time>
      </trkpt>
      <trkpt lat="54.356704" lon="18.57885">
        <ele>101</ele>
        <time>2026-01-01T10:56:36.280Z</time>
      </trkpt>
      <trkpt lat="54.356866" lon="18.578979">
        <ele>101</ele>
        <time>2026-01-01T10:56:39.199Z</time>
      </trkpt>
      <trkpt lat="54.356884" lon="18.579018">
        <ele>101</ele>
        <time>2026-01-01T10:56:39.672Z</time>
      </trkpt>
      <trkpt lat="54.356941" lon="18.579062">
        <ele>101</ele>
        <time>2026-01-01T10:56:40.693Z</time>
      </trkpt>
      <trkpt lat="54.357023" lon="18.579126">
        <ele>101</ele>
        <time>2026-01-01T10:56:42.165Z</time>
      </trkpt>
      <trkpt lat="54.357419" lon="18.579439">
        <ele>100.5</ele>
        <time>2026-01-01T10:56:49.090Z</time>
      </trkpt>
      <trkpt lat="54.357569" lon="18.579526">
        <ele>100.5</ele>
        <time>2026-01-01T10:56:51.609Z</time>
      </trkpt>
      <trkpt lat="54.35771" lon="18.579543">
        <ele>100.5</ele>
        <time>2026-01-01T10:56:53.919Z</time>
      </trkpt>
      <trkpt lat="54.357782" lon="18.579524">
        <ele>100.5</ele>
        <time>2026-01-01T10:56:55.109Z</time>
      </trkpt>
      <trkpt lat="54.357818" lon="18.579511">
        <ele>100.5</ele>
        <time>2026-01-01T10:56:55.710Z</time>
      </trkpt>
      <trkpt lat="54.357905" lon="18.579716">
        <ele>100.5</ele>
        <time>2026-01-01T10:56:58.125Z</time>
      </trkpt>
      <trkpt lat="54.357965" lon="18.579844">
        <ele>100.5</ele>
        <time>2026-01-01T10:56:59.710Z</time>
      </trkpt>
      <trkpt lat="54.357966" lon="18.579847">
        <ele>100.5</ele>
        <time>2026-01-01T10:56:59.743Z</time>
      </trkpt>
      <trkpt lat="54.357975" lon="18.579865">
        <ele>100.5</ele>
        <time>2026-01-01T10:56:59.972Z</time>
      </trkpt>
      <trkpt lat="54.357983" lon="18.57988">
        <ele>100.5</ele>
        <time>2026-01-01T10:57:00.168Z</time>
      </trkpt>
      <trkpt lat="54.357985" lon="18.579885">
        <ele>100.5</ele>
        <time>2026-01-01T10:57:00.226Z</time>
      </trkpt>
      <trkpt lat="54.358005" lon="18.579935">
        <ele>100.5</ele>
        <time>2026-01-01T10:57:00.811Z</time>
      </trkpt>
      <trkpt lat="54.35802" lon="18.580039">
        <ele>100.5</ele>
        <time>2026-01-01T10:57:01.845Z</time>
      </trkpt>
      <trkpt lat="54.358055" lon="18.580086">
        <ele>100.5</ele>
        <time>2026-01-01T10:57:02.582Z</time>
      </trkpt>
      <trkpt lat="54.358161" lon="18.579879">
        <ele>100.75</ele>
        <time>2026-01-01T10:57:05.278Z</time>
      </trkpt>
      <trkpt lat="54.358258" lon="18.579734">
        <ele>100.75</ele>
        <time>2026-01-01T10:57:07.462Z</time>
      </trkpt>
      <trkpt lat="54.358356" lon="18.579616">
        <ele>101</ele>
        <time>2026-01-01T10:57:09.506Z</time>
      </trkpt>
      <trkpt lat="54.358412" lon="18.579558">
        <ele>101.25</ele>
        <time>2026-01-01T10:57:10.635Z</time>
      </trkpt>
      <trkpt lat="54.358412" lon="18.579558">
        <ele>101</ele>
        <time>2026-01-01T10:57:10.635Z</time>
      </trkpt>
      <trkpt lat="54.358512" lon="18.579457">
        <ele>101.25</ele>
        <time>2026-01-01T10:57:12.630Z</time>
      </trkpt>
      <trkpt lat="54.359168" lon="18.578874">
        <ele>101.5</ele>
        <time>2026-01-01T10:57:25.052Z</time>
      </trkpt>
      <trkpt lat="54.359305" lon="18.578755">
        <ele>101.5</ele>
        <time>2026-01-01T10:57:27.561Z</time>
      </trkpt>
      <trkpt lat="54.359454" lon="18.578618">
        <ele>101.25</ele>
        <time>2026-01-01T10:57:30.240Z</time>
      </trkpt>
      <trkpt lat="54.359477" lon="18.578691">
        <ele>101.25</ele>
        <time>2026-01-01T10:57:31.030Z</time>
      </trkpt>
      <trkpt lat="54.359706" lon="18.578475">
        <ele>101.5</ele>
        <time>2026-01-01T10:57:35.301Z</time>
      </trkpt>
      <trkpt lat="54.35981" lon="18.578427">
        <ele>101.5</ele>
        <time>2026-01-01T10:57:37.087Z</time>
      </trkpt>
      <trkpt lat="54.359896" lon="18.578379">
        <ele>101.75</ele>
        <time>2026-01-01T10:57:38.587Z</time>
      </trkpt>
      <trkpt lat="54.359989" lon="18.57829">
        <ele>101.75</ele>
        <time>2026-01-01T10:57:40.232Z</time>
      </trkpt>
      <trkpt lat="54.3601" lon="18.57816">
        <ele>101.5</ele>
        <time>2026-01-01T10:57:42.308Z</time>
      </trkpt>
      <trkpt lat="54.360109" lon="18.578151">
        <ele>101.5</ele>
        <time>2026-01-01T10:57:42.460Z</time>
      </trkpt>
      <trkpt lat="54.360247" lon="18.57799">
        <ele>100.75</ele>
        <time>2026-01-01T10:57:44.895Z</time>
      </trkpt>
      <trkpt lat="54.360422" lon="18.577785">
        <ele>99.5</ele>
        <time>2026-01-01T10:57:47.648Z</time>
      </trkpt>
      <trkpt lat="54.360517" lon="18.577675">
        <ele>98.5</ele>
        <time>2026-01-01T10:57:48.984Z</time>
      </trkpt>
      <trkpt lat="54.360546" lon="18.577643">
        <ele>98.25</ele>
        <time>2026-01-01T10:57:49.376Z</time>
      </trkpt>
      <trkpt lat="54.360576" lon="18.57758">
        <ele>97.75</ele>
        <time>2026-01-01T10:57:49.915Z</time>
      </trkpt>
      <trkpt lat="54.360748" lon="18.577379">
        <ele>95.75</ele>
        <time>2026-01-01T10:57:52.311Z</time>
      </trkpt>
      <trkpt lat="54.36081" lon="18.577308">
        <ele>95</ele>
        <time>2026-01-01T10:57:53.149Z</time>
      </trkpt>
      <trkpt lat="54.360878" lon="18.577265">
        <ele>94.75</ele>
        <time>2026-01-01T10:57:53.969Z</time>
      </trkpt>
      <trkpt lat="54.360928" lon="18.577194">
        <ele>94.5</ele>
        <time>2026-01-01T10:57:54.703Z</time>
      </trkpt>
      <trkpt lat="54.362248" lon="18.575647">
        <ele>89.25</ele>
        <time>2026-01-01T10:58:16.105Z</time>
      </trkpt>
      <trkpt lat="54.362913" lon="18.574866">
        <ele>78.75</ele>
        <time>2026-01-01T10:58:25.790Z</time>
      </trkpt>
      <trkpt lat="54.362913" lon="18.574866">
        <ele>78.75</ele>
        <time>2026-01-01T10:58:25.790Z</time>
      </trkpt>
      <trkpt lat="54.362913" lon="18.574866">
        <ele>81.5</ele>
        <time>2026-01-01T10:58:25.790Z</time>
      </trkpt>
      <trkpt lat="54.363176" lon="18.574559">
        <ele>78.75</ele>
        <time>2026-01-01T10:58:30.546Z</time>
      </trkpt>
      <trkpt lat="54.36323" lon="18.57447">
        <ele>78</ele>
        <time>2026-01-01T10:58:31.665Z</time>
      </trkpt>
      <trkpt lat="54.363669" lon="18.573988">
        <ele>73.5</ele>
        <time>2026-01-01T10:58:38.159Z</time>
      </trkpt>
      <trkpt lat="54.36376" lon="18.573932">
        <ele>72.75</ele>
        <time>2026-01-01T10:58:39.222Z</time>
      </trkpt>
      <trkpt lat="54.363897" lon="18.573898">
        <ele>71.75</ele>
        <time>2026-01-01T10:58:40.739Z</time>
      </trkpt>
      <trkpt lat="54.363996" lon="18.573832">
        <ele>70.5</ele>
        <time>2026-01-01T10:58:41.851Z</time>
      </trkpt>
      <trkpt lat="54.364234" lon="18.573578">
        <ele>67.25</ele>
        <time>2026-01-01T10:58:44.737Z</time>
      </trkpt>
      <trkpt lat="54.364288" lon="18.573457">
        <ele>66</ele>
        <time>2026-01-01T10:58:45.615Z</time>
      </trkpt>
      <trkpt lat="54.364385" lon="18.573358">
        <ele>64.75</ele>
        <time>2026-01-01T10:58:46.797Z</time>
      </trkpt>
      <trkpt lat="54.364609" lon="18.573113">
        <ele>63</ele>
        <time>2026-01-01T10:58:49.675Z</time>
      </trkpt>
      <trkpt lat="54.364851" lon="18.57287">
        <ele>61</ele>
        <time>2026-01-01T10:58:52.936Z</time>
      </trkpt>
      <trkpt lat="54.364933" lon="18.572793">
        <ele>60.5</ele>
        <time>2026-01-01T10:58:54.095Z</time>
      </trkpt>
      <trkpt lat="54.365034" lon="18.572742">
        <ele>60</ele>
        <time>2026-01-01T10:58:55.411Z</time>
      </trkpt>
      <trkpt lat="54.365083" lon="18.572721">
        <ele>59.5</ele>
        <time>2026-01-01T10:58:56.069Z</time>
      </trkpt>
      <trkpt lat="54.365137" lon="18.5727">
        <ele>59.5</ele>
        <time>2026-01-01T10:58:56.790Z</time>
      </trkpt>
      <trkpt lat="54.365235" lon="18.572663">
        <ele>59</ele>
        <time>2026-01-01T10:58:58.097Z</time>
      </trkpt>
      <trkpt lat="54.3653" lon="18.572655">
        <ele>58.75</ele>
        <time>2026-01-01T10:58:58.946Z</time>
      </trkpt>
      <trkpt lat="54.365816" lon="18.5724">
        <ele>56.75</ele>
        <time>2026-01-01T10:59:06.172Z</time>
      </trkpt>
      <trkpt lat="54.366276" lon="18.57219">
        <ele>54.25</ele>
        <time>2026-01-01T10:59:12.475Z</time>
      </trkpt>
      <trkpt lat="54.366549" lon="18.572091">
        <ele>53</ele>
        <time>2026-01-01T10:59:16.060Z</time>
      </trkpt>
      <trkpt lat="54.36663" lon="18.572077">
        <ele>52.5</ele>
        <time>2026-01-01T10:59:17.199Z</time>
      </trkpt>
      <trkpt lat="54.366798" lon="18.572026">
        <ele>52.5</ele>
        <time>2026-01-01T10:59:19.586Z</time>
      </trkpt>
      <trkpt lat="54.367223" lon="18.571917">
        <ele>52.75</ele>
        <time>2026-01-01T10:59:26.493Z</time>
      </trkpt>
      <trkpt lat="54.367264" lon="18.571915">
        <ele>52.75</ele>
        <time>2026-01-01T10:59:27.176Z</time>
      </trkpt>
      <trkpt lat="54.367361" lon="18.571902">
        <ele>52.75</ele>
        <time>2026-01-01T10:59:28.766Z</time>
      </trkpt>
      <trkpt lat="54.367926" lon="18.571771">
        <ele>52.25</ele>
        <time>2026-01-01T10:59:37.789Z</time>
      </trkpt>
      <trkpt lat="54.36798" lon="18.571757">
        <ele>51.75</ele>
        <time>2026-01-01T10:59:38.617Z</time>
      </trkpt>
      <trkpt lat="54.36798" lon="18.571757">
        <ele>51.75</ele>
        <time>2026-01-01T10:59:38.617Z</time>
      </trkpt>
      <trkpt lat="54.368945" lon="18.571524">
        <ele>51.75</ele>
        <time>2026-01-01T10:59:54.197Z</time>
      </trkpt>
      <trkpt lat="54.369217" lon="18.571449">
        <ele>51.5</ele>
        <time>2026-01-01T10:59:58.659Z</time>
      </trkpt>
      <trkpt lat="54.369405" lon="18.571401">
        <ele>51.5</ele>
        <time>2026-01-01T11:00:01.690Z</time>
      </trkpt>
      <trkpt lat="54.369971" lon="18.571406">
        <ele>50.25</ele>
        <time>2026-01-01T11:00:10.258Z</time>
      </trkpt>
      <trkpt lat="54.370102" lon="18.571376">
        <ele>49.5</ele>
        <time>2026-01-01T11:00:12.101Z</time>
      </trkpt>
      <trkpt lat="54.370203" lon="18.571339">
        <ele>49</ele>
        <time>2026-01-01T11:00:13.418Z</time>
      </trkpt>
      <trkpt lat="54.370251" lon="18.571312">
        <ele>48.75</ele>
        <time>2026-01-01T11:00:14.088Z</time>
      </trkpt>
      <trkpt lat="54.370291" lon="18.571289">
        <ele>48.5</ele>
        <time>2026-01-01T11:00:14.648Z</time>
      </trkpt>
      <trkpt lat="54.370427" lon="18.571183">
        <ele>47.75</ele>
        <time>2026-01-01T11:00:16.631Z</time>
      </trkpt>
      <trkpt lat="54.370602" lon="18.570994">
        <ele>47.25</ele>
        <time>2026-01-01T11:00:19.407Z</time>
      </trkpt>
      <trkpt lat="54.370751" lon="18.570857">
        <ele>46.5</ele>
        <time>2026-01-01T11:00:21.734Z</time>
      </trkpt>
      <trkpt lat="54.370808" lon="18.570818">
        <ele>46.25</ele>
        <time>2026-01-01T11:00:22.631Z</time>
      </trkpt>
      <trkpt lat="54.370872" lon="18.570756">
        <ele>46</ele>
        <time>2026-01-01T11:00:23.710Z</time>
      </trkpt>
      <trkpt lat="54.370936" lon="18.570694">
        <ele>46</ele>
        <time>2026-01-01T11:00:24.791Z</time>
      </trkpt>
      <trkpt lat="54.371021" lon="18.570633">
        <ele>46</ele>
        <time>2026-01-01T11:00:26.146Z</time>
      </trkpt>
      <trkpt lat="54.37108" lon="18.570591">
        <ele>46</ele>
        <time>2026-01-01T11:00:27.119Z</time>
      </trkpt>
      <trkpt lat="54.371199" lon="18.570485">
        <ele>45.75</ele>
        <time>2026-01-01T11:00:29.070Z</time>
      </trkpt>
      <trkpt lat="54.37147" lon="18.57023">
        <ele>43.75</ele>
        <time>2026-01-01T11:00:33.596Z</time>
      </trkpt>
      <trkpt lat="54.37147" lon="18.57023">
        <ele>44.5</ele>
        <time>2026-01-01T11:00:33.596Z</time>
      </trkpt>
      <trkpt lat="54.37147" lon="18.57023">
        <ele>44.5</ele>
        <time>2026-01-01T11:00:33.596Z</time>
      </trkpt>
      <trkpt lat="54.37171" lon="18.570006">
        <ele>43.75</ele>
        <time>2026-01-01T11:00:37.446Z</time>
      </trkpt>
      <trkpt lat="54.371922" lon="18.569836">
        <ele>44.5</ele>
        <time>2026-01-01T11:00:41.523Z</time>
      </trkpt>
      <trkpt lat="54.373524" lon="18.568695">
        <ele>44.25</ele>
        <time>2026-01-01T11:01:10.195Z</time>
      </trkpt>
      <trkpt lat="54.373928" lon="18.56842">
        <ele>44</ele>
        <time>2026-01-01T11:01:17.224Z</time>
      </trkpt>
      <trkpt lat="54.373989" lon="18.568378">
        <ele>44</ele>
        <time>2026-01-01T11:01:18.298Z</time>
      </trkpt>
      <trkpt lat="54.374063" lon="18.56833">
        <ele>44</ele>
        <time>2026-01-01T11:01:19.629Z</time>
      </trkpt>
      <trkpt lat="54.374181" lon="18.568295">
        <ele>44</ele>
        <time>2026-01-01T11:01:21.644Z</time>
      </trkpt>
      <trkpt lat="54.374207" lon="18.56823">
        <ele>44</ele>
        <time>2026-01-01T11:01:22.455Z</time>
      </trkpt>
      <trkpt lat="54.374227" lon="18.568177">
        <ele>44.25</ele>
        <time>2026-01-01T11:01:23.109Z</time>
      </trkpt>
      <trkpt lat="54.374244" lon="18.568134">
        <ele>44.25</ele>
        <time>2026-01-01T11:01:23.647Z</time>
      </trkpt>
      <trkpt lat="54.374416" lon="18.567692">
        <ele>45.25</ele>
        <time>2026-01-01T11:01:29.190Z</time>
      </trkpt>
      <trkpt lat="54.374449" lon="18.567607">
        <ele>45.5</ele>
        <time>2026-01-01T11:01:30.261Z</time>
      </trkpt>
      <trkpt lat="54.374487" lon="18.567508">
        <ele>45.75</ele>
        <time>2026-01-01T11:01:31.511Z</time>
      </trkpt>
      <trkpt lat="54.374522" lon="18.567397">
        <ele>46</ele>
        <time>2026-01-01T11:01:32.743Z</time>
      </trkpt>
      <trkpt lat="54.374642" lon="18.567517">
        <ele>45.75</ele>
        <time>2026-01-01T11:01:34.923Z</time>
      </trkpt>
      <trkpt lat="54.374795" lon="18.567811">
        <ele>44.75</ele>
        <time>2026-01-01T11:01:38.439Z</time>
      </trkpt>
      <trkpt lat="54.374857" lon="18.567906">
        <ele>44.5</ele>
        <time>2026-01-01T11:01:39.623Z</time>
      </trkpt>
      <trkpt lat="54.374906" lon="18.567946">
        <ele>44.25</ele>
        <time>2026-01-01T11:01:40.356Z</time>
      </trkpt>
      <trkpt lat="54.374977" lon="18.568059">
        <ele>44</ele>
        <time>2026-01-01T11:01:41.665Z</time>
      </trkpt>
      <trkpt lat="54.375017" lon="18.568122">
        <ele>43.75</ele>
        <time>2026-01-01T11:01:42.446Z</time>
      </trkpt>
      <trkpt lat="54.375049" lon="18.568173">
        <ele>43.5</ele>
        <time>2026-01-01T11:01:43.074Z</time>
      </trkpt>
      <trkpt lat="54.375255" lon="18.56851">
        <ele>43</ele>
        <time>2026-01-01T11:01:47.169Z</time>
      </trkpt>
      <trkpt lat="54.375277" lon="18.568545">
        <ele>43</ele>
        <time>2026-01-01T11:01:47.632Z</time>
      </trkpt>
      <trkpt lat="54.375561" lon="18.56905">
        <ele>43</ele>
        <time>2026-01-01T11:01:53.950Z</time>
      </trkpt>
      <trkpt lat="54.375644" lon="18.569207">
        <ele>42.75</ele>
        <time>2026-01-01T11:01:55.928Z</time>
      </trkpt>
      <trkpt lat="54.376005" lon="18.569848">
        <ele>41.5</ele>
        <time>2026-01-01T11:02:03.538Z</time>
      </trkpt>
      <trkpt lat="54.376082" lon="18.56998">
        <ele>41.5</ele>
        <time>2026-01-01T11:02:05.159Z</time>
      </trkpt>
      <trkpt lat="54.37635" lon="18.570358">
        <ele>42.25</ele>
        <time>2026-01-01T11:02:11.244Z</time>
      </trkpt>
      <trkpt lat="54.376496" lon="18.570465">
        <ele>42.25</ele>
        <time>2026-01-01T11:02:13.917Z</time>
      </trkpt>
      <trkpt lat="54.376523" lon="18.570505">
        <ele>42.25</ele>
        <time>2026-01-01T11:02:14.475Z</time>
      </trkpt>
      <trkpt lat="54.376555" lon="18.570552">
        <ele>42.25</ele>
        <time>2026-01-01T11:02:15.134Z</time>
      </trkpt>
      <trkpt lat="54.376659" lon="18.570755">
        <ele>42</ele>
        <time>2026-01-01T11:02:17.601Z</time>
      </trkpt>
      <trkpt lat="54.376766" lon="18.570934">
        <ele>41.75</ele>
        <time>2026-01-01T11:02:19.942Z</time>
      </trkpt>
      <trkpt lat="54.376973" lon="18.571316">
        <ele>41.5</ele>
        <time>2026-01-01T11:02:24.666Z</time>
      </trkpt>
      <trkpt lat="54.377053" lon="18.57154">
        <ele>41</ele>
        <time>2026-01-01T11:02:27.010Z</time>
      </trkpt>
      <trkpt lat="54.377094" lon="18.571653">
        <ele>41</ele>
        <time>2026-01-01T11:02:28.134Z</time>
      </trkpt>
      <trkpt lat="54.377229" lon="18.57203">
        <ele>40.25</ele>
        <time>2026-01-01T11:02:31.885Z</time>
      </trkpt>
      <trkpt lat="54.377293" lon="18.572198">
        <ele>40</ele>
        <time>2026-01-01T11:02:33.652Z</time>
      </trkpt>
      <trkpt lat="54.377384" lon="18.572343">
        <ele>40</ele>
        <time>2026-01-01T11:02:35.507Z</time>
      </trkpt>
      <trkpt lat="54.377406" lon="18.572392">
        <ele>40</ele>
        <time>2026-01-01T11:02:36.058Z</time>
      </trkpt>
      <trkpt lat="54.37743" lon="18.57245">
        <ele>39.75</ele>
        <time>2026-01-01T11:02:36.691Z</time>
      </trkpt>
      <trkpt lat="54.377465" lon="18.572589">
        <ele>39.75</ele>
        <time>2026-01-01T11:02:38.040Z</time>
      </trkpt>
      <trkpt lat="54.377497" lon="18.572781">
        <ele>39.5</ele>
        <time>2026-01-01T11:02:39.839Z</time>
      </trkpt>
      <trkpt lat="54.37762" lon="18.573281">
        <ele>39.25</ele>
        <time>2026-01-01T11:02:44.801Z</time>
      </trkpt>
      <trkpt lat="54.377655" lon="18.573348">
        <ele>39.25</ele>
        <time>2026-01-01T11:02:45.657Z</time>
      </trkpt>
      <trkpt lat="54.377662" lon="18.573398">
        <ele>39.25</ele>
        <time>2026-01-01T11:02:46.153Z</time>
      </trkpt>
      <trkpt lat="54.377671" lon="18.573474">
        <ele>39.25</ele>
        <time>2026-01-01T11:02:46.901Z</time>
      </trkpt>
      <trkpt lat="54.377686" lon="18.573587">
        <ele>39.25</ele>
        <time>2026-01-01T11:02:48.019Z</time>
      </trkpt>
      <trkpt lat="54.377748" lon="18.573595">
        <ele>39.5</ele>
        <time>2026-01-01T11:02:49.091Z</time>
      </trkpt>
      <trkpt lat="54.3778" lon="18.57363">
        <ele>39.5</ele>
        <time>2026-01-01T11:02:50.054Z</time>
      </trkpt>
      <trkpt lat="54.377878" lon="18.573723">
        <ele>39.75</ele>
        <time>2026-01-01T11:02:51.692Z</time>
      </trkpt>
      <trkpt lat="54.377893" lon="18.573876">
        <ele>39.75</ele>
        <time>2026-01-01T11:02:53.251Z</time>
      </trkpt>
      <trkpt lat="54.377919" lon="18.574053">
        <ele>40</ele>
        <time>2026-01-01T11:02:55.094Z</time>
      </trkpt>
      <trkpt lat="54.378076" lon="18.574787">
        <ele>40.25</ele>
        <time>2026-01-01T11:03:02.923Z</time>
      </trkpt>
      <trkpt lat="54.378235" lon="18.575524">
        <ele>40</ele>
        <time>2026-01-01T11:03:10.404Z</time>
      </trkpt>
      <trkpt lat="54.378351" lon="18.576041">
        <ele>39.5</ele>
        <time>2026-01-01T11:03:15.450Z</time>
      </trkpt>
      <trkpt lat="54.37843" lon="18.576389">
        <ele>39.25</ele>
        <time>2026-01-01T11:03:18.759Z</time>
      </trkpt>
      <trkpt lat="54.378466" lon="18.576557">
        <ele>39</ele>
        <time>2026-01-01T11:03:20.401Z</time>
      </trkpt>
      <trkpt lat="54.378517" lon="18.576852">
        <ele>39</ele>
        <time>2026-01-01T11:03:23.224Z</time>
      </trkpt>
      <trkpt lat="54.378543" lon="18.577049">
        <ele>39</ele>
        <time>2026-01-01T11:03:25.093Z</time>
      </trkpt>
      <trkpt lat="54.378627" lon="18.577728">
        <ele>38.75</ele>
        <time>2026-01-01T11:03:31.517Z</time>
      </trkpt>
      <trkpt lat="54.378627" lon="18.577726">
        <ele>38.75</ele>
        <time>2026-01-01T11:03:31.535Z</time>
      </trkpt>
      <trkpt lat="54.378665" lon="18.578029">
        <ele>38.75</ele>
        <time>2026-01-01T11:03:34.429Z</time>
      </trkpt>
      <trkpt lat="54.37883" lon="18.579359">
        <ele>36.75</ele>
        <time>2026-01-01T11:03:46.192Z</time>
      </trkpt>
      <trkpt lat="54.378864" lon="18.57963">
        <ele>36</ele>
        <time>2026-01-01T11:03:48.475Z</time>
      </trkpt>
      <trkpt lat="54.378897" lon="18.579893">
        <ele>35.25</ele>
        <time>2026-01-01T11:03:50.587Z</time>
      </trkpt>
      <trkpt lat="54.378921" lon="18.580081">
        <ele>35</ele>
        <time>2026-01-01T11:03:52.098Z</time>
      </trkpt>
      <trkpt lat="54.379052" lon="18.581125">
        <ele>35.75</ele>
        <time>2026-01-01T11:04:01.831Z</time>
      </trkpt>
      <trkpt lat="54.379198" lon="18.581945">
        <ele>35.25</ele>
        <time>2026-01-01T11:04:10.075Z</time>
      </trkpt>
      <trkpt lat="54.379306" lon="18.582525">
        <ele>34</ele>
        <time>2026-01-01T11:04:15.343Z</time>
      </trkpt>
      <trkpt lat="54.379372" lon="18.582881">
        <ele>33</ele>
        <time>2026-01-01T11:04:18.213Z</time>
      </trkpt>
      <trkpt lat="54.379433" lon="18.58321">
        <ele>31.75</ele>
        <time>2026-01-01T11:04:20.875Z</time>
      </trkpt>
      <trkpt lat="54.379454" lon="18.583307">
        <ele>31.25</ele>
        <time>2026-01-01T11:04:21.704Z</time>
      </trkpt>
      <trkpt lat="54.379478" lon="18.58342">
        <ele>31.25</ele>
        <time>2026-01-01T11:04:22.686Z</time>
      </trkpt>
      <trkpt lat="54.37949" lon="18.583538">
        <ele>31.25</ele>
        <time>2026-01-01T11:04:23.725Z</time>
      </trkpt>
      <trkpt lat="54.379501" lon="18.583636">
        <ele>31.25</ele>
        <time>2026-01-01T11:04:24.591Z</time>
      </trkpt>
      <trkpt lat="54.379524" lon="18.583769">
        <ele>31.25</ele>
        <time>2026-01-01T11:04:25.885Z</time>
      </trkpt>
      <trkpt lat="54.379573" lon="18.584056">
        <ele>31.25</ele>
        <time>2026-01-01T11:04:28.674Z</time>
      </trkpt>
      <trkpt lat="54.379585" lon="18.584126">
        <ele>31.5</ele>
        <time>2026-01-01T11:04:29.389Z</time>
      </trkpt>
      <trkpt lat="54.379676" lon="18.584651">
        <ele>31.75</ele>
        <time>2026-01-01T11:04:34.760Z</time>
      </trkpt>
      <trkpt lat="54.379731" lon="18.584979">
        <ele>31.75</ele>
        <time>2026-01-01T11:04:38.009Z</time>
      </trkpt>
      <trkpt lat="54.379771" lon="18.585216">
        <ele>31.5</ele>
        <time>2026-01-01T11:04:40.112Z</time>
      </trkpt>
      <trkpt lat="54.379785" lon="18.5853">
        <ele>31.25</ele>
        <time>2026-01-01T11:04:40.856Z</time>
      </trkpt>
      <trkpt lat="54.379855" lon="18.585697">
        <ele>30.25</ele>
        <time>2026-01-01T11:04:44.364Z</time>
      </trkpt>
      <trkpt lat="54.3799" lon="18.585956">
        <ele>29.75</ele>
        <time>2026-01-01T11:04:46.525Z</time>
      </trkpt>
      <trkpt lat="54.379982" lon="18.586431">
        <ele>28.5</ele>
        <time>2026-01-01T11:04:50.427Z</time>
      </trkpt>
      <trkpt lat="54.380037" lon="18.586772">
        <ele>27.75</ele>
        <time>2026-01-01T11:04:53.299Z</time>
      </trkpt>
      <trkpt lat="54.380103" lon="18.587164">
        <ele>27.25</ele>
        <time>2026-01-01T11:04:56.720Z</time>
      </trkpt>
      <trkpt lat="54.380135" lon="18.587509">
        <ele>26.75</ele>
        <time>2026-01-01T11:04:59.666Z</time>
      </trkpt>
      <trkpt lat="54.380135" lon="18.587592">
        <ele>26.75</ele>
        <time>2026-01-01T11:05:00.385Z</time>
      </trkpt>
      <trkpt lat="54.380136" lon="18.587676">
        <ele>26.75</ele>
        <time>2026-01-01T11:05:01.114Z</time>
      </trkpt>
      <trkpt lat="54.380127" lon="18.587896">
        <ele>26.25</ele>
        <time>2026-01-01T11:05:03.053Z</time>
      </trkpt>
      <trkpt lat="54.380278" lon="18.587975">
        <ele>26</ele>
        <time>2026-01-01T11:05:05.421Z</time>
      </trkpt>
      <trkpt lat="54.380322" lon="18.587998">
        <ele>26</ele>
        <time>2026-01-01T11:05:06.130Z</time>
      </trkpt>
      <trkpt lat="54.380417" lon="18.588037">
        <ele>26</ele>
        <time>2026-01-01T11:05:07.641Z</time>
      </trkpt>
      <trkpt lat="54.3805" lon="18.588052">
        <ele>25.75</ele>
        <time>2026-01-01T11:05:08.935Z</time>
      </trkpt>
      <trkpt lat="54.380577" lon="18.588053">
        <ele>25.75</ele>
        <time>2026-01-01T11:05:10.155Z</time>
      </trkpt>
      <trkpt lat="54.380694" lon="18.588037">
        <ele>25.75</ele>
        <time>2026-01-01T11:05:12.043Z</time>
      </trkpt>
      <trkpt lat="54.380729" lon="18.588027">
        <ele>25.75</ele>
        <time>2026-01-01T11:05:12.622Z</time>
      </trkpt>
      <trkpt lat="54.380729" lon="18.588027">
        <ele>25.75</ele>
        <time>2026-01-01T11:05:12.622Z</time>
      </trkpt>
      <trkpt lat="54.380803" lon="18.588006">
        <ele>25.75</ele>
        <time>2026-01-01T11:05:13.847Z</time>
      </trkpt>
      <trkpt lat="54.38086" lon="18.587979">
        <ele>25.75</ele>
        <time>2026-01-01T11:05:14.813Z</time>
      </trkpt>
      <trkpt lat="54.380984" lon="18.587898">
        <ele>25.75</ele>
        <time>2026-01-01T11:05:17.009Z</time>
      </trkpt>
      <trkpt lat="54.38109" lon="18.587788">
        <ele>26</ele>
        <time>2026-01-01T11:05:19.085Z</time>
      </trkpt>
      <trkpt lat="54.381202" lon="18.587635">
        <ele>26.25</ele>
        <time>2026-01-01T11:05:21.486Z</time>
      </trkpt>
      <trkpt lat="54.38122" lon="18.587606">
        <ele>26.25</ele>
        <time>2026-01-01T11:05:21.902Z</time>
      </trkpt>
      <trkpt lat="54.381248" lon="18.587564">
        <ele>26.25</ele>
        <time>2026-01-01T11:05:22.529Z</time>
      </trkpt>
      <trkpt lat="54.381336" lon="18.587432">
        <ele>26.25</ele>
        <time>2026-01-01T11:05:24.517Z</time>
      </trkpt>
      <trkpt lat="54.381395" lon="18.587342">
        <ele>26.25</ele>
        <time>2026-01-01T11:05:25.860Z</time>
      </trkpt>
      <trkpt lat="54.38141" lon="18.58732">
        <ele>26.25</ele>
        <time>2026-01-01T11:05:26.178Z</time>
      </trkpt>
      <trkpt lat="54.381716" lon="18.586855">
        <ele>25.75</ele>
        <time>2026-01-01T11:05:32.766Z</time>
      </trkpt>
      <trkpt lat="54.381906" lon="18.586572">
        <ele>25.75</ele>
        <time>2026-01-01T11:05:36.746Z</time>
      </trkpt>
      <trkpt lat="54.381925" lon="18.586544">
        <ele>25.75</ele>
        <time>2026-01-01T11:05:37.171Z</time>
      </trkpt>
      <trkpt lat="54.382133" lon="18.586233">
        <ele>26.25</ele>
        <time>2026-01-01T11:05:41.862Z</time>
      </trkpt>
      <trkpt lat="54.382406" lon="18.5858">
        <ele>27</ele>
        <time>2026-01-01T11:05:48.397Z</time>
      </trkpt>
      <trkpt lat="54.382449" lon="18.585722">
        <ele>27.25</ele>
        <time>2026-01-01T11:05:49.502Z</time>
      </trkpt>
      <trkpt lat="54.382449" lon="18.585722">
        <ele>27</ele>
        <time>2026-01-01T11:05:49.502Z</time>
      </trkpt>
      <trkpt lat="54.382467" lon="18.585691">
        <ele>27.25</ele>
        <time>2026-01-01T11:05:49.951Z</time>
      </trkpt>
      <trkpt lat="54.382498" lon="18.585636">
        <ele>27.25</ele>
        <time>2026-01-01T11:05:50.730Z</time>
      </trkpt>
      <trkpt lat="54.382515" lon="18.585596">
        <ele>27.5</ele>
        <time>2026-01-01T11:05:51.234Z</time>
      </trkpt>
      <trkpt lat="54.382539" lon="18.585626">
        <ele>27.25</ele>
        <time>2026-01-01T11:05:51.753Z</time>
      </trkpt>
      <trkpt lat="54.382568" lon="18.585639">
        <ele>27.25</ele>
        <time>2026-01-01T11:05:52.277Z</time>
      </trkpt>
      <trkpt lat="54.382598" lon="18.585633">
        <ele>27.25</ele>
        <time>2026-01-01T11:05:52.805Z</time>
      </trkpt>
      <trkpt lat="54.382624" lon="18.585608">
        <ele>27.25</ele>
        <time>2026-01-01T11:05:53.326Z</time>
      </trkpt>
      <trkpt lat="54.382643" lon="18.585568">
        <ele>27.25</ele>
        <time>2026-01-01T11:05:53.851Z</time>
      </trkpt>
      <trkpt lat="54.382652" lon="18.585518">
        <ele>27.5</ele>
        <time>2026-01-01T11:05:54.383Z</time>
      </trkpt>
      <trkpt lat="54.382649" lon="18.585466">
        <ele>27.5</ele>
        <time>2026-01-01T11:05:54.915Z</time>
      </trkpt>
      <trkpt lat="54.382635" lon="18.58542">
        <ele>27.75</ele>
        <time>2026-01-01T11:05:55.443Z</time>
      </trkpt>
      <trkpt lat="54.382671" lon="18.585373">
        <ele>27.75</ele>
        <time>2026-01-01T11:05:56.233Z</time>
      </trkpt>
      <trkpt lat="54.382696" lon="18.585339">
        <ele>27.75</ele>
        <time>2026-01-01T11:05:56.790Z</time>
      </trkpt>
      <trkpt lat="54.383023" lon="18.584873">
        <ele>28.5</ele>
        <time>2026-01-01T11:06:04.196Z</time>
      </trkpt>
      <trkpt lat="54.383193" lon="18.584608">
        <ele>28.5</ele>
        <time>2026-01-01T11:06:08.147Z</time>
      </trkpt>
      <trkpt lat="54.383331" lon="18.584379">
        <ele>28.75</ele>
        <time>2026-01-01T11:06:11.351Z</time>
      </trkpt>
      <trkpt lat="54.383405" lon="18.584261">
        <ele>28.75</ele>
        <time>2026-01-01T11:06:13.037Z</time>
      </trkpt>
      <trkpt lat="54.383675" lon="18.583764">
        <ele>28.75</ele>
        <time>2026-01-01T11:06:19.612Z</time>
      </trkpt>
      <trkpt lat="54.383753" lon="18.583625">
        <ele>28.75</ele>
        <time>2026-01-01T11:06:21.420Z</time>
      </trkpt>
      <trkpt lat="54.38389" lon="18.583371">
        <ele>28.5</ele>
        <time>2026-01-01T11:06:24.597Z</time>
      </trkpt>
      <trkpt lat="54.384097" lon="18.582986">
        <ele>28.5</ele>
        <time>2026-01-01T11:06:29.494Z</time>
      </trkpt>
      <trkpt lat="54.384506" lon="18.582238">
        <ele>28</ele>
        <time>2026-01-01T11:06:39.017Z</time>
      </trkpt>
      <trkpt lat="54.384565" lon="18.582124">
        <ele>28</ele>
        <time>2026-01-01T11:06:40.421Z</time>
      </trkpt>
      <trkpt lat="54.384862" lon="18.581573">
        <ele>27.5</ele>
        <time>2026-01-01T11:06:47.262Z</time>
      </trkpt>
      <trkpt lat="54.384918" lon="18.58147">
        <ele>27.75</ele>
        <time>2026-01-01T11:06:48.578Z</time>
      </trkpt>
      <trkpt lat="54.38498" lon="18.581356">
        <ele>27.75</ele>
        <time>2026-01-01T11:06:50.158Z</time>
      </trkpt>
      <trkpt lat="54.385594" lon="18.580231">
        <ele>29</ele>
        <time>2026-01-01T11:07:05.753Z</time>
      </trkpt>
      <trkpt lat="54.38563" lon="18.580163">
        <ele>29</ele>
        <time>2026-01-01T11:07:06.667Z</time>
      </trkpt>
      <trkpt lat="54.385706" lon="18.580023">
        <ele>29</ele>
        <time>2026-01-01T11:07:08.488Z</time>
      </trkpt>
      <trkpt lat="54.385777" lon="18.579896">
        <ele>29</ele>
        <time>2026-01-01T11:07:10.131Z</time>
      </trkpt>
      <trkpt lat="54.385821" lon="18.579818">
        <ele>29</ele>
        <time>2026-01-01T11:07:11.144Z</time>
      </trkpt>
      <trkpt lat="54.386008" lon="18.579519">
        <ele>28.75</ele>
        <time>2026-01-01T11:07:15.240Z</time>
      </trkpt>
      <trkpt lat="54.386447" lon="18.578887">
        <ele>28</ele>
        <time>2026-01-01T11:07:24.180Z</time>
      </trkpt>
      <trkpt lat="54.386872" lon="18.578267">
        <ele>27.25</ele>
        <time>2026-01-01T11:07:32.753Z</time>
      </trkpt>
      <trkpt lat="54.386922" lon="18.578194">
        <ele>27.5</ele>
        <time>2026-01-01T11:07:33.852Z</time>
      </trkpt>
      <trkpt lat="54.387003" lon="18.578076">
        <ele>28</ele>
        <time>2026-01-01T11:07:35.832Z</time>
      </trkpt>
      <trkpt lat="54.38708" lon="18.577963">
        <ele>28.25</ele>
        <time>2026-01-01T11:07:37.720Z</time>
      </trkpt>
      <trkpt lat="54.387126" lon="18.577905">
        <ele>28.5</ele>
        <time>2026-01-01T11:07:38.743Z</time>
      </trkpt>
      <trkpt lat="54.387238" lon="18.577773">
        <ele>28.75</ele>
        <time>2026-01-01T11:07:41.154Z</time>
      </trkpt>
      <trkpt lat="54.387425" lon="18.577591">
        <ele>28.75</ele>
        <time>2026-01-01T11:07:44.943Z</time>
      </trkpt>
      <trkpt lat="54.38751" lon="18.577519">
        <ele>28.75</ele>
        <time>2026-01-01T11:07:46.544Z</time>
      </trkpt>
      <trkpt lat="54.387657" lon="18.577432">
        <ele>28.75</ele>
        <time>2026-01-01T11:07:49.132Z</time>
      </trkpt>
      <trkpt lat="54.388053" lon="18.577284">
        <ele>28.5</ele>
        <time>2026-01-01T11:07:55.642Z</time>
      </trkpt>
      <trkpt lat="54.38826" lon="18.5773">
        <ele>28.25</ele>
        <time>2026-01-01T11:07:58.835Z</time>
      </trkpt>
      <trkpt lat="54.388399" lon="18.577299">
        <ele>28</ele>
        <time>2026-01-01T11:08:00.886Z</time>
      </trkpt>
      <trkpt lat="54.388433" lon="18.577297">
        <ele>27.75</ele>
        <time>2026-01-01T11:08:01.386Z</time>
      </trkpt>
      <trkpt lat="54.388557" lon="18.577281">
        <ele>27.5</ele>
        <time>2026-01-01T11:08:03.216Z</time>
      </trkpt>
      <trkpt lat="54.388623" lon="18.577264">
        <ele>27.25</ele>
        <time>2026-01-01T11:08:04.180Z</time>
      </trkpt>
      <trkpt lat="54.388723" lon="18.577209">
        <ele>27</ele>
        <time>2026-01-01T11:08:05.743Z</time>
      </trkpt>
      <trkpt lat="54.388815" lon="18.577126">
        <ele>26.75</ele>
        <time>2026-01-01T11:08:07.286Z</time>
      </trkpt>
      <trkpt lat="54.388954" lon="18.576943">
        <ele>26.75</ele>
        <time>2026-01-01T11:08:09.887Z</time>
      </trkpt>
      <trkpt lat="54.38909" lon="18.576528">
        <ele>27.5</ele>
        <time>2026-01-01T11:08:14.496Z</time>
      </trkpt>
      <trkpt lat="54.389273" lon="18.575974">
        <ele>28.5</ele>
        <time>2026-01-01T11:08:21.279Z</time>
      </trkpt>
      <trkpt lat="54.389319" lon="18.575828">
        <ele>29</ele>
        <time>2026-01-01T11:08:23.047Z</time>
      </trkpt>
      <trkpt lat="54.389326" lon="18.575805">
        <ele>29</ele>
        <time>2026-01-01T11:08:23.323Z</time>
      </trkpt>
      <trkpt lat="54.389361" lon="18.575697">
        <ele>29</ele>
        <time>2026-01-01T11:08:24.640Z</time>
      </trkpt>
      <trkpt lat="54.389562" lon="18.575066">
        <ele>29.75</ele>
        <time>2026-01-01T11:08:32.116Z</time>
      </trkpt>
      <trkpt lat="54.389754" lon="18.57448">
        <ele>30.75</ele>
        <time>2026-01-01T11:08:39.091Z</time>
      </trkpt>
      <trkpt lat="54.389781" lon="18.5744">
        <ele>30.75</ele>
        <time>2026-01-01T11:08:40.049Z</time>
      </trkpt>
      <trkpt lat="54.389834" lon="18.57425">
        <ele>31</ele>
        <time>2026-01-01T11:08:41.868Z</time>
      </trkpt>
      <trkpt lat="54.389907" lon="18.574049">
        <ele>31.25</ele>
        <time>2026-01-01T11:08:44.265Z</time>
      </trkpt>
      <trkpt lat="54.38994" lon="18.573963">
        <ele>31.25</ele>
        <time>2026-01-01T11:08:45.307Z</time>
      </trkpt>
      <trkpt lat="54.390161" lon="18.573389">
        <ele>31.75</ele>
        <time>2026-01-01T11:08:52.244Z</time>
      </trkpt>
      <trkpt lat="54.390268" lon="18.573131">
        <ele>32</ele>
        <time>2026-01-01T11:08:55.431Z</time>
      </trkpt>
      <trkpt lat="54.390554" lon="18.572446">
        <ele>32.5</ele>
        <time>2026-01-01T11:09:03.852Z</time>
      </trkpt>
      <trkpt lat="54.390839" lon="18.571707">
        <ele>32.75</ele>
        <time>2026-01-01T11:09:12.569Z</time>
      </trkpt>
      <trkpt lat="54.390867" lon="18.571633">
        <ele>33</ele>
        <time>2026-01-01T11:09:13.408Z</time>
      </trkpt>
      <trkpt lat="54.390936" lon="18.571449">
        <ele>33</ele>
        <time>2026-01-01T11:09:15.415Z</time>
      </trkpt>
      <trkpt lat="54.390973" lon="18.571576">
        <ele>32.75</ele>
        <time>2026-01-01T11:09:16.717Z</time>
      </trkpt>
      <trkpt lat="54.390991" lon="18.571651">
        <ele>32.5</ele>
        <time>2026-01-01T11:09:17.439Z</time>
      </trkpt>
      <trkpt lat="54.391148" lon="18.572272">
        <ele>31.75</ele>
        <time>2026-01-01T11:09:23.472Z</time>
      </trkpt>
      <trkpt lat="54.391196" lon="18.572466">
        <ele>31.5</ele>
        <time>2026-01-01T11:09:25.266Z</time>
      </trkpt>
      <trkpt lat="54.391309" lon="18.5729">
        <ele>30.75</ele>
        <time>2026-01-01T11:09:29.262Z</time>
      </trkpt>
      <trkpt lat="54.391339" lon="18.573014">
        <ele>30.5</ele>
        <time>2026-01-01T11:09:30.313Z</time>
      </trkpt>
      <trkpt lat="54.391564" lon="18.573936">
        <ele>29.25</ele>
        <time>2026-01-01T11:09:38.809Z</time>
      </trkpt>
      <trkpt lat="54.392079" lon="18.57597">
        <ele>26.25</ele>
        <time>2026-01-01T11:09:57.793Z</time>
      </trkpt>
      <trkpt lat="54.39211" lon="18.576098">
        <ele>26</ele>
        <time>2026-01-01T11:09:58.983Z</time>
      </trkpt>
      <trkpt lat="54.392116" lon="18.57612">
        <ele>26</ele>
        <time>2026-01-01T11:09:59.195Z</time>
      </trkpt>
      <trkpt lat="54.392136" lon="18.576191">
        <ele>25.75</ele>
        <time>2026-01-01T11:09:59.884Z</time>
      </trkpt>
      <trkpt lat="54.392151" lon="18.576249">
        <ele>25.75</ele>
        <time>2026-01-01T11:10:00.438Z</time>
      </trkpt>
      <trkpt lat="54.392166" lon="18.576309">
        <ele>25.5</ele>
        <time>2026-01-01T11:10:00.992Z</time>
      </trkpt>
      <trkpt lat="54.392184" lon="18.576378">
        <ele>25.5</ele>
        <time>2026-01-01T11:10:01.634Z</time>
      </trkpt>
      <trkpt lat="54.392301" lon="18.576211">
        <ele>25.5</ele>
        <time>2026-01-01T11:10:03.875Z</time>
      </trkpt>
      <trkpt lat="54.392458" lon="18.575984">
        <ele>24.75</ele>
        <time>2026-01-01T11:10:06.899Z</time>
      </trkpt>
      <trkpt lat="54.392458" lon="18.575984">
        <ele>24.75</ele>
        <time>2026-01-01T11:10:06.899Z</time>
      </trkpt>
      <trkpt lat="54.392458" lon="18.575984">
        <ele>24.75</ele>
        <time>2026-01-01T11:10:06.899Z</time>
      </trkpt>
      <trkpt lat="54.392504" lon="18.575919">
        <ele>24.75</ele>
        <time>2026-01-01T11:10:07.785Z</time>
      </trkpt>
      <trkpt lat="54.393567" lon="18.574393">
        <ele>23.5</ele>
        <time>2026-01-01T11:10:29.303Z</time>
      </trkpt>
      <trkpt lat="54.393961" lon="18.573835">
        <ele>23.5</ele>
        <time>2026-01-01T11:10:37.402Z</time>
      </trkpt>
      <trkpt lat="54.394486" lon="18.57311">
        <ele>23.5</ele>
        <time>2026-01-01T11:10:48.412Z</time>
      </trkpt>
      <trkpt lat="54.394621" lon="18.572937">
        <ele>23.5</ele>
        <time>2026-01-01T11:10:51.165Z</time>
      </trkpt>
      <trkpt lat="54.394937" lon="18.572626">
        <ele>23.75</ele>
        <time>2026-01-01T11:10:57.243Z</time>
      </trkpt>
      <trkpt lat="54.395529" lon="18.572072">
        <ele>24</ele>
        <time>2026-01-01T11:11:08.500Z</time>
      </trkpt>
      <trkpt lat="54.395916" lon="18.571704">
        <ele>23.75</ele>
        <time>2026-01-01T11:11:15.730Z</time>
      </trkpt>
      <trkpt lat="54.396193" lon="18.571428">
        <ele>24.5</ele>
        <time>2026-01-01T11:11:21.118Z</time>
      </trkpt>
      <trkpt lat="54.396534" lon="18.571034">
        <ele>26.5</ele>
        <time>2026-01-01T11:11:28.929Z</time>
      </trkpt>
      <trkpt lat="54.397083" lon="18.570476">
        <ele>29</ele>
        <time>2026-01-01T11:11:41.272Z</time>
      </trkpt>
      <trkpt lat="54.398496" lon="18.569076">
        <ele>30.25</ele>
        <time>2026-01-01T11:12:09.900Z</time>
      </trkpt>
      <trkpt lat="54.398903" lon="18.568666">
        <ele>28.75</ele>
        <time>2026-01-01T11:12:17.570Z</time>
      </trkpt>
      <trkpt lat="54.398954" lon="18.568615">
        <ele>28.75</ele>
        <time>2026-01-01T11:12:18.406Z</time>
      </trkpt>
      <trkpt lat="54.399026" lon="18.568543">
        <ele>28.25</ele>
        <time>2026-01-01T11:12:19.595Z</time>
      </trkpt>
      <trkpt lat="54.399133" lon="18.56845">
        <ele>27.75</ele>
        <time>2026-01-01T11:12:21.307Z</time>
      </trkpt>
      <trkpt lat="54.399289" lon="18.568321">
        <ele>27.5</ele>
        <time>2026-01-01T11:12:23.779Z</time>
      </trkpt>
      <trkpt lat="54.39959" lon="18.568096">
        <ele>27.5</ele>
        <time>2026-01-01T11:12:28.752Z</time>
      </trkpt>
      <trkpt lat="54.401903" lon="18.566376">
        <ele>28</ele>
        <time>2026-01-01T11:13:10.273Z</time>
      </trkpt>
      <trkpt lat="54.402679" lon="18.565809">
        <ele>27.75</ele>
        <time>2026-01-01T11:13:24.102Z</time>
      </trkpt>
      <trkpt lat="54.402846" lon="18.565682">
        <ele>27.75</ele>
        <time>2026-01-01T11:13:27.056Z</time>
      </trkpt>
      <trkpt lat="54.402895" lon="18.565644">
        <ele>27.75</ele>
        <time>2026-01-01T11:13:27.934Z</time>
      </trkpt>
      <trkpt lat="54.403272" lon="18.565341">
        <ele>28.25</ele>
        <time>2026-01-01T11:13:34.971Z</time>
      </trkpt>
      <trkpt lat="54.403893" lon="18.564862">
        <ele>28.5</ele>
        <time>2026-01-01T11:13:46.438Z</time>
      </trkpt>
      <trkpt lat="54.404324" lon="18.56455">
        <ele>28.75</ele>
        <time>2026-01-01T11:13:54.232Z</time>
      </trkpt>
      <trkpt lat="54.405026" lon="18.564044">
        <ele>29</ele>
        <time>2026-01-01T11:14:06.902Z</time>
      </trkpt>
      <trkpt lat="54.405104" lon="18.563988">
        <ele>29</ele>
        <time>2026-01-01T11:14:08.296Z</time>
      </trkpt>
      <trkpt lat="54.405162" lon="18.563948">
        <ele>29</ele>
        <time>2026-01-01T11:14:09.317Z</time>
      </trkpt>
      <trkpt lat="54.405222" lon="18.563908">
        <ele>29</ele>
        <time>2026-01-01T11:14:10.368Z</time>
      </trkpt>
      <trkpt lat="54.405337" lon="18.563841">
        <ele>29</ele>
        <time>2026-01-01T11:14:12.352Z</time>
      </trkpt>
      <trkpt lat="54.405429" lon="18.563802">
        <ele>29</ele>
        <time>2026-01-01T11:14:13.900Z</time>
      </trkpt>
      <trkpt lat="54.405695" lon="18.563727">
        <ele>29</ele>
        <time>2026-01-01T11:14:18.305Z</time>
      </trkpt>
      <trkpt lat="54.406083" lon="18.563633">
        <ele>29</ele>
        <time>2026-01-01T11:14:24.709Z</time>
      </trkpt>
      <trkpt lat="54.406287" lon="18.563583">
        <ele>29</ele>
        <time>2026-01-01T11:14:28.077Z</time>
      </trkpt>
      <trkpt lat="54.406962" lon="18.56342">
        <ele>29</ele>
        <time>2026-01-01T11:14:39.218Z</time>
      </trkpt>
      <trkpt lat="54.407057" lon="18.563394">
        <ele>29</ele>
        <time>2026-01-01T11:14:40.790Z</time>
      </trkpt>
      <trkpt lat="54.407786" lon="18.563208">
        <ele>28.25</ele>
        <time>2026-01-01T11:14:52.349Z</time>
      </trkpt>
      <trkpt lat="54.407878" lon="18.563185">
        <ele>28.5</ele>
        <time>2026-01-01T11:14:53.850Z</time>
      </trkpt>
      <trkpt lat="54.407999" lon="18.563171">
        <ele>28.75</ele>
        <time>2026-01-01T11:14:56.037Z</time>
      </trkpt>
      <trkpt lat="54.408394" lon="18.563072">
        <ele>29</ele>
        <time>2026-01-01T11:15:02.896Z</time>
      </trkpt>
      <trkpt lat="54.408434" lon="18.563061">
        <ele>29</ele>
        <time>2026-01-01T11:15:03.576Z</time>
      </trkpt>
      <trkpt lat="54.408434" lon="18.563061">
        <ele>29</ele>
        <time>2026-01-01T11:15:03.576Z</time>
      </trkpt>
      <trkpt lat="54.408453" lon="18.563057">
        <ele>29</ele>
        <time>2026-01-01T11:15:03.892Z</time>
      </trkpt>
      <trkpt lat="54.408529" lon="18.563031">
        <ele>29</ele>
        <time>2026-01-01T11:15:05.158Z</time>
      </trkpt>
      <trkpt lat="54.408605" lon="18.562966">
        <ele>28.75</ele>
        <time>2026-01-01T11:15:06.545Z</time>
      </trkpt>
      <trkpt lat="54.408599" lon="18.562924">
        <ele>29</ele>
        <time>2026-01-01T11:15:06.956Z</time>
      </trkpt>
      <trkpt lat="54.408591" lon="18.562869">
        <ele>29</ele>
        <time>2026-01-01T11:15:07.495Z</time>
      </trkpt>
      <trkpt lat="54.408586" lon="18.562829">
        <ele>29</ele>
        <time>2026-01-01T11:15:07.878Z</time>
      </trkpt>
      <trkpt lat="54.40856" lon="18.562638">
        <ele>29.25</ele>
        <time>2026-01-01T11:15:09.714Z</time>
      </trkpt>
      <trkpt lat="54.408601" lon="18.562623">
        <ele>29.25</ele>
        <time>2026-01-01T11:15:10.381Z</time>
      </trkpt>
      <trkpt lat="54.408605" lon="18.562618">
        <ele>29</ele>
        <time>2026-01-01T11:15:10.459Z</time>
      </trkpt>
      <trkpt lat="54.408814" lon="18.562387">
        <ele>28.75</ele>
        <time>2026-01-01T11:15:14.408Z</time>
      </trkpt>
      <trkpt lat="54.40888" lon="18.562304">
        <ele>28.5</ele>
        <time>2026-01-01T11:15:15.671Z</time>
      </trkpt>
      <trkpt lat="54.408935" lon="18.562261">
        <ele>28.5</ele>
        <time>2026-01-01T11:15:16.577Z</time>
      </trkpt>
      <trkpt lat="54.409021" lon="18.562243">
        <ele>28.25</ele>
        <time>2026-01-01T11:15:17.876Z</time>
      </trkpt>
      <trkpt lat="54.409173" lon="18.562261">
        <ele>28</ele>
        <time>2026-01-01T11:15:20.148Z</time>
      </trkpt>
      <trkpt lat="54.409543" lon="18.562075">
        <ele>28</ele>
        <time>2026-01-01T11:15:26.190Z</time>
      </trkpt>
      <trkpt lat="54.409593" lon="18.562053">
        <ele>28</ele>
        <time>2026-01-01T11:15:27.033Z</time>
      </trkpt>
      <trkpt lat="54.409657" lon="18.562025">
        <ele>28</ele>
        <time>2026-01-01T11:15:28.112Z</time>
      </trkpt>
      <trkpt lat="54.409658" lon="18.562031">
        <ele>28</ele>
        <time>2026-01-01T11:15:28.171Z</time>
      </trkpt>
      <trkpt lat="54.409657" lon="18.562025">
        <ele>28</ele>
        <time>2026-01-01T11:15:28.230Z</time>
      </trkpt>
      <trkpt lat="54.409251" lon="18.559675">
        <ele>28.5</ele>
        <time>2026-01-01T11:15:51.886Z</time>
      </trkpt>
      <trkpt lat="54.4091" lon="18.558915">
        <ele>30.25</ele>
        <time>2026-01-01T11:15:59.931Z</time>
      </trkpt>
      <trkpt lat="54.409089" lon="18.558796">
        <ele>30.25</ele>
        <time>2026-01-01T11:16:01.236Z</time>
      </trkpt>
      <trkpt lat="54.409077" lon="18.558745">
        <ele>30.25</ele>
        <time>2026-01-01T11:16:01.794Z</time>
      </trkpt>
      <trkpt lat="54.409055" lon="18.558646">
        <ele>30.5</ele>
        <time>2026-01-01T11:16:02.870Z</time>
      </trkpt>
      <trkpt lat="54.408899" lon="18.557955">
        <ele>30.75</ele>
        <time>2026-01-01T11:16:10.186Z</time>
      </trkpt>
      <trkpt lat="54.408882" lon="18.557864">
        <ele>30.75</ele>
        <time>2026-01-01T11:16:11.142Z</time>
      </trkpt>
      <trkpt lat="54.408825" lon="18.557543">
        <ele>31.25</ele>
        <time>2026-01-01T11:16:14.587Z</time>
      </trkpt>
      <trkpt lat="54.408816" lon="18.557454">
        <ele>31.25</ele>
        <time>2026-01-01T11:16:15.519Z</time>
      </trkpt>
      <trkpt lat="54.408815" lon="18.55725">
        <ele>31.5</ele>
        <time>2026-01-01T11:16:17.608Z</time>
      </trkpt>
      <trkpt lat="54.408815" lon="18.557059">
        <ele>31.75</ele>
        <time>2026-01-01T11:16:19.574Z</time>
      </trkpt>
      <trkpt lat="54.408816" lon="18.55702">
        <ele>31.75</ele>
        <time>2026-01-01T11:16:19.976Z</time>
      </trkpt>
      <trkpt lat="54.408818" lon="18.556976">
        <ele>31.75</ele>
        <time>2026-01-01T11:16:20.433Z</time>
      </trkpt>
      <trkpt lat="54.408825" lon="18.556856">
        <ele>32</ele>
        <time>2026-01-01T11:16:21.683Z</time>
      </trkpt>
      <trkpt lat="54.408834" lon="18.556728">
        <ele>32</ele>
        <time>2026-01-01T11:16:23.020Z</time>
      </trkpt>
      <trkpt lat="54.408839" lon="18.556647">
        <ele>32</ele>
        <time>2026-01-01T11:16:23.854Z</time>
      </trkpt>
      <trkpt lat="54.408829" lon="18.556582">
        <ele>32.25</ele>
        <time>2026-01-01T11:16:24.541Z</time>
      </trkpt>
      <trkpt lat="54.408735" lon="18.556566">
        <ele>32.5</ele>
        <time>2026-01-01T11:16:26.192Z</time>
      </trkpt>
      <trkpt lat="54.408654" lon="18.556553">
        <ele>32.75</ele>
        <time>2026-01-01T11:16:27.607Z</time>
      </trkpt>
      <trkpt lat="54.408674" lon="18.556247">
        <ele>32.75</ele>
        <time>2026-01-01T11:16:30.687Z</time>
      </trkpt>
      <trkpt lat="54.408691" lon="18.556152">
        <ele>32.75</ele>
        <time>2026-01-01T11:16:31.674Z</time>
      </trkpt>
      <trkpt lat="54.408749" lon="18.555828">
        <ele>32.75</ele>
        <time>2026-01-01T11:16:35.007Z</time>
      </trkpt>
      <trkpt lat="54.408766" lon="18.555739">
        <ele>32.75</ele>
        <time>2026-01-01T11:16:35.885Z</time>
      </trkpt>
      <trkpt lat="54.408893" lon="18.555258">
        <ele>32.5</ele>
        <time>2026-01-01T11:16:40.753Z</time>
      </trkpt>
      <trkpt lat="54.408913" lon="18.555212">
        <ele>32.5</ele>
        <time>2026-01-01T11:16:41.274Z</time>
      </trkpt>
      <trkpt lat="54.408973" lon="18.555139">
        <ele>32.25</ele>
        <time>2026-01-01T11:16:42.421Z</time>
      </trkpt>
      <trkpt lat="54.409042" lon="18.555033">
        <ele>32.25</ele>
        <time>2026-01-01T11:16:43.873Z</time>
      </trkpt>
      <trkpt lat="54.40908" lon="18.554935">
        <ele>32</ele>
        <time>2026-01-01T11:16:44.946Z</time>
      </trkpt>
      <trkpt lat="54.409144" lon="18.554758">
        <ele>32</ele>
        <time>2026-01-01T11:16:46.863Z</time>
      </trkpt>
      <trkpt lat="54.409225" lon="18.554552">
        <ele>32</ele>
        <time>2026-01-01T11:16:49.150Z</time>
      </trkpt>
      <trkpt lat="54.40934" lon="18.554477">
        <ele>32</ele>
        <time>2026-01-01T11:16:51.212Z</time>
      </trkpt>
      <trkpt lat="54.409366" lon="18.554463">
        <ele>32</ele>
        <time>2026-01-01T11:16:51.681Z</time>
      </trkpt>
      <trkpt lat="54.409647" lon="18.554298">
        <ele>32.75</ele>
        <time>2026-01-01T11:16:56.802Z</time>
      </trkpt>
      <trkpt lat="54.409732" lon="18.554214">
        <ele>33</ele>
        <time>2026-01-01T11:16:58.620Z</time>
      </trkpt>
      <trkpt lat="54.40988" lon="18.554025">
        <ele>34</ele>
        <time>2026-01-01T11:17:02.220Z</time>
      </trkpt>
      <trkpt lat="54.409942" lon="18.553928">
        <ele>34.5</ele>
        <time>2026-01-01T11:17:04.008Z</time>
      </trkpt>
      <trkpt lat="54.410027" lon="18.553758">
        <ele>35.75</ele>
        <time>2026-01-01T11:17:06.881Z</time>
      </trkpt>
      <trkpt lat="54.410083" lon="18.553602">
        <ele>37.5</ele>
        <time>2026-01-01T11:17:09.268Z</time>
      </trkpt>
      <trkpt lat="54.410165" lon="18.553323">
        <ele>40.25</ele>
        <time>2026-01-01T11:17:13.440Z</time>
      </trkpt>
      <trkpt lat="54.41028" lon="18.552852">
        <ele>43.5</ele>
        <time>2026-01-01T11:17:20.276Z</time>
      </trkpt>
      <trkpt lat="54.410299" lon="18.552766">
        <ele>44.25</ele>
        <time>2026-01-01T11:17:21.455Z</time>
      </trkpt>
      <trkpt lat="54.41035" lon="18.55249">
        <ele>45.75</ele>
        <time>2026-01-01T11:17:25.169Z</time>
      </trkpt>
      <trkpt lat="54.410367" lon="18.552263">
        <ele>46.5</ele>
        <time>2026-01-01T11:17:27.947Z</time>
      </trkpt>
      <trkpt lat="54.410393" lon="18.551757">
        <ele>48</ele>
        <time>2026-01-01T11:17:34.113Z</time>
      </trkpt>
      <trkpt lat="54.410415" lon="18.550799">
        <ele>48.75</ele>
        <time>2026-01-01T11:17:44.449Z</time>
      </trkpt>
      <trkpt lat="54.410419" lon="18.550279">
        <ele>49.25</ele>
        <time>2026-01-01T11:17:49.717Z</time>
      </trkpt>
      <trkpt lat="54.410418" lon="18.550016">
        <ele>49.25</ele>
        <time>2026-01-01T11:17:52.366Z</time>
      </trkpt>
      <trkpt lat="54.410418" lon="18.549997">
        <ele>49.5</ele>
        <time>2026-01-01T11:17:52.554Z</time>
      </trkpt>
      <trkpt lat="54.410463" lon="18.549837">
        <ele>49.5</ele>
        <time>2026-01-01T11:17:54.315Z</time>
      </trkpt>
      <trkpt lat="54.410685" lon="18.5492">
        <ele>49.75</ele>
        <time>2026-01-01T11:18:01.604Z</time>
      </trkpt>
      <trkpt lat="54.410708" lon="18.549145">
        <ele>49.75</ele>
        <time>2026-01-01T11:18:02.257Z</time>
      </trkpt>
      <trkpt lat="54.410733" lon="18.549087">
        <ele>49.75</ele>
        <time>2026-01-01T11:18:02.943Z</time>
      </trkpt>
      <trkpt lat="54.410854" lon="18.548826">
        <ele>49.5</ele>
        <time>2026-01-01T11:18:06.117Z</time>
      </trkpt>
      <trkpt lat="54.410924" lon="18.548692">
        <ele>49.75</ele>
        <time>2026-01-01T11:18:07.887Z</time>
      </trkpt>
      <trkpt lat="54.411132" lon="18.548341">
        <ele>50.25</ele>
        <time>2026-01-01T11:18:12.983Z</time>
      </trkpt>
      <trkpt lat="54.411194" lon="18.54825">
        <ele>50.75</ele>
        <time>2026-01-01T11:18:14.539Z</time>
      </trkpt>
      <trkpt lat="54.411232" lon="18.548195">
        <ele>51</ele>
        <time>2026-01-01T11:18:15.495Z</time>
      </trkpt>
      <trkpt lat="54.41135" lon="18.548047">
        <ele>52</ele>
        <time>2026-01-01T11:18:18.307Z</time>
      </trkpt>
      <trkpt lat="54.411394" lon="18.547996">
        <ele>52.25</ele>
        <time>2026-01-01T11:18:19.388Z</time>
      </trkpt>
      <trkpt lat="54.41143" lon="18.547953">
        <ele>52.5</ele>
        <time>2026-01-01T11:18:20.281Z</time>
      </trkpt>
      <trkpt lat="54.411898" lon="18.547599">
        <ele>55.5</ele>
        <time>2026-01-01T11:18:30.677Z</time>
      </trkpt>
      <trkpt lat="54.412136" lon="18.547454">
        <ele>57</ele>
        <time>2026-01-01T11:18:35.803Z</time>
      </trkpt>
      <trkpt lat="54.412218" lon="18.547405">
        <ele>57.5</ele>
        <time>2026-01-01T11:18:37.626Z</time>
      </trkpt>
      <trkpt lat="54.412463" lon="18.547312">
        <ele>59.75</ele>
        <time>2026-01-01T11:18:42.895Z</time>
      </trkpt>
      <trkpt lat="54.413635" lon="18.547047">
        <ele>66.5</ele>
        <time>2026-01-01T11:19:07.139Z</time>
      </trkpt>
      <trkpt lat="54.413843" lon="18.546995">
        <ele>67.75</ele>
        <time>2026-01-01T11:19:11.382Z</time>
      </trkpt>
      <trkpt lat="54.41399" lon="18.546943">
        <ele>68.5</ele>
        <time>2026-01-01T11:19:14.311Z</time>
      </trkpt>
      <trkpt lat="54.414125" lon="18.546883">
        <ele>69</ele>
        <time>2026-01-01T11:19:16.933Z</time>
      </trkpt>
      <trkpt lat="54.414276" lon="18.546801">
        <ele>69.5</ele>
        <time>2026-01-01T11:19:19.814Z</time>
      </trkpt>
      <trkpt lat="54.414402" lon="18.546709">
        <ele>69.25</ele>
        <time>2026-01-01T11:19:22.509Z</time>
      </trkpt>
      <trkpt lat="54.414661" lon="18.54647">
        <ele>72</ele>
        <time>2026-01-01T11:19:28.291Z</time>
      </trkpt>
      <trkpt lat="54.414872" lon="18.546256">
        <ele>73.75</ele>
        <time>2026-01-01T11:19:33.397Z</time>
      </trkpt>
      <trkpt lat="54.414979" lon="18.546149">
        <ele>75</ele>
        <time>2026-01-01T11:19:35.972Z</time>
      </trkpt>
      <trkpt lat="54.41516" lon="18.545938">
        <ele>76</ele>
        <time>2026-01-01T11:19:40.522Z</time>
      </trkpt>
      <trkpt lat="54.415429" lon="18.545605">
        <ele>77.25</ele>
        <time>2026-01-01T11:19:47.121Z</time>
      </trkpt>
      <trkpt lat="54.415724" lon="18.545171">
        <ele>77.75</ele>
        <time>2026-01-01T11:19:54.151Z</time>
      </trkpt>
      <trkpt lat="54.415846" lon="18.544973">
        <ele>78.25</ele>
        <time>2026-01-01T11:19:57.113Z</time>
      </trkpt>
      <trkpt lat="54.416074" lon="18.544545">
        <ele>83.5</ele>
        <time>2026-01-01T11:20:04.759Z</time>
      </trkpt>
      <trkpt lat="54.416307" lon="18.544041">
        <ele>88.5</ele>
        <time>2026-01-01T11:20:13.514Z</time>
      </trkpt>
      <trkpt lat="54.416852" lon="18.542812">
        <ele>96.5</ele>
        <time>2026-01-01T11:20:33.537Z</time>
      </trkpt>
      <trkpt lat="54.417051" lon="18.54239">
        <ele>96.75</ele>
        <time>2026-01-01T11:20:40.109Z</time>
      </trkpt>
      <trkpt lat="54.417262" lon="18.541888">
        <ele>94.75</ele>
        <time>2026-01-01T11:20:45.325Z</time>
      </trkpt>
      <trkpt lat="54.417383" lon="18.54163">
        <ele>93</ele>
        <time>2026-01-01T11:20:47.664Z</time>
      </trkpt>
      <trkpt lat="54.417476" lon="18.541449">
        <ele>92.75</ele>
        <time>2026-01-01T11:20:49.160Z</time>
      </trkpt>
      <trkpt lat="54.41755" lon="18.541346">
        <ele>91.75</ele>
        <time>2026-01-01T11:20:50.099Z</time>
      </trkpt>
      <trkpt lat="54.417636" lon="18.541269">
        <ele>90.25</ele>
        <time>2026-01-01T11:20:51.055Z</time>
      </trkpt>
      <trkpt lat="54.417708" lon="18.541234">
        <ele>89</ele>
        <time>2026-01-01T11:20:51.764Z</time>
      </trkpt>
      <trkpt lat="54.417784" lon="18.541211">
        <ele>87.25</ele>
        <time>2026-01-01T11:20:52.496Z</time>
      </trkpt>
      <trkpt lat="54.417877" lon="18.54122">
        <ele>85.5</ele>
        <time>2026-01-01T11:20:53.347Z</time>
      </trkpt>
      <trkpt lat="54.418013" lon="18.541289">
        <ele>83.25</ele>
        <time>2026-01-01T11:20:54.648Z</time>
      </trkpt>
      <trkpt lat="54.418201" lon="18.541414">
        <ele>80.75</ele>
        <time>2026-01-01T11:20:56.532Z</time>
      </trkpt>
      <trkpt lat="54.418239" lon="18.541452">
        <ele>80.25</ele>
        <time>2026-01-01T11:20:56.988Z</time>
      </trkpt>
      <trkpt lat="54.41835" lon="18.541544">
        <ele>79.5</ele>
        <time>2026-01-01T11:20:58.317Z</time>
      </trkpt>
      <trkpt lat="54.418456" lon="18.54161">
        <ele>79.25</ele>
        <time>2026-01-01T11:20:59.665Z</time>
      </trkpt>
      <trkpt lat="54.418534" lon="18.541653">
        <ele>79</ele>
        <time>2026-01-01T11:21:00.761Z</time>
      </trkpt>
      <trkpt lat="54.418681" lon="18.541706">
        <ele>78.5</ele>
        <time>2026-01-01T11:21:02.771Z</time>
      </trkpt>
      <trkpt lat="54.418821" lon="18.541729">
        <ele>78</ele>
        <time>2026-01-01T11:21:04.573Z</time>
      </trkpt>
      <trkpt lat="54.419017" lon="18.541716">
        <ele>76</ele>
        <time>2026-01-01T11:21:06.853Z</time>
      </trkpt>
      <trkpt lat="54.419162" lon="18.541667">
        <ele>74</ele>
        <time>2026-01-01T11:21:08.625Z</time>
      </trkpt>
      <trkpt lat="54.419268" lon="18.541613">
        <ele>74</ele>
        <time>2026-01-01T11:21:09.909Z</time>
      </trkpt>
      <trkpt lat="54.419382" lon="18.541526">
        <ele>73.75</ele>
        <time>2026-01-01T11:21:11.454Z</time>
      </trkpt>
      <trkpt lat="54.419669" lon="18.541251">
        <ele>73</ele>
        <time>2026-01-01T11:21:15.768Z</time>
      </trkpt>
      <trkpt lat="54.419754" lon="18.541161">
        <ele>72.25</ele>
        <time>2026-01-01T11:21:17.300Z</time>
      </trkpt>
      <trkpt lat="54.419754" lon="18.541161">
        <ele>72.25</ele>
        <time>2026-01-01T11:21:17.300Z</time>
      </trkpt>
      <trkpt lat="54.419792" lon="18.541122">
        <ele>72.25</ele>
        <time>2026-01-01T11:21:17.979Z</time>
      </trkpt>
      <trkpt lat="54.419864" lon="18.541171">
        <ele>73</ele>
        <time>2026-01-01T11:21:19.244Z</time>
      </trkpt>
      <trkpt lat="54.420142" lon="18.540847">
        <ele>73</ele>
        <time>2026-01-01T11:21:24.734Z</time>
      </trkpt>
      <trkpt lat="54.420343" lon="18.540568">
        <ele>73.5</ele>
        <time>2026-01-01T11:21:29.307Z</time>
      </trkpt>
      <trkpt lat="54.42086" lon="18.539774">
        <ele>73.5</ele>
        <time>2026-01-01T11:21:40.907Z</time>
      </trkpt>
      <trkpt lat="54.420936" lon="18.539645">
        <ele>74.5</ele>
        <time>2026-01-01T11:21:42.842Z</time>
      </trkpt>
      <trkpt lat="54.421084" lon="18.539367">
        <ele>76</ele>
        <time>2026-01-01T11:21:47.394Z</time>
      </trkpt>
      <trkpt lat="54.421182" lon="18.539156">
        <ele>76.75</ele>
        <time>2026-01-01T11:21:50.534Z</time>
      </trkpt>
      <trkpt lat="54.421303" lon="18.538843">
        <ele>77.25</ele>
        <time>2026-01-01T11:21:54.663Z</time>
      </trkpt>
      <trkpt lat="54.421358" lon="18.538677">
        <ele>77.25</ele>
        <time>2026-01-01T11:21:56.662Z</time>
      </trkpt>
      <trkpt lat="54.421388" lon="18.538582">
        <ele>77.25</ele>
        <time>2026-01-01T11:21:57.752Z</time>
      </trkpt>
      <trkpt lat="54.421526" lon="18.538075">
        <ele>77.5</ele>
        <time>2026-01-01T11:22:03.396Z</time>
      </trkpt>
      <trkpt lat="54.421536" lon="18.53804">
        <ele>77.75</ele>
        <time>2026-01-01T11:22:03.788Z</time>
      </trkpt>
      <trkpt lat="54.42168" lon="18.537457">
        <ele>78.25</ele>
        <time>2026-01-01T11:22:10.360Z</time>
      </trkpt>
      <trkpt lat="54.421705" lon="18.537338">
        <ele>79</ele>
        <time>2026-01-01T11:22:11.781Z</time>
      </trkpt>
      <trkpt lat="54.421746" lon="18.537131">
        <ele>80</ele>
        <time>2026-01-01T11:22:14.215Z</time>
      </trkpt>
      <trkpt lat="54.421857" lon="18.536409">
        <ele>83.25</ele>
        <time>2026-01-01T11:22:23.480Z</time>
      </trkpt>
      <trkpt lat="54.421899" lon="18.536154">
        <ele>84</ele>
        <time>2026-01-01T11:22:26.650Z</time>
      </trkpt>
      <trkpt lat="54.421963" lon="18.53583">
        <ele>85</ele>
        <time>2026-01-01T11:22:30.584Z</time>
      </trkpt>
      <trkpt lat="54.422356" lon="18.534256">
        <ele>88</ele>
        <time>2026-01-01T11:22:49.367Z</time>
      </trkpt>
      <trkpt lat="54.422389" lon="18.534122">
        <ele>88.25</ele>
        <time>2026-01-01T11:22:50.933Z</time>
      </trkpt>
      <trkpt lat="54.422771" lon="18.532607">
        <ele>89.25</ele>
        <time>2026-01-01T11:23:07.475Z</time>
      </trkpt>
      <trkpt lat="54.42284" lon="18.532295">
        <ele>89.75</ele>
        <time>2026-01-01T11:23:10.835Z</time>
      </trkpt>
      <trkpt lat="54.422891" lon="18.532003">
        <ele>90</ele>
        <time>2026-01-01T11:23:13.935Z</time>
      </trkpt>
      <trkpt lat="54.422911" lon="18.531814">
        <ele>90</ele>
        <time>2026-01-01T11:23:15.941Z</time>
      </trkpt>
      <trkpt lat="54.422928" lon="18.531484">
        <ele>90.5</ele>
        <time>2026-01-01T11:23:19.385Z</time>
      </trkpt>
      <trkpt lat="54.422925" lon="18.531289">
        <ele>91</ele>
        <time>2026-01-01T11:23:21.436Z</time>
      </trkpt>
      <trkpt lat="54.422836" lon="18.528229">
        <ele>93</ele>
        <time>2026-01-01T11:23:52.348Z</time>
      </trkpt>
      <trkpt lat="54.422813" lon="18.527646">
        <ele>94.75</ele>
        <time>2026-01-01T11:23:58.342Z</time>
      </trkpt>
      <trkpt lat="54.422796" lon="18.52738">
        <ele>95.25</ele>
        <time>2026-01-01T11:24:01.320Z</time>
      </trkpt>
      <trkpt lat="54.42277" lon="18.527147">
        <ele>95.5</ele>
        <time>2026-01-01T11:24:03.830Z</time>
      </trkpt>
      <trkpt lat="54.422677" lon="18.526591">
        <ele>95.5</ele>
        <time>2026-01-01T11:24:09.624Z</time>
      </trkpt>
      <trkpt lat="54.422279" lon="18.52458">
        <ele>95.25</ele>
        <time>2026-01-01T11:24:29.679Z</time>
      </trkpt>
      <trkpt lat="54.421399" lon="18.520296">
        <ele>103.75</ele>
        <time>2026-01-01T11:25:16.965Z</time>
      </trkpt>
      <trkpt lat="54.421309" lon="18.519835">
        <ele>104.75</ele>
        <time>2026-01-01T11:25:22.245Z</time>
      </trkpt>
      <trkpt lat="54.421208" lon="18.519249">
        <ele>104.75</ele>
        <time>2026-01-01T11:25:28.463Z</time>
      </trkpt>
      <trkpt lat="54.42114" lon="18.518607">
        <ele>104</ele>
        <time>2026-01-01T11:25:34.384Z</time>
      </trkpt>
      <trkpt lat="54.4211" lon="18.517765">
        <ele>104</ele>
        <time>2026-01-01T11:25:42.107Z</time>
      </trkpt>
      <trkpt lat="54.421092" lon="18.517509">
        <ele>104.25</ele>
        <time>2026-01-01T11:25:44.635Z</time>
      </trkpt>
      <trkpt lat="54.421093" lon="18.517248">
        <ele>104.5</ele>
        <time>2026-01-01T11:25:47.329Z</time>
      </trkpt>
      <trkpt lat="54.421101" lon="18.517049">
        <ele>104.75</ele>
        <time>2026-01-01T11:25:49.418Z</time>
      </trkpt>
      <trkpt lat="54.421119" lon="18.516875">
        <ele>105</ele>
        <time>2026-01-01T11:25:51.307Z</time>
      </trkpt>
      <trkpt lat="54.421154" lon="18.516648">
        <ele>105.5</ele>
        <time>2026-01-01T11:25:53.842Z</time>
      </trkpt>
      <trkpt lat="54.421202" lon="18.516419">
        <ele>106.25</ele>
        <time>2026-01-01T11:25:56.511Z</time>
      </trkpt>
      <trkpt lat="54.421395" lon="18.515617">
        <ele>106.5</ele>
        <time>2026-01-01T11:26:05.489Z</time>
      </trkpt>
      <trkpt lat="54.421489" lon="18.515229">
        <ele>106.75</ele>
        <time>2026-01-01T11:26:09.605Z</time>
      </trkpt>
      <trkpt lat="54.421732" lon="18.514043">
        <ele>105.75</ele>
        <time>2026-01-01T11:26:21.150Z</time>
      </trkpt>
      <trkpt lat="54.421792" lon="18.513704">
        <ele>106.5</ele>
        <time>2026-01-01T11:26:24.479Z</time>
      </trkpt>
      <trkpt lat="54.421925" lon="18.512844">
        <ele>108.5</ele>
        <time>2026-01-01T11:26:34.333Z</time>
      </trkpt>
      <trkpt lat="54.422372" lon="18.509695">
        <ele>113.75</ele>
        <time>2026-01-01T11:27:09.238Z</time>
      </trkpt>
      <trkpt lat="54.422676" lon="18.507554">
        <ele>116.5</ele>
        <time>2026-01-01T11:27:32.535Z</time>
      </trkpt>
      <trkpt lat="54.422703" lon="18.507368">
        <ele>117</ele>
        <time>2026-01-01T11:27:34.544Z</time>
      </trkpt>
      <trkpt lat="54.422762" lon="18.506986">
        <ele>117.5</ele>
        <time>2026-01-01T11:27:38.853Z</time>
      </trkpt>
      <trkpt lat="54.422821" lon="18.506694">
        <ele>118.25</ele>
        <time>2026-01-01T11:27:42.265Z</time>
      </trkpt>
      <trkpt lat="54.422881" lon="18.506452">
        <ele>119</ele>
        <time>2026-01-01T11:27:45.138Z</time>
      </trkpt>
      <trkpt lat="54.422957" lon="18.506191">
        <ele>119.5</ele>
        <time>2026-01-01T11:27:48.330Z</time>
      </trkpt>
      <trkpt lat="54.423069" lon="18.505859">
        <ele>120</ele>
        <time>2026-01-01T11:27:52.313Z</time>
      </trkpt>
      <trkpt lat="54.423174" lon="18.505604">
        <ele>119.75</ele>
        <time>2026-01-01T11:27:55.202Z</time>
      </trkpt>
      <trkpt lat="54.423332" lon="18.505278">
        <ele>118.5</ele>
        <time>2026-01-01T11:27:58.960Z</time>
      </trkpt>
      <trkpt lat="54.423864" lon="18.504281">
        <ele>125.25</ele>
        <time>2026-01-01T11:28:14.204Z</time>
      </trkpt>
      <trkpt lat="54.424018" lon="18.504006">
        <ele>125.75</ele>
        <time>2026-01-01T11:28:18.722Z</time>
      </trkpt>
      <trkpt lat="54.42414" lon="18.503811">
        <ele>125.5</ele>
        <time>2026-01-01T11:28:21.546Z</time>
      </trkpt>
      <trkpt lat="54.424312" lon="18.503589">
        <ele>125.75</ele>
        <time>2026-01-01T11:28:25.163Z</time>
      </trkpt>
      <trkpt lat="54.424457" lon="18.50344">
        <ele>125.75</ele>
        <time>2026-01-01T11:28:27.924Z</time>
      </trkpt>
      <trkpt lat="54.424633" lon="18.503284">
        <ele>125.75</ele>
        <time>2026-01-01T11:28:31.223Z</time>
      </trkpt>
      <trkpt lat="54.424873" lon="18.503126">
        <ele>126.75</ele>
        <time>2026-01-01T11:28:35.724Z</time>
      </trkpt>
      <trkpt lat="54.425067" lon="18.503025">
        <ele>127.5</ele>
        <time>2026-01-01T11:28:39.583Z</time>
      </trkpt>
      <trkpt lat="54.425312" lon="18.502911">
        <ele>128.25</ele>
        <time>2026-01-01T11:28:44.327Z</time>
      </trkpt>
      <trkpt lat="54.426053" lon="18.502627">
        <ele>129.25</ele>
        <time>2026-01-01T11:28:57.692Z</time>
      </trkpt>
      <trkpt lat="54.426395" lon="18.502509">
        <ele>129.5</ele>
        <time>2026-01-01T11:29:03.681Z</time>
      </trkpt>
      <trkpt lat="54.426605" lon="18.502443">
        <ele>129.5</ele>
        <time>2026-01-01T11:29:07.240Z</time>
      </trkpt>
      <trkpt lat="54.427156" lon="18.50227">
        <ele>129.5</ele>
        <time>2026-01-01T11:29:16.395Z</time>
      </trkpt>
      <trkpt lat="54.427425" lon="18.502181">
        <ele>129.25</ele>
        <time>2026-01-01T11:29:20.812Z</time>
      </trkpt>
      <trkpt lat="54.427601" lon="18.502106">
        <ele>129</ele>
        <time>2026-01-01T11:29:23.560Z</time>
      </trkpt>
      <trkpt lat="54.427752" lon="18.502019">
        <ele>128.5</ele>
        <time>2026-01-01T11:29:25.784Z</time>
      </trkpt>
      <trkpt lat="54.42786" lon="18.501942">
        <ele>128</ele>
        <time>2026-01-01T11:29:27.361Z</time>
      </trkpt>
      <trkpt lat="54.427987" lon="18.501826">
        <ele>127.25</ele>
        <time>2026-01-01T11:29:29.367Z</time>
      </trkpt>
      <trkpt lat="54.428103" lon="18.501691">
        <ele>126.25</ele>
        <time>2026-01-01T11:29:31.458Z</time>
      </trkpt>
      <trkpt lat="54.428191" lon="18.501574">
        <ele>126.75</ele>
        <time>2026-01-01T11:29:33.352Z</time>
      </trkpt>
      <trkpt lat="54.428265" lon="18.50146">
        <ele>127.5</ele>
        <time>2026-01-01T11:29:35.161Z</time>
      </trkpt>
      <trkpt lat="54.428396" lon="18.501212">
        <ele>129.25</ele>
        <time>2026-01-01T11:29:39.013Z</time>
      </trkpt>
      <trkpt lat="54.428448" lon="18.501098">
        <ele>130</ele>
        <time>2026-01-01T11:29:40.780Z</time>
      </trkpt>
      <trkpt lat="54.428517" lon="18.500918">
        <ele>131</ele>
        <time>2026-01-01T11:29:43.435Z</time>
      </trkpt>
      <trkpt lat="54.42857" lon="18.50075">
        <ele>131.75</ele>
        <time>2026-01-01T11:29:45.746Z</time>
      </trkpt>
      <trkpt lat="54.428618" lon="18.500574">
        <ele>132.25</ele>
        <time>2026-01-01T11:29:48.033Z</time>
      </trkpt>
      <trkpt lat="54.428677" lon="18.500279">
        <ele>133</ele>
        <time>2026-01-01T11:29:51.737Z</time>
      </trkpt>
      <trkpt lat="54.428698" lon="18.500147">
        <ele>133.25</ele>
        <time>2026-01-01T11:29:53.380Z</time>
      </trkpt>
      <trkpt lat="54.428724" lon="18.499859">
        <ele>134.5</ele>
        <time>2026-01-01T11:29:56.956Z</time>
      </trkpt>
      <trkpt lat="54.428737" lon="18.499662">
        <ele>136</ele>
        <time>2026-01-01T11:29:59.415Z</time>
      </trkpt>
      <trkpt lat="54.428744" lon="18.4994">
        <ele>137.75</ele>
        <time>2026-01-01T11:30:02.754Z</time>
      </trkpt>
      <trkpt lat="54.428766" lon="18.497431">
        <ele>147</ele>
        <time>2026-01-01T11:30:27.595Z</time>
      </trkpt>
      <trkpt lat="54.428797" lon="18.496145">
        <ele>148</ele>
        <time>2026-01-01T11:30:42.595Z</time>
      </trkpt>
      <trkpt lat="54.42882" lon="18.495255">
        <ele>148.75</ele>
        <time>2026-01-01T11:30:51.588Z</time>
      </trkpt>
      <trkpt lat="54.428822" lon="18.495157">
        <ele>148.75</ele>
        <time>2026-01-01T11:30:52.554Z</time>
      </trkpt>
      <trkpt lat="54.42883" lon="18.494849">
        <ele>148.75</ele>
        <time>2026-01-01T11:30:55.485Z</time>
      </trkpt>
      <trkpt lat="54.42884" lon="18.494557">
        <ele>148.75</ele>
        <time>2026-01-01T11:30:58.266Z</time>
      </trkpt>
      <trkpt lat="54.428854" lon="18.494179">
        <ele>148.75</ele>
        <time>2026-01-01T11:31:01.867Z</time>
      </trkpt>
      <trkpt lat="54.428886" lon="18.493692">
        <ele>148.75</ele>
        <time>2026-01-01T11:31:06.526Z</time>
      </trkpt>
      <trkpt lat="54.428896" lon="18.493542">
        <ele>148.75</ele>
        <time>2026-01-01T11:31:07.829Z</time>
      </trkpt>
      <trkpt lat="54.428733" lon="18.493367">
        <ele>147.75</ele>
        <time>2026-01-01T11:31:10.680Z</time>
      </trkpt>
      <trkpt lat="54.4287" lon="18.493336">
        <ele>147.5</ele>
        <time>2026-01-01T11:31:11.178Z</time>
      </trkpt>
      <trkpt lat="54.428438" lon="18.493089">
        <ele>146</ele>
        <time>2026-01-01T11:31:15.163Z</time>
      </trkpt>
      <trkpt lat="54.42839" lon="18.493021">
        <ele>145.75</ele>
        <time>2026-01-01T11:31:16.033Z</time>
      </trkpt>
      <trkpt lat="54.428338" lon="18.492919">
        <ele>145.5</ele>
        <time>2026-01-01T11:31:17.137Z</time>
      </trkpt>
      <trkpt lat="54.428299" lon="18.492822">
        <ele>145.5</ele>
        <time>2026-01-01T11:31:18.145Z</time>
      </trkpt>
      <trkpt lat="54.428273" lon="18.492737">
        <ele>145.5</ele>
        <time>2026-01-01T11:31:19.023Z</time>
      </trkpt>
      <trkpt lat="54.428245" lon="18.492602">
        <ele>145.5</ele>
        <time>2026-01-01T11:31:20.333Z</time>
      </trkpt>
      <trkpt lat="54.42819" lon="18.492206">
        <ele>145.5</ele>
        <time>2026-01-01T11:31:24.055Z</time>
      </trkpt>
      <trkpt lat="54.428141" lon="18.491707">
        <ele>145.25</ele>
        <time>2026-01-01T11:31:28.793Z</time>
      </trkpt>
      <trkpt lat="54.428121" lon="18.4914">
        <ele>145.25</ele>
        <time>2026-01-01T11:31:31.611Z</time>
      </trkpt>
      <trkpt lat="54.428114" lon="18.491264">
        <ele>145</ele>
        <time>2026-01-01T11:31:32.853Z</time>
      </trkpt>
      <trkpt lat="54.428114" lon="18.491262">
        <ele>145</ele>
        <time>2026-01-01T11:31:32.871Z</time>
      </trkpt>
      <trkpt lat="54.428082" lon="18.490589">
        <ele>145</ele>
        <time>2026-01-01T11:31:39.180Z</time>
      </trkpt>
      <trkpt lat="54.428044" lon="18.489963">
        <ele>145</ele>
        <time>2026-01-01T11:31:45.251Z</time>
      </trkpt>
      <trkpt lat="54.428042" lon="18.489947">
        <ele>145.25</ele>
        <time>2026-01-01T11:31:45.408Z</time>
      </trkpt>
      <trkpt lat="54.428017" lon="18.489544">
        <ele>145.25</ele>
        <time>2026-01-01T11:31:49.319Z</time>
      </trkpt>
      <trkpt lat="54.42799" lon="18.489422">
        <ele>145.25</ele>
        <time>2026-01-01T11:31:50.585Z</time>
      </trkpt>
      <trkpt lat="54.427956" lon="18.489336">
        <ele>145.25</ele>
        <time>2026-01-01T11:31:51.573Z</time>
      </trkpt>
      <trkpt lat="54.427882" lon="18.4892">
        <ele>145.25</ele>
        <time>2026-01-01T11:31:53.343Z</time>
      </trkpt>
      <trkpt lat="54.427834" lon="18.489153">
        <ele>145.25</ele>
        <time>2026-01-01T11:31:54.223Z</time>
      </trkpt>
      <trkpt lat="54.427672" lon="18.48913">
        <ele>145</ele>
        <time>2026-01-01T11:31:56.815Z</time>
      </trkpt>
      <trkpt lat="54.427175" lon="18.489155">
        <ele>145.25</ele>
        <time>2026-01-01T11:32:04.941Z</time>
      </trkpt>
      <trkpt lat="54.427169" lon="18.489277">
        <ele>145.25</ele>
        <time>2026-01-01T11:32:06.140Z</time>
      </trkpt>
      <trkpt lat="54.427152" lon="18.489555">
        <ele>145.5</ele>
        <time>2026-01-01T11:32:08.925Z</time>
      </trkpt>
    </trkseg>
  </trk>
</gpx>
